GFSSW_250_rhum_000.txt.gz
RH
45 33 42 47 53 59 69 68 62 57 60 73 72 69 58 60 52 43 38 34 33 29 22 16 15 14 14 11 9 9 10 11 12 14 14 14 15 16 17 19 22 27 30 33 36
83 69 44 35 31 36 30 28 32 30 32 46 49 48 38 33 25 25 22 19 16 16 12 10 8 7 8 9 10 10 11 12 14 15 17 19 22 25 29 33 36 38 39 48 50
64 49 41 37 32 23 19 18 15 16 16 15 16 14 14 12 12 12 11 10 8 8 7 7 8 9 11 12 12 13 16 18 20 23 25 27 27 28 30 34 39 47 59 70 61
73 58 40 30 23 19 18 17 15 16 16 14 13 13 13 12 11 11 10 10 9 8 9 11 13 13 14 14 15 17 20 24 28 29 32 37 41 43 43 43 45 47 47 49 50
37 32 30 29 26 26 21 18 18 18 16 15 16 15 14 12 12 12 12 14 13 15 15 17 15 16 18 16 18 19 20 23 23 25 27 30 34 37 37 37 34 34 34 37 40
32 44 35 32 26 22 22 25 22 18 17 18 23 19 16 16 16 17 16 19 22 20 18 17 17 20 22 21 22 22 26 26 24 24 22 26 28 32 33 32 35 32 27 27 29
42 35 33 29 27 23 22 22 20 20 20 23 27 21 21 19 19 19 18 19 18 18 18 21 21 21 21 21 22 26 26 26 27 26 28 31 34 39 34 29 28 25 33 27 27
37 47 50 41 39 30 26 25 24 22 25 33 25 22 23 21 22 21 21 20 21 22 24 21 20 21 24 22 22 20 23 23 24 32 32 32 35 29 31 34 36 33 28 32 35
56 53 61 60 48 39 32 33 31 29 29 40 22 20 23 25 24 23 24 25 26 25 23 22 23 25 28 32 37 36 32 32 30 32 33 37 41 46 48 56 57 54 52 58 59
44 43 44 56 60 51 41 43 38 37 36 40 23 22 21 22 24 27 25 23 23 22 22 23 25 29 29 31 30 28 28 38 39 42 47 45 42 41 49 56 65 60 63 68 66
38 40 44 39 33 34 49 49 49 61 46 36 24 23 21 21 24 26 26 28 28 35 30 25 29 28 34 34 33 33 33 32 29 45 44 40 45 50 53 58 54 56 59 62 71
47 39 34 35 36 41 57 58 65 71 58 37 30 25 23 24 27 28 28 26 25 30 31 33 32 37 41 42 41 38 38 40 50 41 42 80 52 51 57 57 62 61 71 61 61
40 40 39 37 38 50 60 63 62 82 71 37 29 25 28 28 30 32 32 30 28 27 31 31 32 36 43 46 53 53 51 48 47 46 73 45 56 56 62 62 69 81 84 83 89
40 34 33 38 45 54 64 61 67 88 93 45 29 26 32 38 38 43 38 40 27 33 35 37 35 42 36 45 51 56 82 85 61 55 53 54 55 71 77 81 84 84 91 84 81
35 35 46 46 52 54 53 51 67 97 92 49 27 27 32 35 34 35 42 46 45 42 49 36 32 37 39 43 38 49 62 81 67 74 54 66 79 76 87 79 98 96 100 100 96
44 47 50 57 43 31 40 54 57 81 80 43 29 25 27 27 30 30 27 44 60 53 48 56 46 32 27 29 31 31 38 58 86 68 75 57 97 76 91 91 88 95 96 100 99
39 48 63 43 31 29 29 37 47 50 50 41 27 24 23 26 31 40 36 35 32 42 45 36 58 48 36 24 24 25 31 33 51 76 63 55 64 88 73 91 93 99 95 86 76
44 79 71 33 33 33 30 34 40 44 43 39 26 22 21 28 35 32 34 36 47 48 52 49 40 55 75 35 29 43 42 22 24 43 50 66 45 84 81 100 100 92 79 72 71
70 86 88 37 44 44 38 43 42 39 32 29 23 22 22 26 29 33 48 42 49 64 69 52 40 45 53 38 29 40 58 61 41 37 41 72 80 40 71 79 78 89 85 83 82
87 89 88 49 60 54 37 44 45 39 30 25 23 24 27 32 29 41 54 57 56 65 66 60 46 31 40 44 39 30 39 55 54 30 23 41 100 40 91 86 100 100 100 89 82
66 84 72 61 68 65 49 44 45 32 27 22 26 24 28 36 36 48 51 46 44 55 58 50 36 25 34 42 49 45 36 62 45 36 23 25 100 49 79 64 100 100 100 97 100
85 68 72 85 89 74 61 52 40 30 23 21 22 23 26 34 32 38 42 31 35 40 46 52 40 29 30 41 53 72 58 73 51 50 41 23 89 72 75 76 98 100 100 82 76
84 73 80 88 96 79 64 77 50 43 24 22 24 29 32 35 35 31 32 35 34 36 40 43 47 36 38 35 46 74 86 86 61 83 78 50 46 97 74 87 100 100 100 94 100
63 73 85 67 61 68 72 70 79 59 43 23 23 23 29 30 29 35 37 35 33 34 28 24 26 27 31 37 46 54 84 98 70 73 56 93 48 100 99 96 100 100 100 100 100
84 71 64 75 83 72 57 55 56 63 50 42 22 20 21 24 28 33 36 35 38 46 31 30 35 42 45 48 49 59 89 100 88 99 74 76 100 100 100 83 91 100 100 100 100
77 71 67 52 65 65 43 40 36 37 47 36 26 22 20 20 23 25 28 26 27 42 34 35 31 36 53 57 46 64 100 100 98 99 94 100 100 100 83 94 87 100 100 100 90
60 44 47 72 61 47 42 34 33 32 28 26 22 20 20 22 22 24 25 23 26 38 44 53 39 41 45 51 48 70 100 98 79 100 100 100 100 100 99 81 97 100 66 75 84

GFSSW_250_rhum_003.txt.gz
RH
31 36 56 65 85 100 100 100 100 97 93 100 91 92 98 66 79 83 80 77 65 58 49 38 32 27 34 26 12 10 9 9 10 10 11 11 12 13 14 15 16 17 18 20 22
52 98 83 81 85 100 100 96 89 96 94 98 96 94 84 84 78 69 68 62 57 48 36 23 16 13 9 7 8 10 11 12 12 13 13 15 16 19 22 24 27 30 34 39 45
91 100 100 100 96 89 78 75 73 74 80 78 73 58 60 58 60 45 44 30 19 11 9 7 7 7 8 9 11 11 12 13 14 16 19 21 24 25 28 32 37 37 36 37 36
100 100 100 81 61 41 29 31 33 25 19 22 28 35 38 35 28 18 14 10 7 7 7 8 9 10 11 12 13 13 15 17 18 20 19 21 24 27 32 35 35 34 32 31 32
86 71 55 39 32 25 19 17 15 14 13 13 12 12 12 11 10 9 9 8 9 10 11 11 12 12 14 15 15 16 21 20 20 20 20 24 25 24 27 26 25 25 25 22 22
84 61 42 31 26 22 19 16 16 16 17 18 17 14 14 12 11 11 12 12 13 13 13 15 16 17 17 17 18 21 24 22 23 28 26 29 32 32 33 36 32 31 28 23 21
45 34 28 28 25 23 24 25 23 20 22 22 21 18 16 17 15 14 13 14 14 15 16 17 18 19 19 21 22 26 25 29 28 31 33 35 35 34 32 30 34 37 34 37 39
35 32 30 27 27 27 24 24 25 26 28 31 25 22 20 18 15 14 15 16 15 16 18 19 19 21 22 22 24 26 28 30 28 34 32 46 47 40 44 42 45 49 56 61 59
39 44 45 43 35 31 32 32 28 25 35 39 26 21 22 18 17 16 17 17 18 19 22 22 26 28 29 29 32 32 28 27 31 40 43 45 45 51 49 59 51 50 47 47 59
70 70 64 60 63 52 36 32 37 33 44 50 26 20 20 19 22 20 19 22 21 23 26 28 30 32 31 30 30 32 46 70 66 43 47 49 49 47 44 39 44 53 59 74 83
52 49 53 57 47 44 48 54 50 45 43 50 32 23 21 22 20 20 23 24 22 24 30 34 26 29 29 29 34 28 25 32 46 38 39 40 42 46 49 61 70 74 71 75 65
41 42 41 38 36 42 47 58 56 52 50 58 46 26 22 22 19 21 22 22 26 26 32 39 35 37 37 37 29 34 38 34 37 37 42 43 45 50 60 72 66 68 92 88 68
44 44 37 38 36 38 44 54 60 61 55 55 50 29 23 23 25 25 25 22 26 29 31 38 36 40 44 42 43 44 51 51 46 57 68 57 60 54 56 71 87 90 68 64 61
42 41 40 32 34 43 53 57 53 52 60 61 61 36 26 26 26 35 38 23 28 28 29 29 34 36 38 36 47 47 49 48 36 46 50 86 98 69 98 100 100 100 79 86 82
40 38 35 40 47 55 53 31 31 44 47 78 66 38 27 32 34 25 41 44 37 40 35 38 29 25 25 37 47 54 58 58 46 44 54 60 91 95 85 97 93 92 87 93 98
44 47 46 44 58 47 27 28 28 36 49 60 66 35 28 31 38 25 26 36 39 35 35 35 34 36 33 29 35 59 73 84 55 38 36 42 48 86 85 82 100 98 99 100 100
44 39 46 53 71 30 30 34 30 33 45 48 49 36 27 28 32 28 23 24 26 30 27 29 32 33 38 32 25 37 46 61 72 88 48 42 33 33 45 76 92 99 100 100 100
46 37 51 83 63 34 41 48 38 40 35 44 49 41 25 25 30 27 26 33 36 42 48 45 48 37 38 38 32 26 29 35 44 53 96 68 62 30 25 40 53 83 100 100 100
58 58 58 69 70 47 53 44 41 48 46 43 33 38 25 23 29 30 25 36 40 42 46 43 34 33 30 36 37 38 35 27 42 38 52 96 85 100 39 54 48 80 99 100 98
53 59 80 78 70 53 56 60 51 47 51 42 37 28 22 22 24 28 27 35 31 35 39 41 44 44 29 30 34 40 43 44 49 45 44 59 76 100 54 62 62 94 96 98 88
72 62 61 78 80 59 64 77 59 49 41 31 27 24 22 21 25 24 34 40 32 33 36 33 41 35 26 29 27 31 35 43 46 36 36 35 93 91 89 97 100 100 100 97 53
78 97 84 82 72 87 75 66 56 69 38 32 25 23 22 23 23 24 31 34 26 30 32 38 46 49 27 24 28 35 34 42 46 32 55 33 95 71 100 98 100 100 100 85 40
75 82 80 93 77 84 78 57 60 46 59 37 26 22 22 25 23 23 28 29 29 28 37 43 46 48 47 44 54 80 75 77 53 46 67 51 75 100 87 99 100 100 100 71 47
68 75 76 67 80 80 70 66 60 58 40 54 39 23 21 22 26 27 27 27 27 26 26 34 39 44 43 51 47 57 80 70 61 53 33 74 45 100 81 95 100 100 100 52 58
68 64 86 89 62 54 55 63 64 52 51 44 48 38 26 22 22 21 22 24 30 34 28 23 26 28 30 51 46 48 65 56 57 63 49 53 75 77 96 100 100 97 90 73 74
63 60 70 85 82 56 46 49 49 40 36 38 34 31 27 20 21 19 20 20 21 21 22 25 26 28 33 43 38 45 55 64 66 76 86 83 97 100 100 100 80 70 72 80 74
86 83 81 80 86 63 44 52 44 41 39 32 29 26 23 24 29 29 30 30 31 27 22 24 24 28 36 48 60 63 70 77 88 86 82 51 68 87 97 69 60 88 75 50 53

GFSSW_250_rhum_006.txt.gz
RH
23 28 28 31 39 58 91 100 100 100 97 100 100 96 98 87 86 91 69 66 93 86 93 82 84 81 70 60 53 50 30 20 12 10 11 10 11 12 12 12 13 14 15 15 16
32 32 35 33 40 44 66 96 100 99 99 100 100 98 94 82 98 94 78 82 98 93 82 61 60 52 43 37 35 26 13 8 9 10 11 11 13 13 14 16 17 20 23 26 29
41 70 74 75 73 85 99 86 91 100 93 97 95 92 91 88 79 78 77 77 67 66 58 48 35 25 17 10 10 11 10 10 11 13 14 16 16 17 17 18 22 22 22 24 20
100 100 100 100 100 100 83 85 90 80 84 90 76 80 74 68 62 62 53 45 46 44 26 17 10 7 8 10 11 11 12 13 15 16 17 18 17 18 18 20 22 20 22 23 20
100 100 100 100 99 90 96 78 60 54 48 52 48 32 32 32 35 34 25 18 15 11 10 8 9 10 11 11 12 13 14 15 18 18 18 20 22 26 26 26 30 26 29 27 31
100 100 100 98 80 71 52 29 20 20 18 17 14 15 14 13 14 11 11 9 10 9 10 10 10 12 13 13 14 16 19 20 21 29 30 30 32 29 29 28 37 36 37 41 40
100 99 86 71 37 26 21 20 23 25 23 24 19 16 13 12 11 11 12 11 11 11 12 12 14 14 14 16 19 22 26 24 23 25 26 28 32 35 37 39 36 40 43 38 45
79 63 37 26 26 26 25 30 29 31 27 23 21 18 16 15 14 14 13 12 13 13 14 15 16 16 17 19 21 22 26 25 26 32 32 34 36 36 41 46 50 49 47 44 58
39 28 32 32 37 36 33 33 31 32 34 37 28 23 19 17 16 15 15 15 15 15 17 18 18 20 24 24 24 24 28 26 27 32 35 36 46 52 63 56 62 56 40 40 42
42 47 63 54 41 37 42 34 33 35 48 50 38 26 20 18 17 16 16 17 18 18 18 21 23 26 28 26 29 30 27 26 31 32 36 40 49 59 57 55 53 57 62 62 64
66 75 58 66 67 42 39 32 34 40 40 58 46 28 24 20 19 17 17 17 19 20 21 20 19 18 17 20 20 23 30 39 40 40 41 43 45 56 66 67 66 62 71 62 58
68 54 55 49 39 36 39 41 44 50 48 46 60 40 26 22 19 19 21 20 21 23 23 20 17 20 22 23 30 39 38 42 41 34 35 39 53 58 75 71 69 76 66 70 92
49 47 48 41 42 39 37 40 53 55 47 41 61 59 29 24 23 20 24 23 22 21 22 22 34 35 28 24 19 22 24 28 33 42 47 55 69 61 66 62 74 77 92 100 100
52 50 44 47 37 36 45 51 54 39 37 48 46 84 46 25 26 30 26 21 23 25 24 30 34 30 31 34 36 28 26 19 28 38 42 57 49 39 35 65 72 79 87 92 78
51 47 43 38 37 47 57 51 28 27 30 41 54 76 66 32 26 30 32 28 25 24 25 24 30 28 27 28 29 28 33 31 26 26 27 31 38 33 51 55 54 53 68 100 100
43 40 37 33 43 59 49 27 28 33 30 32 50 64 72 41 26 28 28 31 31 28 29 27 25 30 37 41 44 50 39 40 50 50 37 41 35 40 24 30 41 68 98 100 100
42 34 32 41 51 59 34 32 42 40 35 34 37 48 70 42 28 25 26 20 21 26 28 34 44 43 42 40 42 34 37 38 38 39 59 51 78 71 56 50 40 73 100 100 100
41 43 40 41 54 54 54 36 47 35 40 41 33 44 51 42 26 25 22 23 30 32 37 42 56 51 46 44 39 35 38 40 35 44 62 91 86 95 75 67 47 58 77 100 100
61 58 56 47 54 61 64 49 53 48 43 44 46 42 41 46 28 24 21 24 30 37 43 43 37 42 36 37 38 31 31 34 38 38 45 55 66 86 80 43 50 59 59 66 70
57 58 61 55 61 58 54 59 55 67 50 44 49 38 34 33 27 22 26 24 29 38 37 41 35 35 38 40 42 39 30 29 30 32 34 44 46 74 56 64 71 83 77 75 76
56 64 76 72 64 61 66 64 73 77 51 46 36 28 27 26 27 22 24 27 31 39 38 33 37 38 38 44 41 37 44 40 34 36 31 27 48 61 54 69 82 90 87 77 57
53 64 73 77 80 73 61 75 76 63 64 48 37 30 24 24 23 21 22 28 25 29 28 32 32 43 37 39 35 37 40 44 31 32 37 25 49 49 58 56 59 56 43 62 61
54 59 72 73 84 84 73 68 73 60 49 60 44 40 24 20 22 21 21 25 22 21 25 29 31 34 35 26 27 25 28 30 38 31 34 26 44 57 62 57 62 58 76 92 96
57 62 62 72 73 77 68 65 55 56 51 51 37 38 34 22 20 20 21 22 20 22 24 26 29 32 34 31 24 24 27 32 33 44 43 50 28 45 37 41 54 57 65 75 79
55 48 52 57 68 80 83 57 44 44 42 38 33 32 33 37 31 22 20 19 20 19 19 19 22 24 27 32 28 26 28 29 34 45 46 32 27 43 46 58 57 52 79 94 100
53 58 59 53 69 70 77 84 70 54 42 46 32 32 24 23 25 24 26 25 27 27 26 25 30 25 24 37 25 28 34 47 55 58 65 72 86 100 100 64 63 96 94 78 67
83 87 86 70 68 74 68 79 79 65 51 47 50 42 39 33 35 32 27 29 29 31 32 30 26 26 30 37 42 53 69 96 100 99 92 76 62 56 64 60 71 67 61 63 45

GFSSW_250_rhum_009.txt.gz
RH
13 13 13 16 23 36 45 57 68 68 79 89 94 98 96 95 97 100 98 90 85 93 84 74 67 58 69 64 80 72 82 76 59 52 26 18 16 16 10 10 11 11 12 16 19
16 18 21 22 21 19 25 32 35 44 48 64 77 93 89 88 95 88 88 95 83 76 83 84 79 62 68 60 50 48 38 33 24 19 12 11 10 11 13 14 14 16 16 17 20
21 23 26 28 29 28 31 31 36 36 40 50 59 72 80 74 91 88 74 87 87 84 74 68 55 54 49 46 39 28 17 12 11 11 10 11 13 14 15 16 19 18 18 21 20
28 28 28 30 40 48 51 50 55 53 54 39 32 52 72 71 72 74 71 76 69 61 55 48 49 36 27 21 14 9 9 10 11 12 13 14 16 18 20 21 20 21 23 21 21
71 62 94 85 92 96 92 82 79 82 69 80 78 78 61 64 58 44 46 44 42 38 33 29 19 12 9 9 10 10 12 13 15 15 17 17 22 25 26 28 29 28 29 34 36
100 100 100 100 100 100 100 100 100 100 89 77 59 34 26 20 16 17 14 13 13 12 10 10 9 8 9 10 10 12 14 16 19 19 22 24 28 28 29 29 28 30 32 39 38
100 100 100 100 100 100 100 93 72 47 27 19 17 14 14 12 11 11 11 11 11 11 11 10 10 11 11 12 14 15 19 20 21 24 26 31 31 30 31 33 40 42 42 32 33
100 100 100 100 93 70 42 28 27 25 22 19 18 16 14 14 13 14 13 12 12 12 12 12 12 13 13 15 17 16 21 24 22 26 30 32 36 42 42 46 38 40 40 34 40
96 85 81 75 41 28 26 29 33 32 23 24 23 20 16 16 16 16 15 13 13 14 14 14 14 14 18 19 19 25 23 22 23 26 32 34 38 37 41 45 43 48 56 78 68
69 51 37 35 41 39 36 41 35 31 31 29 27 24 22 18 18 17 16 16 15 15 16 17 17 19 21 24 22 25 22 23 23 29 32 38 40 38 42 35 29 40 59 99 100
42 48 64 64 56 50 45 38 34 38 44 46 40 31 27 22 19 18 18 18 17 18 19 18 18 18 22 21 24 24 26 24 24 26 30 37 44 55 38 36 47 64 94 100 92
61 69 60 59 55 38 39 37 37 46 57 54 44 40 42 26 22 18 19 20 19 20 19 17 17 17 17 18 18 21 24 28 26 26 26 24 36 42 29 46 59 61 58 57 83
70 56 63 47 44 44 42 39 40 50 50 38 39 54 66 38 27 21 20 20 21 21 19 19 18 17 18 18 19 20 20 20 24 27 28 26 47 43 52 43 38 47 67 94 100
56 57 55 42 44 38 35 39 48 47 32 31 32 44 90 67 32 24 22 21 23 22 22 23 23 22 23 26 28 26 21 24 21 31 30 31 27 27 44 40 50 48 58 79 95
57 60 52 48 40 34 37 51 45 26 32 31 29 34 44 84 62 28 24 24 22 23 26 26 25 23 26 33 36 38 33 28 29 25 30 48 40 19 24 32 31 49 49 62 99
56 49 44 40 37 37 50 50 26 26 31 30 30 29 36 52 76 46 26 23 25 23 28 34 31 34 36 42 44 42 42 35 37 35 30 56 70 60 37 23 32 39 41 49 78
51 44 41 33 31 42 54 36 32 37 34 29 29 31 33 37 55 51 30 25 25 20 25 28 36 36 48 55 52 40 35 41 38 41 44 54 58 74 59 48 46 55 45 57 69
43 34 33 35 38 48 62 54 55 43 46 42 36 32 36 38 42 41 31 26 22 19 28 35 44 54 56 46 49 49 41 32 36 36 61 80 84 82 67 67 61 45 43 48 61
39 54 51 46 44 46 59 65 65 57 55 69 44 36 43 37 39 35 24 27 21 25 32 39 45 50 38 37 46 47 44 32 29 38 37 47 54 61 62 56 45 31 33 25 36
50 58 56 59 52 56 60 62 56 59 69 76 53 40 34 28 24 26 29 21 22 21 30 38 34 34 31 40 42 39 28 26 23 24 25 31 42 51 40 35 30 23 18 43 51
55 64 55 54 70 60 53 54 61 71 73 61 61 54 39 27 22 22 26 20 22 22 29 36 47 31 29 31 34 39 44 31 29 28 27 22 30 38 22 21 22 33 49 49 33
46 58 55 60 74 80 85 81 60 67 71 57 54 71 54 43 25 21 24 20 22 23 25 31 25 23 24 28 29 30 32 30 22 21 23 14 25 28 30 31 40 44 50 50 56
55 53 51 62 67 78 74 72 76 75 71 62 68 63 42 41 38 22 21 20 21 21 22 24 21 22 23 23 24 28 29 31 27 22 20 19 22 30 33 38 41 57 82 83 86
56 47 46 57 61 65 73 78 78 66 54 49 47 46 42 41 31 33 23 20 18 19 19 20 20 21 22 21 24 28 40 45 50 50 42 67 53 69 64 60 68 84 88 92 86
50 42 49 53 54 58 57 66 67 67 59 47 42 43 42 32 27 26 28 29 25 23 24 24 27 24 32 34 36 39 45 53 62 67 62 76 85 84 85 89 100 94 94 90 99
40 41 44 46 48 52 48 53 67 71 67 79 55 50 45 40 37 51 33 35 33 28 31 33 34 35 42 48 51 65 90 88 70 67 86 83 74 82 95 96 84 97 92 84 78
48 44 44 47 49 76 70 65 67 72 74 69 73 49 46 53 56 62 57 53 46 46 49 50 44 46 58 71 76 100 100 95 78 80 77 58 52 52 62 54 42 51 65 74 66

GFSSW_250_rhum_012.txt.gz
RH
11 12 13 14 15 14 15 18 19 39 65 86 100 100 100 98 92 86 87 74 85 87 77 74 86 72 70 70 73 69 63 60 71 64 53 46 40 33 20 16 14 12 12 12 13
11 12 14 16 19 17 19 20 21 27 47 72 85 93 93 91 96 92 96 90 70 72 77 87 70 74 74 66 67 65 62 59 56 45 39 33 20 15 12 11 12 14 14 15 16
12 14 16 17 23 27 30 22 25 24 36 61 81 83 98 90 86 89 91 81 78 81 88 74 66 70 62 63 58 48 44 39 41 28 18 14 11 11 13 16 17 18 19 20 20
14 16 19 22 25 27 35 34 33 32 41 47 67 84 82 77 77 77 74 73 74 74 66 58 45 46 43 33 30 34 26 18 14 12 10 11 13 16 20 21 21 22 24 26 26
21 22 27 32 35 31 29 34 41 43 39 34 40 60 76 78 69 57 53 52 52 43 37 29 28 29 24 15 14 11 11 10 10 12 14 15 17 22 22 24 27 29 32 37 38
29 31 26 27 30 39 57 83 68 66 74 78 83 84 74 57 52 40 35 30 24 20 18 14 15 11 10 10 10 10 10 12 13 15 15 21 24 24 26 29 31 35 33 31 35
78 77 86 98 99 99 100 100 100 100 100 84 82 74 52 31 30 21 14 10 9 9 10 10 10 10 10 11 12 13 15 15 17 20 22 25 26 26 29 28 29 32 39 47 47
100 100 100 100 100 100 100 100 100 99 78 51 25 19 14 12 12 11 11 12 12 12 12 12 11 12 12 13 16 18 21 21 21 24 27 28 26 26 27 27 30 60 84 100 89
100 100 100 100 100 100 96 92 67 45 25 20 18 16 15 14 14 14 14 14 14 13 13 13 12 13 13 16 21 20 22 23 22 24 29 28 26 31 24 26 41 66 84 78 48
100 100 98 92 86 84 70 40 32 31 27 24 22 19 16 17 17 17 16 16 15 15 14 15 15 14 16 14 21 24 24 25 23 24 28 29 28 28 31 39 59 74 100 100 100
94 88 77 67 58 36 35 38 38 31 31 29 27 21 20 21 20 18 17 18 17 16 17 17 16 16 20 28 24 21 22 21 20 22 23 26 28 20 33 44 38 46 60 64 99
63 52 44 54 53 49 50 43 34 33 35 33 25 20 21 28 27 22 17 18 18 17 19 18 17 17 18 20 23 25 25 24 24 26 27 25 24 26 25 35 36 28 36 44 49
47 58 62 66 64 48 44 35 30 33 42 31 24 26 28 28 37 32 24 20 19 19 18 21 19 18 17 19 20 19 20 19 18 20 35 27 32 38 35 22 26 37 34 44 50
66 63 61 47 41 35 32 31 37 46 47 31 29 30 31 39 53 50 32 22 20 22 20 20 20 19 21 24 29 32 31 28 21 25 24 29 26 30 42 48 52 72 74 77 62
64 55 57 42 41 39 34 36 44 48 29 26 31 32 32 35 41 71 55 29 25 22 19 20 24 25 23 23 26 34 33 30 30 28 25 26 27 26 34 40 42 34 28 44 63
54 53 56 46 44 38 38 43 48 32 26 31 29 29 27 31 32 42 59 47 26 24 20 20 24 28 29 34 42 44 31 27 27 32 33 33 38 32 23 16 17 16 16 22 31
66 55 47 43 40 34 43 51 42 41 38 38 39 38 35 33 32 38 42 45 32 26 23 19 22 25 31 47 59 48 48 47 30 29 34 35 38 36 35 25 24 27 25 20 30
62 51 46 41 31 36 44 54 59 48 47 47 51 52 40 33 40 41 45 35 35 27 26 24 22 29 29 44 37 38 42 51 51 43 45 42 40 35 28 26 27 27 27 31 36
57 48 40 30 36 38 38 43 53 49 48 48 59 67 43 36 40 37 37 30 25 28 26 22 25 38 37 44 40 43 45 42 42 44 41 38 34 32 30 27 28 27 28 48 52
51 40 46 57 55 50 53 55 60 63 64 60 43 65 55 57 42 31 24 29 27 21 23 24 23 29 38 41 39 34 31 32 31 26 25 26 31 55 36 29 34 51 81 91 78
46 42 60 58 55 73 70 62 60 65 68 75 59 58 61 53 50 33 23 29 26 21 21 22 22 25 27 31 25 21 22 24 25 25 26 24 41 39 36 42 39 61 66 67 65
60 47 58 60 55 64 72 72 70 84 68 76 72 64 66 54 44 36 21 20 21 20 20 21 24 23 24 22 21 23 24 22 21 26 33 27 45 42 40 40 55 53 58 57 52
74 57 48 54 54 57 61 69 66 66 71 72 60 54 55 40 45 33 24 24 19 18 19 20 22 22 19 20 20 23 28 32 38 44 44 44 36 36 33 49 51 60 66 65 71
67 59 48 50 52 48 54 57 61 60 59 60 71 54 55 50 41 37 32 24 24 24 21 19 19 20 22 27 35 57 63 64 68 84 76 83 63 66 67 70 86 82 84 95 96
61 57 52 42 44 43 50 55 56 54 58 62 70 73 67 59 63 54 45 47 35 34 37 36 33 39 48 50 53 69 65 75 81 86 68 73 83 84 83 84 78 85 87 75 71
66 64 57 46 40 39 49 53 53 56 78 63 66 64 65 57 77 58 61 50 46 43 60 68 60 61 100 66 64 80 77 82 78 90 81 74 76 82 88 88 86 72 62 83 83
68 64 61 49 43 44 46 49 52 83 83 84 71 59 58 67 64 62 92 68 72 76 68 57 53 51 70 74 74 100 86 81 70 65 64 70 74 79 73 59 53 52 86 76 63

GFSSW_250_rhum_015.txt.gz
RH
8 10 11 12 13 14 16 16 15 20 28 30 50 78 92 92 99 94 99 89 87 100 98 98 97 98 96 87 78 74 91 76 60 63 47 48 60 57 47 42 39 35 32 22 12
9 10 12 14 15 16 18 22 20 18 21 19 27 46 57 62 77 96 93 85 81 84 94 100 79 74 64 58 59 63 71 66 56 56 60 57 54 42 32 30 23 15 11 12 13
11 12 13 14 16 21 21 22 20 23 31 57 32 20 27 41 54 73 85 90 90 80 58 75 90 83 75 72 53 72 65 60 57 50 48 42 30 18 13 11 11 12 16 18 21
12 12 14 18 22 28 27 29 40 35 23 38 49 26 23 34 44 73 77 81 84 79 60 73 82 72 71 69 60 48 41 38 34 29 16 13 11 11 11 16 16 19 23 26 30
12 15 19 20 24 28 32 43 43 49 69 77 51 57 30 36 44 54 68 68 66 65 63 63 54 48 44 44 31 24 20 16 15 12 10 11 13 16 18 20 21 26 27 28 28
16 18 20 27 36 47 54 58 74 74 60 52 52 68 63 47 54 52 48 43 44 42 40 30 37 24 22 17 13 11 11 10 10 10 12 14 18 23 27 28 29 34 37 43 44
28 32 38 41 46 48 39 42 47 52 80 86 95 100 84 71 53 42 30 24 18 16 14 13 16 14 11 11 10 11 10 10 12 14 19 24 27 27 28 30 36 40 62 44 36
54 56 60 73 91 100 92 100 100 100 100 98 83 64 43 36 27 17 13 12 11 10 11 10 10 11 11 11 11 12 12 14 19 21 23 26 26 27 26 30 44 42 36 34 32
100 100 100 100 100 100 100 100 100 97 87 64 41 24 18 16 14 13 13 12 13 12 12 12 12 12 13 13 13 19 22 20 24 29 31 31 32 26 23 26 28 44 44 31 40
100 100 100 100 100 100 100 94 86 68 46 26 20 19 17 18 17 16 15 14 14 14 13 12 12 12 14 17 19 24 22 21 23 28 35 30 27 24 23 35 49 51 41 45 61
100 100 100 100 100 93 89 78 55 34 28 25 24 23 19 17 19 18 18 16 16 15 16 16 14 14 14 15 16 18 22 27 22 24 26 27 24 22 26 35 37 31 36 40 44
100 100 92 91 84 70 54 42 33 29 27 22 24 22 19 18 19 24 22 17 18 17 17 18 16 16 16 18 21 26 26 26 25 24 23 25 20 21 22 24 32 33 38 34 33
88 82 77 73 57 42 36 35 30 26 26 32 28 23 22 24 22 26 33 25 21 18 18 18 18 16 17 18 20 22 22 20 21 20 23 20 21 22 26 35 22 21 20 21 29
69 56 57 57 54 50 40 30 28 31 34 37 26 24 27 30 28 28 42 38 28 21 19 19 19 19 19 19 23 26 24 26 27 19 18 18 21 20 21 28 42 40 30 32 31
66 66 59 62 45 36 33 31 37 42 44 30 27 31 28 26 30 29 29 46 39 28 22 20 18 19 22 21 20 21 31 33 24 21 25 28 28 27 21 21 25 26 26 24 29
66 66 50 44 39 38 37 37 42 51 35 32 37 37 37 31 30 32 32 31 47 45 28 22 19 19 23 27 27 32 34 38 35 33 29 26 22 26 25 24 20 20 25 27 33
65 56 60 47 50 42 39 37 42 49 39 44 40 44 36 40 40 40 38 36 37 54 42 25 22 19 19 24 30 35 37 45 40 43 49 51 36 32 27 27 28 31 29 31 31
60 59 60 49 44 40 31 32 40 50 49 46 45 44 38 48 36 41 42 35 46 52 49 34 23 22 19 25 39 46 50 38 40 42 41 36 33 33 40 33 33 36 51 48 46
71 67 50 46 42 35 34 37 43 56 57 54 55 52 48 60 51 43 37 29 29 34 36 31 22 21 20 23 28 38 34 30 26 24 24 28 32 31 26 29 37 62 60 48 48
74 64 52 47 40 36 40 42 51 53 56 64 60 49 46 61 42 38 38 23 23 23 29 25 20 20 20 23 25 28 28 28 27 21 23 25 34 62 43 47 80 75 70 79 83
70 58 52 59 59 62 59 54 55 55 56 65 61 69 62 61 45 35 37 25 22 24 24 21 20 19 20 23 25 25 24 25 22 22 24 24 52 44 54 67 75 76 86 88 82
67 55 51 60 61 55 57 63 61 68 72 79 71 79 71 61 62 41 36 31 25 21 22 23 19 18 19 20 21 20 20 20 23 28 34 38 57 54 51 57 57 59 60 57 47
66 55 49 51 55 52 50 60 62 68 70 77 80 70 68 60 52 44 39 34 32 31 27 21 18 18 18 19 21 21 24 31 40 49 54 59 49 48 39 46 43 39 40 45 55
67 66 66 47 43 46 49 52 58 58 63 65 69 77 85 80 70 58 58 45 48 43 38 36 33 34 34 32 37 46 51 55 51 48 44 50 52 57 55 51 57 59 61 60 52
72 65 66 66 49 41 46 50 48 53 58 53 55 58 60 69 72 76 70 57 37 37 41 50 46 58 68 64 66 69 53 53 52 45 47 59 66 61 64 69 63 58 51 56 56
64 62 58 60 59 51 48 45 45 46 52 50 66 69 59 62 64 59 61 66 57 40 45 70 81 84 76 50 45 50 44 41 43 42 52 60 67 68 67 61 53 55 54 54 56
66 66 59 60 58 54 54 43 41 38 45 50 52 84 88 90 75 67 61 53 54 54 57 61 59 56 64 54 49 62 47 47 52 55 62 73 75 67 56 44 46 53 53 56 66

GFSSW_250_rhum_021.txt.gz
RH
9 11 12 10 8 8 10 14 17 21 23 24 22 24 33 65 95 100 100 100 100 100 98 90 94 100 100 95 90 76 63 93 86 91 98 100 93 75 55 69 72 56 82 74 67
8 9 9 9 9 9 11 12 13 16 20 22 24 27 27 44 76 98 100 100 100 100 100 100 99 97 100 99 85 99 68 70 100 92 82 83 72 71 68 74 67 62 73 50 28
9 9 9 9 9 9 10 11 12 14 17 21 24 31 34 37 56 60 72 88 100 100 100 100 98 93 87 88 93 81 78 78 74 80 79 73 65 67 59 60 73 63 40 12 9
9 10 8 9 10 10 10 13 14 15 16 22 24 26 33 38 38 42 56 82 89 99 100 97 88 79 92 92 83 75 68 58 48 55 62 56 51 48 33 33 26 13 10 11 12
10 10 10 11 11 11 12 15 16 20 21 27 36 36 32 35 37 40 42 41 54 70 82 82 82 80 69 72 63 54 53 47 47 43 32 34 31 26 20 11 9 11 14 16 21
11 10 10 11 12 15 16 18 24 30 38 40 57 34 31 35 30 29 29 26 27 32 34 43 50 58 64 55 55 48 36 37 34 30 23 20 12 10 10 11 13 17 20 25 25
14 12 12 14 17 20 29 55 81 48 68 51 48 60 53 41 44 42 33 25 21 19 21 24 26 26 30 30 19 20 22 19 15 12 10 10 10 11 13 16 19 21 21 23 29
17 19 17 19 26 34 47 61 78 97 57 71 60 60 73 77 68 52 41 34 27 22 20 19 17 15 14 14 13 11 10 10 10 10 11 12 14 17 20 21 21 22 24 27 24
25 26 28 41 51 62 70 83 74 66 68 56 79 100 84 65 48 35 24 20 16 15 14 13 12 12 11 11 10 10 11 12 12 14 13 15 21 24 26 26 24 25 33 39 56
34 40 43 48 52 60 57 62 56 58 85 100 99 77 52 29 24 19 16 15 15 14 14 14 14 13 12 12 12 12 12 15 16 18 18 24 25 27 29 27 25 24 22 22 24
44 47 49 52 53 54 59 65 92 100 100 94 84 41 28 23 21 19 18 18 19 18 15 15 15 13 13 13 14 14 15 15 18 19 20 27 28 29 28 27 26 26 22 20 23
53 50 50 58 77 91 99 100 100 96 86 55 32 25 24 23 21 21 21 22 21 20 18 17 16 15 15 16 17 17 17 18 17 17 18 21 22 21 20 17 18 20 20 25 27
90 92 99 100 100 100 100 98 82 65 41 31 29 29 24 23 23 23 21 22 24 30 24 20 19 17 16 16 17 18 18 18 20 21 21 25 27 26 22 21 26 29 34 33 34
100 100 100 100 100 95 95 76 49 38 33 34 38 33 27 24 24 22 22 23 24 25 38 28 25 21 20 19 19 18 18 18 22 22 22 29 32 32 29 32 31 37 40 41 39
100 100 100 96 99 98 69 49 41 37 39 39 34 25 23 25 26 27 28 27 26 29 33 42 32 25 24 24 21 20 19 19 19 22 28 30 29 30 31 32 31 28 26 28 30
100 100 99 98 82 63 71 54 40 39 43 41 27 26 28 31 34 34 29 28 27 28 31 36 48 45 29 26 21 18 20 22 25 26 27 25 25 26 23 22 23 25 23 23 23
94 79 76 78 82 83 60 38 37 39 43 39 33 37 37 38 38 40 32 32 27 31 36 32 30 34 52 42 26 18 18 20 23 26 23 21 22 21 20 21 22 23 26 28 40
90 73 84 91 89 54 38 37 40 40 44 47 47 45 43 41 38 35 39 36 38 32 29 26 28 32 33 36 25 21 18 16 18 22 22 21 21 22 21 20 24 30 36 50 58
88 74 74 68 44 40 41 41 43 35 47 46 49 50 48 49 48 48 51 40 37 32 23 22 22 24 28 31 33 21 17 17 17 19 17 18 18 17 19 26 38 48 54 61 54
90 70 54 53 46 48 45 44 42 38 44 43 48 55 55 50 54 52 42 35 30 28 22 19 19 20 22 24 25 22 17 15 15 16 17 19 20 22 31 45 58 59 62 53 51
79 71 73 67 56 48 47 46 38 38 40 48 47 53 61 61 60 46 33 28 28 30 27 26 21 19 19 19 19 18 17 16 16 17 18 22 27 40 54 55 50 46 52 58 68
91 71 61 65 56 48 47 41 36 37 48 53 61 68 67 68 57 51 47 38 34 29 25 30 31 33 32 28 26 22 18 18 22 32 42 44 62 55 50 49 54 64 69 82 79
78 78 68 72 64 56 51 46 44 45 53 65 68 68 67 65 66 64 61 53 47 46 40 32 29 30 32 35 36 34 33 36 39 56 56 58 51 57 54 67 75 73 64 50 47
88 69 88 82 73 65 57 54 54 52 51 54 57 61 59 60 59 54 55 62 62 57 54 50 43 47 40 36 42 39 35 36 40 43 43 69 64 65 72 73 64 52 50 56 56
95 79 83 86 71 62 58 56 59 58 59 56 55 56 54 51 52 53 52 58 68 66 63 58 56 57 43 40 49 63 50 44 43 47 48 50 56 49 61 62 59 63 62 60 65
100 91 85 88 74 62 58 55 59 60 56 49 47 49 52 51 47 46 46 45 44 47 58 58 61 61 66 50 52 58 46 46 53 56 54 56 58 69 73 63 63 58 59 64 74
100 97 93 94 81 70 61 58 58 58 56 54 57 57 62 56 53 48 40 38 41 42 41 45 51 52 61 61 54 67 58 50 51 58 55 52 76 74 61 65 62 61 64 75 78

GFSSW_250_rhum_024.txt.gz
RH
12 13 14 16 19 19 18 15 14 18 25 29 29 24 20 19 20 34 68 94 100 100 100 100 100 100 100 100 100 100 100 78 84 97 89 90 84 75 84 98 100 95 84 86 82
10 10 11 13 15 15 12 11 10 17 21 26 30 29 25 22 22 22 46 78 98 100 100 100 100 100 100 100 100 100 100 100 83 98 96 82 98 98 96 91 97 81 77 66 54
9 9 10 11 13 12 10 9 9 14 18 21 28 30 28 28 28 29 45 79 99 99 100 100 100 98 100 100 99 92 90 87 90 84 79 98 93 95 95 90 69 61 50 38 21
8 9 10 10 11 9 9 9 10 12 14 16 20 19 25 26 30 34 38 64 99 100 96 98 100 100 100 99 98 96 89 85 73 88 95 86 97 81 68 53 52 32 18 11 11
9 9 9 9 9 9 10 10 11 11 13 13 16 19 25 31 32 32 34 40 54 72 78 88 88 96 91 94 82 91 73 82 75 86 82 74 64 53 50 42 25 12 10 11 13
9 10 10 10 10 10 11 11 13 14 17 18 20 21 24 27 31 32 36 39 40 38 37 38 43 47 55 61 64 60 58 59 53 56 58 54 40 25 18 12 11 11 13 13 17
10 11 10 11 12 12 13 15 16 16 17 20 25 32 26 28 30 37 39 41 39 34 33 30 27 25 27 26 27 30 28 34 35 27 23 18 15 10 11 12 12 14 16 18 21
12 10 13 13 13 15 16 17 22 21 35 28 28 45 46 46 55 54 52 43 35 32 28 24 23 20 18 16 15 16 17 14 14 13 12 10 10 12 16 15 16 18 22 23 26
14 13 14 14 16 18 22 33 64 77 56 44 52 53 70 70 67 54 46 37 30 24 21 18 16 17 16 14 12 11 11 11 10 10 11 12 13 14 18 21 20 22 23 24 28
22 25 18 33 32 64 72 84 94 68 57 54 79 82 91 81 52 36 25 20 17 15 14 13 13 13 13 13 13 12 12 12 12 11 12 13 16 20 25 26 26 25 24 25 24
30 30 29 48 69 79 97 99 65 68 75 90 98 94 91 48 23 20 19 18 17 17 16 16 15 15 14 14 13 13 13 13 13 14 16 19 22 20 23 26 23 20 19 20 22
43 52 70 91 69 67 62 53 66 86 99 100 97 73 36 28 23 21 22 21 20 19 19 18 17 16 15 14 13 14 15 15 14 15 19 20 20 21 22 21 19 19 24 25 28
39 48 46 48 56 57 61 80 100 100 99 87 52 36 30 25 24 23 23 22 22 22 22 21 18 18 18 16 15 14 15 18 17 18 22 25 22 27 25 20 19 21 25 36 30
49 65 72 68 76 92 100 100 100 96 73 47 37 32 25 23 23 22 22 21 22 25 27 30 26 21 20 19 18 18 18 18 19 19 18 19 24 24 22 26 30 34 30 25 25
90 97 100 100 100 100 100 98 83 61 42 43 32 29 26 26 26 28 31 27 26 26 25 27 44 32 25 20 20 20 19 20 20 19 18 21 25 30 27 28 26 25 24 28 28
100 100 100 100 100 100 94 69 50 44 39 41 34 28 30 35 36 40 37 28 27 27 36 35 31 34 40 30 24 22 21 20 20 20 20 22 22 32 24 24 22 23 28 24 25
100 100 100 98 100 99 77 49 41 38 44 41 30 31 37 38 36 39 36 31 26 26 29 36 36 31 30 33 44 33 22 19 19 19 19 19 21 22 21 21 23 25 21 28 40
100 100 98 100 97 76 62 46 38 40 40 38 35 40 42 43 46 40 37 27 31 36 32 27 25 23 26 28 31 31 41 22 17 16 16 20 21 21 18 18 18 22 30 45 60
100 91 96 86 70 62 56 41 41 37 39 44 45 50 47 45 46 46 48 40 37 32 24 20 19 20 21 22 24 27 29 29 21 18 16 17 17 16 16 18 26 35 50 59 53
95 74 71 76 76 66 41 40 40 35 36 44 45 44 47 50 52 55 48 36 33 35 35 30 28 24 21 20 20 21 22 23 21 18 16 16 16 17 25 39 51 62 56 48 51
83 71 77 83 65 42 43 41 41 38 38 41 45 45 48 51 55 51 54 44 39 36 35 34 43 41 39 32 30 28 25 21 19 18 18 21 25 39 48 54 63 60 58 60 53
87 73 65 62 47 46 49 46 44 39 40 44 53 56 55 53 66 66 66 56 45 39 42 36 34 37 42 44 40 34 33 33 32 38 40 43 87 63 58 83 83 61 53 49 56
85 85 66 56 60 59 51 47 44 42 39 53 67 69 67 68 67 62 57 55 52 49 47 43 40 35 38 42 42 34 36 33 37 45 58 80 73 95 75 84 70 54 52 60 65
85 84 73 73 74 61 52 51 51 55 59 63 64 64 59 56 55 53 52 51 50 50 52 55 64 66 54 56 57 48 40 36 38 46 54 73 65 58 52 55 48 49 48 47 42
85 89 89 80 78 72 68 67 58 62 60 60 58 57 54 52 51 51 48 45 43 44 42 40 42 46 50 59 62 54 43 41 40 46 46 50 54 41 52 46 45 49 56 53 54
97 89 85 87 88 85 84 69 63 60 61 58 58 58 50 48 48 49 52 48 45 42 38 34 36 42 42 42 50 54 42 39 40 44 41 44 46 50 47 45 51 50 55 61 69
100 100 99 88 88 98 91 79 68 63 61 57 54 54 55 60 61 62 64 64 57 48 44 42 42 44 44 38 61 60 53 58 55 53 51 50 52 50 44 46 50 58 69 76 81

GFSSW_250_rhum_027.txt.gz
RH
13 11 11 11 13 17 24 30 32 42 44 44 44 44 39 34 32 35 53 100 100 100 98 100 100 100 100 100 100 100 100 100 100 100 100 100 100 100 99 95 91 100 100 100 100
11 11 11 12 13 16 21 28 34 37 32 34 41 46 42 39 36 33 36 49 92 100 96 97 100 100 100 100 100 100 100 100 100 100 100 100 100 98 100 100 100 100 100 100 100
12 12 11 13 14 17 24 27 27 20 19 26 33 35 37 41 40 37 33 39 67 100 100 100 100 100 100 100 100 100 100 100 100 100 98 100 100 92 86 97 100 100 100 100 100
12 10 11 11 12 16 19 19 15 13 12 14 18 24 32 41 45 40 37 35 39 46 74 74 79 97 100 98 100 100 100 100 100 100 100 100 100 98 99 100 100 100 96 87 67
11 10 10 10 11 12 13 12 10 10 9 13 18 22 28 33 33 32 33 38 42 52 63 64 70 84 90 91 95 100 100 99 96 100 94 97 100 99 96 94 96 91 74 52 14
10 10 10 11 11 12 11 11 10 9 10 13 14 15 17 19 24 28 31 32 32 31 28 25 29 38 60 86 93 91 87 99 99 94 97 86 82 93 83 74 62 30 14 10 11
10 10 10 10 11 11 11 10 10 11 11 14 34 14 14 16 22 27 30 33 36 33 30 26 24 27 47 44 45 52 73 74 67 77 75 69 54 47 34 24 13 10 11 14 16
10 10 11 11 12 12 11 11 12 13 14 16 15 16 18 20 24 28 34 39 40 40 35 34 35 36 37 37 35 43 45 45 39 33 34 29 19 15 12 10 11 12 15 16 19
11 12 12 12 13 13 13 19 28 37 22 20 18 23 26 48 53 56 65 61 55 51 46 45 42 40 36 32 29 25 20 18 16 14 13 12 11 10 11 11 13 16 16 18 18
12 12 13 14 14 18 26 56 51 49 54 25 37 52 73 90 90 87 83 79 71 59 42 31 23 17 15 15 14 13 13 12 12 12 12 11 11 12 13 14 18 20 22 21 18
14 15 14 16 17 32 46 50 88 59 53 62 78 99 99 94 80 53 38 27 21 17 16 15 15 15 15 14 14 14 13 13 12 12 12 12 12 13 16 17 19 21 19 18 18
26 26 26 28 38 51 81 100 51 67 70 77 100 97 83 54 30 22 20 19 19 18 17 16 17 16 16 15 15 14 13 13 14 15 15 15 15 17 20 22 24 24 21 19 18
78 95 100 100 95 100 98 78 69 69 88 98 90 66 39 30 25 22 20 21 21 21 21 20 18 18 17 17 16 15 14 14 14 15 15 16 20 23 22 24 23 19 20 19 21
100 100 100 89 93 87 99 75 97 100 100 90 57 36 31 25 25 24 23 22 20 20 20 22 22 20 19 18 18 16 15 15 15 16 17 20 20 23 20 23 22 22 22 24 23
83 100 95 77 77 90 87 100 100 100 93 58 41 34 28 29 28 29 32 30 27 26 25 26 26 30 28 22 20 19 18 17 16 17 18 20 18 16 19 22 21 23 26 26 25
100 73 77 81 87 100 100 100 99 83 65 48 41 35 28 27 30 32 30 24 21 21 20 22 31 35 35 37 30 23 22 21 20 18 18 17 20 14 25 18 22 22 23 24 23
90 94 99 100 100 100 100 99 86 62 46 43 35 31 33 36 38 41 39 31 29 27 28 26 23 24 28 30 32 38 43 31 24 21 17 19 19 17 18 18 18 20 20 20 22
100 100 100 100 100 100 90 72 53 42 43 46 37 38 44 43 37 39 38 39 37 37 33 32 26 22 22 22 24 26 30 33 36 42 22 20 17 16 16 18 19 19 20 23 41
100 100 100 100 100 96 88 57 42 38 42 43 36 48 44 44 48 50 47 47 40 42 40 40 31 27 24 23 22 23 23 25 28 33 32 24 20 16 17 17 18 20 36 61 59
100 100 100 100 100 100 76 49 35 38 41 48 45 48 49 59 59 61 63 53 43 42 47 47 48 50 49 50 44 34 28 24 22 22 21 20 22 16 18 18 26 47 62 71 83
100 100 100 100 100 93 74 41 36 39 38 46 46 49 54 56 64 74 73 63 51 47 46 44 41 46 50 45 40 37 35 36 36 37 35 37 43 39 39 45 54 72 76 67 48
100 100 99 97 86 79 57 38 39 41 40 47 46 53 59 67 77 78 74 66 56 50 49 54 62 60 55 50 43 38 38 43 43 49 45 39 95 53 48 48 66 54 42 42 38
100 96 76 74 86 71 42 44 42 44 45 50 51 66 76 76 74 68 61 59 55 52 50 49 51 51 53 54 51 43 44 48 46 46 49 52 54 58 60 76 61 51 47 41 44
92 84 73 82 80 48 42 50 46 46 49 55 58 70 72 70 64 61 55 51 47 45 44 42 40 38 37 37 38 45 48 53 52 51 52 56 52 55 49 40 42 40 40 42 48
100 87 74 66 63 56 55 57 51 51 62 75 68 61 55 53 53 51 46 45 44 44 41 39 39 37 33 34 41 37 30 32 37 47 47 59 55 49 53 46 46 45 48 55 57
92 86 81 81 76 78 74 62 57 66 74 68 63 55 53 56 54 46 48 52 51 51 51 50 52 47 48 44 48 51 36 31 33 33 39 43 43 40 46 48 54 47 42 51 64
80 80 85 78 69 71 79 79 77 79 77 73 66 66 64 59 50 48 58 60 59 59 59 62 62 60 62 53 57 45 35 32 36 36 36 36 37 46 54 50 39 39 54 76 80

GFSSW_250_rhum_030.txt.gz
RH
40 32 23 19 18 18 17 18 24 32 42 52 54 61 58 52 46 39 33 36 36 84 100 100 100 100 100 100 100 100 91 99 91 99 100 100 100 94 99 100 94 95 96 100 100
33 20 15 13 12 12 12 12 18 32 39 56 62 57 58 59 56 49 42 51 84 85 75 100 100 100 100 100 100 100 99 82 91 78 88 92 95 88 100 98 98 100 100 100 100
19 15 12 10 10 11 12 13 16 31 38 49 46 45 52 59 61 52 46 41 69 100 100 92 100 100 100 100 100 100 100 100 95 93 98 99 100 100 100 100 100 100 100 100 100
16 14 12 10 11 12 13 15 17 25 32 33 46 53 49 57 59 56 49 47 47 95 98 100 99 100 100 100 100 100 100 100 100 100 100 100 100 100 100 100 100 100 100 100 100
16 14 12 11 11 14 15 17 20 25 32 39 42 35 33 41 53 57 52 51 50 47 88 100 100 100 100 100 100 100 100 100 100 100 100 100 100 100 100 100 100 100 100 100 100
16 14 11 10 12 13 15 20 25 30 28 18 16 18 23 31 35 43 45 53 54 48 50 81 100 96 96 100 88 100 100 100 100 100 100 100 100 100 100 100 100 100 100 98 87
14 12 11 11 12 12 15 18 17 13 11 10 9 8 10 17 22 31 42 43 42 41 42 40 75 100 100 100 90 89 91 98 100 100 100 99 98 87 98 98 96 100 79 65 24
13 10 11 12 12 12 12 12 11 11 11 10 10 12 13 13 18 19 21 22 28 32 31 34 36 36 37 36 34 32 35 28 36 48 55 54 68 79 67 54 43 33 19 11 12
10 11 12 13 13 12 12 13 12 12 13 64 35 18 16 15 17 20 23 24 27 29 29 30 30 31 32 34 34 36 36 40 47 49 52 51 52 43 32 18 14 15 12 12 13
11 11 13 13 12 13 13 13 15 21 23 59 30 27 22 27 24 24 27 31 33 37 40 45 52 55 55 58 53 48 39 44 42 35 32 29 18 14 12 12 12 13 12 15 17
12 12 12 13 14 14 14 18 37 41 50 45 23 25 48 36 54 54 72 87 84 71 55 57 47 55 47 30 23 20 22 19 16 18 14 12 12 13 13 13 14 15 16 17 15
13 14 14 15 16 27 72 100 42 91 28 40 50 49 77 86 90 98 94 78 65 44 28 22 18 16 15 15 14 14 14 14 13 13 13 13 13 14 14 15 17 18 22 21 17
14 16 19 25 74 100 99 97 100 64 83 86 98 100 97 91 67 42 27 22 19 18 18 17 16 16 16 16 16 16 15 15 14 14 14 14 13 14 16 17 19 21 22 20 16
20 24 30 93 73 90 100 68 91 83 82 95 94 84 59 34 26 22 20 21 21 20 19 20 20 20 20 19 18 18 17 16 15 14 14 17 14 16 19 17 19 20 19 19 20
30 33 49 69 68 99 100 100 81 91 100 90 67 43 31 26 24 24 22 21 20 19 20 22 25 30 32 28 24 21 21 19 17 16 16 16 17 13 18 21 21 15 19 21 22
100 100 100 100 100 100 100 87 99 96 86 60 37 31 27 27 27 27 30 29 26 26 25 23 22 25 27 29 32 32 29 24 21 20 19 18 18 16 14 17 19 21 21 21 21
100 100 100 100 100 100 94 100 100 89 69 48 39 36 33 32 33 35 32 28 24 24 26 26 25 24 25 26 25 27 27 28 37 44 32 26 29 21 19 16 15 18 19 19 20
100 100 99 100 98 100 100 100 88 73 62 50 43 37 30 32 40 42 38 36 31 27 24 22 20 19 20 21 21 21 22 23 26 29 31 41 33 28 29 20 15 15 16 17 17
100 100 80 90 100 100 100 99 86 66 53 48 38 36 42 47 46 48 44 50 39 34 38 41 43 47 45 44 45 39 41 37 37 30 28 23 24 26 26 27 21 17 17 18 19
100 92 100 100 100 100 92 80 59 49 50 53 41 43 51 50 52 48 53 52 41 43 50 53 54 55 57 47 51 53 48 50 52 55 58 40 32 31 32 34 34 32 40 52 51
100 100 100 100 100 100 93 67 47 41 47 57 44 45 49 50 51 52 56 62 59 57 61 68 72 66 57 65 66 56 55 52 50 53 58 62 75 37 41 35 41 46 60 81 81
100 100 100 100 100 97 93 69 41 42 45 56 61 48 47 51 58 67 71 67 66 62 57 57 60 57 56 50 48 47 54 58 61 63 52 67 100 59 45 41 45 43 29 33 40
100 100 100 100 100 100 95 69 40 44 44 45 45 48 61 59 59 72 71 64 62 58 55 53 51 47 43 40 38 35 34 35 43 43 44 46 57 56 54 69 64 61 59 59 52
100 100 100 98 100 99 86 68 41 44 46 39 48 60 69 71 77 73 67 62 55 51 49 49 47 44 41 40 42 40 40 37 38 37 40 43 39 43 49 46 47 48 45 45 45
96 100 94 100 95 91 79 56 44 46 46 48 49 55 64 74 74 69 57 52 48 45 46 50 52 53 55 55 52 52 48 42 39 32 28 30 33 32 36 39 43 37 45 45 48
94 100 83 91 79 87 78 45 46 52 50 49 49 62 70 74 65 57 56 54 46 47 55 56 58 56 56 56 54 55 59 51 43 37 33 30 30 34 38 45 41 47 56 59 57
96 78 80 84 76 87 63 47 53 58 52 52 53 63 77 73 68 66 65 59 51 54 60 60 62 63 65 58 70 64 71 68 62 46 40 40 40 39 42 42 39 58 58 50 50

GFSSW_250_rhum_033.txt.gz
RH
67 57 51 48 44 36 27 22 22 26 32 33 38 40 51 64 61 53 45 40 37 89 99 100 100 100 100 98 100 100 100 100 98 100 100 96 100 100 93 100 88 71 83 100 94
81 61 50 37 26 20 18 18 18 24 29 34 37 43 58 80 74 64 53 46 41 38 39 80 100 100 100 100 100 100 100 100 100 100 100 93 99 100 100 100 100 100 100 99 99
61 54 46 26 17 15 12 12 14 16 20 26 33 45 61 76 89 80 68 53 48 57 70 90 100 100 100 100 100 100 100 100 100 100 100 100 99 100 100 100 91 95 90 96 100
68 53 24 16 14 11 10 11 11 12 13 19 32 46 65 76 87 86 79 65 53 78 98 100 100 100 100 100 100 100 100 100 100 100 100 100 94 100 72 61 71 88 88 100 100
64 37 19 15 13 11 12 12 12 12 14 20 37 46 65 73 74 70 70 71 65 60 82 100 100 100 100 100 100 100 100 100 100 100 100 100 100 100 100 96 97 100 100 100 100
49 28 18 14 13 12 12 13 14 15 17 26 36 39 57 63 70 63 75 76 72 65 88 100 100 100 100 100 100 100 100 100 97 100 100 100 98 100 100 100 100 100 100 100 100
37 20 16 14 12 12 14 15 16 19 21 27 33 41 50 55 56 49 46 57 70 64 57 100 100 100 100 100 99 100 88 93 100 100 100 100 100 100 100 100 100 100 100 90 96
21 17 14 13 12 12 13 15 21 26 30 33 31 25 23 19 17 27 37 55 65 65 62 62 61 92 100 100 100 100 100 98 94 100 100 100 100 100 96 88 79 64 68 83 62
17 15 13 12 13 13 14 18 20 20 16 14 12 10 9 9 12 16 20 26 32 38 44 54 57 53 46 53 75 100 100 100 100 100 100 90 60 50 51 51 49 46 39 31 13
15 13 12 13 14 13 13 13 12 12 12 12 11 10 12 13 14 17 20 24 26 33 37 37 35 33 33 33 33 33 31 31 35 40 42 47 48 42 38 30 26 19 19 16 15
13 11 11 15 14 13 12 13 14 20 32 100 43 28 26 21 22 20 22 21 22 23 26 35 46 45 47 48 48 48 52 56 55 44 40 25 18 17 15 15 13 12 13 13 14
12 11 14 14 14 14 16 19 40 55 84 98 69 21 42 60 60 43 38 41 57 82 83 76 60 51 56 54 47 40 35 23 20 17 16 16 14 14 13 13 14 14 13 13 15
13 13 13 14 14 23 25 51 88 97 100 46 88 83 79 92 94 94 97 88 81 81 71 63 42 28 21 18 16 16 16 15 15 15 14 14 13 14 15 13 15 16 19 15 17
15 14 14 18 18 33 52 83 100 50 90 87 90 99 98 100 89 87 65 53 37 22 20 20 20 20 20 19 18 19 17 17 17 16 16 16 15 15 16 15 14 16 18 19 20
16 17 21 40 86 84 70 100 100 99 100 100 100 99 92 64 34 27 24 23 22 24 23 23 21 19 18 17 21 25 20 22 21 21 19 18 18 19 17 19 20 22 14 14 17
29 41 62 85 100 100 100 100 98 100 95 98 78 56 48 32 26 25 25 24 26 25 22 22 19 18 18 20 23 26 27 28 30 32 29 28 25 24 20 19 20 22 21 17 16
64 78 79 100 89 100 78 89 94 97 97 65 48 37 28 29 28 29 28 29 27 22 22 20 20 22 22 20 23 23 24 25 26 27 30 30 27 19 20 18 20 24 22 19 19
69 82 100 58 90 100 86 99 99 88 68 43 36 32 30 30 32 36 34 30 27 24 22 22 21 22 25 30 30 34 36 39 39 40 42 29 32 39 37 20 16 16 15 15 17
76 83 100 93 100 100 72 100 94 77 57 48 43 39 35 34 37 38 37 35 31 30 34 43 46 50 50 50 45 46 46 44 44 47 41 27 45 52 52 45 33 26 23 27 33
100 97 93 100 99 97 98 98 79 70 61 56 44 37 34 41 48 46 44 44 40 41 52 54 53 58 56 52 49 42 51 58 64 72 73 60 48 52 59 57 59 52 50 46 49
100 100 89 95 83 99 100 90 82 71 62 55 46 40 50 59 51 50 53 58 58 59 61 66 67 69 57 47 47 50 50 49 51 52 49 51 52 44 41 42 43 50 49 59 61
100 100 71 84 100 100 98 86 72 60 52 57 50 43 52 55 52 57 59 71 72 66 59 55 54 54 51 47 44 42 40 38 35 34 31 35 44 39 36 38 31 27 31 29 33
100 83 98 100 100 100 92 79 60 48 45 49 57 52 52 50 52 62 75 70 65 61 59 54 52 50 46 45 39 36 42 49 52 63 73 57 54 32 35 38 35 43 39 44 45
100 100 100 100 100 100 98 83 61 42 46 48 54 60 48 48 59 68 76 68 63 60 53 50 48 52 59 63 62 60 56 52 49 50 52 52 48 43 45 37 47 43 36 37 38
100 100 100 100 100 100 98 90 74 45 45 48 46 46 40 49 74 82 72 65 59 53 49 52 61 60 59 59 57 54 56 54 50 49 43 44 41 43 43 47 42 36 35 36 38
100 100 99 100 99 88 100 98 78 57 42 46 44 38 35 53 66 72 71 57 49 52 47 45 53 63 64 64 62 63 55 50 50 55 61 59 57 48 39 39 42 44 42 40 41
100 100 100 100 100 100 95 92 79 60 44 43 44 44 47 43 67 62 56 53 48 49 48 48 54 64 70 71 64 59 67 73 74 64 64 57 60 57 44 42 44 44 47 52 45

GFSSW_250_rhum_036.txt.gz
RH
16 23 26 34 54 51 52 32 28 27 25 28 28 28 29 40 39 36 35 46 41 42 43 42 95 58 94 100 100 96 100 100 100 100 100 100 100 100 100 97 86 94 96 84 81
23 35 44 53 56 54 38 34 27 24 22 23 26 28 39 53 56 56 55 59 55 56 59 60 72 100 100 100 100 100 100 100 100 100 100 100 100 100 100 98 100 100 98 100 100
29 42 56 58 54 42 33 23 20 19 20 21 25 36 42 65 71 76 78 79 64 65 93 100 100 100 100 100 100 100 100 100 100 100 100 100 100 100 100 100 91 100 92 100 100
67 70 74 60 49 31 20 15 15 14 15 18 26 37 42 65 79 97 94 82 66 64 73 100 100 100 100 100 100 100 100 100 100 100 100 100 100 100 100 93 100 94 100 100 98
100 87 66 58 34 18 14 13 11 10 12 17 22 31 40 53 75 98 100 90 72 65 60 100 100 100 100 100 100 100 100 92 100 99 100 100 100 100 100 100 100 100 100 100 100
75 64 74 54 20 15 14 11 11 11 11 13 16 26 40 56 78 96 100 98 81 69 67 71 100 100 100 100 100 100 100 98 100 100 100 100 100 100 100 100 100 100 100 100 100
65 70 69 26 17 16 13 12 13 13 13 13 16 24 44 71 91 100 100 100 95 81 70 72 86 100 100 100 100 100 100 100 100 100 100 100 100 100 100 100 100 100 100 100 100
81 66 38 18 18 14 12 15 15 15 15 15 25 40 46 67 85 98 99 99 100 96 87 73 72 98 100 100 100 100 100 100 100 100 100 100 100 100 100 100 100 100 100 100 100
73 52 20 18 16 12 14 15 17 19 20 23 31 36 38 49 64 73 68 67 74 75 84 81 74 87 100 100 100 100 100 100 100 100 99 97 100 100 94 76 95 98 100 100 89
48 26 18 16 13 14 14 19 23 27 29 30 33 34 34 31 24 19 19 26 35 44 59 72 74 70 64 65 91 100 100 100 100 100 100 100 93 95 98 93 86 82 66 50 40
23 19 16 13 13 14 16 19 21 23 21 18 15 12 12 11 11 12 13 17 20 24 36 40 45 46 51 52 53 54 48 44 43 47 41 38 42 51 40 40 38 29 21 18 16
20 17 13 13 16 15 15 16 15 13 13 12 15 18 35 36 38 27 35 25 25 24 25 27 26 28 31 34 39 46 52 49 52 51 46 46 38 30 28 21 16 14 15 14 13
18 13 12 17 17 15 14 16 26 52 60 45 49 59 72 30 45 49 38 30 31 32 57 75 66 64 57 55 48 47 47 42 33 25 20 17 15 14 15 14 17 19 17 15 13
16 13 17 16 15 15 17 36 50 67 89 72 62 88 94 76 70 81 85 80 77 80 87 79 60 40 35 20 19 18 18 17 17 16 16 17 16 16 16 16 18 18 17 17 16
14 18 16 15 17 24 45 70 100 100 100 75 96 94 89 88 94 89 84 74 54 35 25 21 20 19 19 20 20 19 20 20 20 19 20 19 19 19 19 18 20 18 18 19 19
16 16 15 18 35 48 78 100 100 100 87 79 99 100 94 89 78 49 27 25 24 23 23 21 22 22 22 25 29 28 26 26 26 27 25 20 21 25 24 28 31 37 34 28 27
18 17 20 58 73 78 100 100 80 100 100 99 100 98 78 49 30 27 25 26 25 24 22 23 25 27 24 23 23 23 22 21 19 19 19 27 27 28 22 21 27 31 31 34 33
22 38 78 89 79 100 100 100 95 99 100 98 83 50 37 32 26 25 27 28 29 27 27 26 24 24 23 30 35 47 44 49 46 38 34 35 42 34 26 25 27 32 47 48 47
50 73 100 100 100 100 100 100 82 86 94 77 46 30 28 28 28 35 36 36 40 33 32 34 39 49 44 49 53 49 46 48 51 44 51 52 57 60 57 56 51 43 40 40 37
79 94 100 100 100 100 67 81 100 92 69 40 33 33 31 32 33 41 42 44 42 33 41 45 48 53 56 53 53 58 56 56 55 51 42 39 41 39 37 34 31 33 33 31 29
90 97 100 100 100 100 80 97 83 75 49 44 41 42 39 37 42 45 48 53 50 50 55 60 58 62 64 62 55 51 48 44 43 49 43 37 34 32 38 36 34 34 37 40 35
82 100 100 76 100 100 89 95 76 66 58 50 44 40 37 42 48 57 57 59 67 68 68 59 59 58 55 51 47 44 51 55 47 36 35 38 41 44 40 40 37 37 34 34 35
76 98 100 100 100 100 98 88 74 70 61 54 50 45 42 51 54 56 61 68 74 71 64 60 57 54 51 47 52 53 51 49 53 63 61 53 53 47 42 40 41 36 38 38 39
93 93 100 100 85 97 98 89 79 63 54 51 53 48 43 48 53 54 66 66 69 67 65 59 52 49 48 53 58 58 61 58 58 56 54 47 57 56 61 58 59 57 51 44 40
100 100 100 68 99 100 100 92 75 61 47 43 41 47 56 60 52 63 63 65 71 68 63 54 48 48 54 63 65 65 62 57 49 47 48 48 50 58 65 60 55 52 50 42 42
100 100 96 98 88 92 97 84 74 57 46 42 41 47 55 54 42 53 57 65 70 66 54 55 51 46 51 61 68 63 58 49 54 57 58 62 68 60 56 52 50 48 43 38 42
100 100 96 95 92 98 99 86 87 78 56 44 53 50 45 37 38 44 44 57 63 53 53 54 58 66 72 75 68 61 55 50 60 65 64 68 62 58 50 46 43 42 41 44 49

GFSSW_250_rhum_039.txt.gz
RH
17 14 13 13 16 23 24 26 27 23 27 32 31 32 34 39 38 36 39 35 30 30 32 33 42 47 43 45 40 40 33 30 31 89 100 100 100 100 100 100 100 100 100 100 96
16 14 14 16 28 33 31 38 30 35 34 31 29 30 36 43 38 41 45 44 40 38 38 43 52 48 51 57 70 55 50 43 38 89 90 100 100 100 100 100 100 90 84 85 92
16 15 16 23 44 48 41 46 43 40 33 29 27 32 41 46 44 49 51 61 67 69 57 55 67 64 69 74 100 100 85 100 100 100 100 100 100 100 100 100 100 100 100 100 100
16 15 22 41 61 62 54 52 43 33 26 24 24 30 37 42 47 58 74 78 85 83 69 71 66 55 80 100 100 100 100 100 95 92 100 100 100 100 100 100 100 100 100 100 100
16 22 48 74 78 60 54 40 25 19 16 18 20 24 32 40 51 72 82 86 76 85 93 97 94 78 89 100 100 100 100 100 100 100 100 100 100 100 100 100 100 100 100 100 100
18 51 92 79 68 64 46 22 16 13 12 13 14 18 29 41 51 75 82 98 96 82 71 84 96 100 100 100 100 100 90 100 100 100 100 100 97 100 100 100 100 100 100 100 100
24 88 91 67 66 62 27 17 14 13 12 12 13 18 35 41 54 78 100 100 95 83 79 70 88 100 100 100 100 100 100 100 99 99 97 100 92 100 100 100 100 100 100 100 100
37 80 76 72 68 28 18 16 14 14 13 13 16 21 31 45 58 82 100 100 98 98 85 75 75 96 100 100 100 100 100 100 100 100 100 100 100 100 100 100 100 100 100 100 100
52 84 75 81 33 18 17 16 16 16 14 13 14 21 32 49 58 92 100 100 99 100 98 88 71 70 82 100 100 100 100 100 100 100 100 100 100 100 100 100 100 100 100 92 83
73 77 79 50 20 18 16 16 17 16 15 15 16 26 41 53 82 91 91 94 85 81 90 86 85 83 73 76 92 98 100 93 91 99 100 100 100 100 100 93 99 99 96 86 78
81 76 71 22 19 16 16 17 17 18 18 21 34 40 44 45 60 79 97 84 71 81 91 93 87 88 81 76 76 71 81 97 99 99 100 98 97 88 91 93 82 68 52 42 36
80 70 31 18 16 16 17 22 25 23 22 25 33 36 34 39 43 50 44 33 29 28 23 28 44 54 63 64 64 51 53 55 55 53 65 75 73 58 44 43 38 34 28 22 21
68 57 20 19 15 17 19 22 26 28 29 29 29 26 25 21 18 15 13 18 26 27 30 27 34 38 42 37 34 34 35 39 46 46 48 45 40 29 21 17 15 15 15 14 14
64 27 20 14 17 16 18 17 17 16 15 15 15 14 14 23 72 64 68 50 49 51 48 48 47 54 61 59 54 54 48 47 44 38 30 23 16 16 17 18 17 17 16 16 16
47 24 16 16 16 14 16 15 18 22 21 42 54 96 82 92 76 48 51 55 60 62 71 78 74 61 61 52 39 26 21 19 18 17 16 17 17 18 19 19 20 22 23 24 25
31 22 17 16 16 17 32 59 78 77 90 62 65 69 65 89 90 91 84 82 76 72 61 41 33 24 22 22 21 20 21 23 23 22 20 20 21 26 25 28 30 35 42 37 41
28 17 19 16 21 39 67 87 88 100 100 97 93 82 85 87 89 75 69 56 36 25 24 24 22 21 20 19 19 20 19 20 19 22 21 21 22 28 42 51 49 54 60 57 51
25 18 19 20 53 62 75 88 100 100 97 88 89 98 98 94 60 38 29 26 27 28 26 22 19 20 25 25 23 22 28 33 40 41 45 39 44 42 40 42 49 48 46 46 45
18 19 20 34 59 72 97 97 100 94 96 100 100 100 94 42 33 34 30 31 29 26 23 21 23 30 36 49 56 55 58 52 47 45 40 41 41 39 39 37 36 36 36 37 40
19 23 26 57 72 89 100 100 75 94 99 100 98 58 42 36 36 34 35 34 35 30 32 46 61 66 68 67 60 53 50 44 43 41 43 42 42 43 40 37 37 38 37 36 37
20 26 52 86 85 99 100 100 96 72 83 94 62 41 36 35 33 36 41 42 42 43 50 60 62 60 63 62 60 56 52 47 44 42 41 45 41 37 35 34 34 38 43 41 38
23 68 93 98 100 100 100 100 90 85 84 70 40 35 32 33 39 46 47 52 51 50 56 70 74 65 60 56 55 54 55 52 51 51 48 38 34 37 39 42 43 42 42 48 52
82 100 100 100 100 100 87 82 83 91 70 41 40 38 38 37 46 50 61 65 69 74 71 68 63 58 57 54 52 53 52 52 56 51 41 41 42 45 44 47 46 42 42 44 45
91 99 98 94 100 100 97 99 94 84 55 52 46 40 41 46 53 63 70 70 71 76 71 64 63 58 54 52 54 58 57 55 54 52 52 52 52 50 49 42 40 42 40 37 37
100 100 100 100 100 100 100 93 89 74 63 60 52 49 46 45 50 57 53 59 66 66 66 66 64 57 52 48 48 51 53 57 53 48 44 47 54 52 51 53 57 58 56 56 48
100 100 100 100 100 100 100 100 84 76 67 59 61 59 47 44 46 51 44 62 68 70 73 70 63 60 56 52 65 76 61 52 47 42 35 53 61 68 74 67 65 60 56 55 58
100 96 92 100 100 100 97 92 85 78 69 54 49 45 40 40 47 46 64 66 63 67 72 67 60 60 64 66 79 99 74 66 57 47 42 57 64 73 72 68 66 60 59 67 68

GFSSW_250_rhum_042.txt.gz
RH
25 22 21 18 15 16 13 14 16 19 23 21 23 28 29 34 39 38 35 33 32 28 23 23 28 36 34 33 38 37 46 42 42 42 38 34 46 51 100 100 100 100 100 100 100
30 28 25 20 16 15 15 27 31 27 35 27 31 44 45 46 45 42 42 41 40 36 30 34 35 44 46 49 47 48 53 57 63 45 45 41 40 51 62 100 100 100 100 100 100
35 31 27 19 18 17 20 39 47 54 60 52 48 52 45 40 49 51 44 50 48 43 36 44 43 49 53 54 56 52 70 98 100 97 54 54 39 39 52 99 100 100 100 100 100
38 35 31 20 19 27 45 65 73 73 67 70 56 45 41 36 42 48 48 46 54 47 54 46 53 76 76 57 67 89 92 100 100 100 100 95 72 61 65 92 99 100 100 100 100
37 41 34 21 22 59 82 88 77 68 63 46 39 35 34 36 44 49 57 57 76 71 89 95 97 100 92 88 99 100 100 100 100 99 100 94 89 100 100 100 100 100 100 100 100
41 43 30 24 36 65 75 78 69 58 34 23 19 19 22 27 41 51 59 75 90 92 100 96 90 96 97 100 100 100 100 100 100 100 100 100 100 100 100 100 100 100 100 100 100
40 44 28 24 43 66 75 73 72 31 19 16 14 14 17 22 35 55 66 87 100 96 100 99 97 93 94 98 100 100 100 100 100 100 100 100 100 100 100 100 100 100 100 100 100
41 40 28 21 51 72 75 74 42 20 16 14 13 12 15 22 37 55 77 89 100 99 87 79 67 86 93 96 100 100 100 100 100 100 100 100 100 100 100 100 100 100 88 96 98
43 34 28 23 77 72 77 55 23 17 14 14 13 12 16 23 48 56 66 85 97 100 97 81 72 78 79 90 100 100 100 100 100 100 100 100 100 98 100 98 84 97 96 97 97
48 32 24 35 79 82 69 34 19 15 14 15 14 15 22 44 45 53 70 97 100 100 100 100 94 89 82 82 99 100 100 100 100 100 100 100 99 96 94 100 100 100 99 100 94
57 30 21 57 78 88 48 20 16 17 17 16 16 19 31 40 51 61 88 100 97 100 100 100 98 94 87 80 86 91 98 100 100 100 100 100 100 100 99 94 88 97 97 92 76
53 27 22 65 86 60 25 16 17 20 19 17 18 24 35 48 61 94 100 100 100 100 91 89 100 98 92 91 86 85 84 94 97 95 89 86 93 86 83 85 79 79 69 63 47
50 23 28 73 70 27 18 17 19 19 18 18 24 39 47 54 75 100 100 96 86 87 86 90 78 75 66 62 74 75 69 65 60 59 60 52 52 49 46 41 34 25 21 17 16
43 22 50 78 30 22 17 20 22 20 21 28 38 42 43 41 46 53 59 58 40 31 29 23 23 24 28 39 42 38 39 40 39 40 44 46 42 36 30 23 19 17 16 16 18
32 24 72 44 22 16 19 23 26 27 24 29 33 33 32 33 30 24 41 35 37 37 34 47 59 60 52 49 51 50 48 51 49 41 24 19 19 19 18 18 18 19 21 21 19
33 32 79 23 20 17 20 22 24 25 26 26 27 26 32 39 64 98 79 64 61 66 60 59 61 60 59 53 50 43 30 21 19 19 20 21 23 24 25 26 26 24 28 40 46
29 52 53 22 18 20 19 17 17 21 33 29 51 72 91 99 69 69 72 72 72 70 72 62 44 33 29 24 23 24 24 25 23 22 21 20 21 23 25 32 41 43 46 46 38
30 67 29 20 21 19 18 18 24 45 55 71 100 100 62 76 79 88 73 68 65 53 32 25 24 24 25 24 22 20 18 18 23 26 30 32 34 35 40 41 43 40 39 44 46
36 61 24 20 22 20 25 42 77 97 80 76 82 76 92 100 86 73 56 33 29 27 26 25 25 24 22 20 20 22 29 41 43 40 37 34 35 36 38 40 45 51 53 49 45
56 38 20 23 22 22 63 94 96 100 96 100 94 97 96 99 63 36 32 33 32 28 26 23 22 20 22 32 39 48 45 43 39 37 40 43 46 44 45 45 43 40 37 39 42
59 24 18 20 29 54 93 99 100 97 81 88 98 96 100 66 35 38 37 39 35 31 27 27 28 32 48 55 52 48 46 44 41 44 49 51 49 46 45 42 38 39 43 48 50
33 21 20 20 56 88 87 100 100 94 76 83 90 98 55 45 40 43 41 40 39 37 35 42 44 56 61 57 54 51 49 49 48 47 47 51 48 46 41 39 40 44 44 40 38
26 18 20 45 93 97 93 100 80 74 68 90 94 55 44 42 43 40 42 43 44 40 46 45 47 56 57 58 57 56 54 54 53 50 46 45 46 41 37 38 47 50 47 46 44
26 20 21 80 99 100 92 100 100 90 70 88 71 50 44 43 38 42 44 46 47 53 55 64 68 60 62 60 58 58 58 55 50 51 52 46 40 34 36 41 50 48 44 46 50
23 23 66 95 95 100 94 100 94 83 96 80 56 40 42 37 36 39 40 45 55 64 71 71 68 67 65 60 56 55 54 49 57 60 54 44 40 39 46 51 45 41 48 60 62
23 44 100 100 99 100 100 100 84 92 94 62 48 46 41 36 39 50 53 66 74 83 78 75 73 71 69 60 61 61 63 71 69 64 58 50 43 50 52 58 55 55 67 72 70
44 94 100 99 89 98 100 100 100 99 89 70 61 52 41 40 40 42 56 62 81 87 83 86 90 82 72 56 61 82 72 80 63 66 54 46 49 59 74 77 65 62 69 80 90

GFSSW_250_rhum_045.txt.gz
RH
26 26 24 25 26 26 23 19 17 15 20 24 26 24 24 24 26 24 27 35 44 39 37 31 25 23 23 23 21 25 20 23 30 36 37 41 40 43 46 41 38 36 50 98 100
27 26 27 28 32 31 26 22 18 22 29 46 40 36 37 31 32 37 41 49 59 53 57 46 37 31 30 36 36 41 40 41 47 56 59 51 53 58 50 49 46 41 35 77 100
30 28 33 31 30 31 26 27 24 45 63 76 68 71 71 57 52 42 48 60 65 68 68 56 49 40 36 43 52 56 52 50 62 61 85 96 58 70 60 48 48 44 52 95 100
28 26 37 33 35 29 28 25 36 56 80 94 93 79 75 63 53 44 51 63 70 69 62 59 47 52 56 60 66 71 72 83 72 96 100 100 95 65 64 58 62 70 63 96 100
29 31 35 38 39 28 29 26 37 66 78 77 78 73 56 47 50 47 56 65 72 71 73 81 83 78 91 90 98 96 98 100 100 100 100 100 96 86 88 81 77 80 92 98 97
32 30 42 40 41 29 29 23 38 73 70 73 63 35 30 26 37 47 60 64 65 72 88 87 88 100 94 98 100 100 100 100 100 100 100 100 100 100 100 99 97 100 98 97 98
31 32 44 40 39 30 30 24 57 59 70 52 26 19 17 17 24 47 53 62 63 80 91 95 95 100 99 100 100 100 100 99 100 100 100 100 90 100 100 100 100 100 100 100 100
34 34 47 42 40 31 30 31 65 63 53 29 17 16 16 15 20 32 51 65 67 85 94 99 94 78 87 86 95 100 100 100 100 100 100 100 94 94 100 100 100 100 100 100 100
39 42 46 46 44 31 30 55 69 50 33 18 15 14 14 16 20 31 52 60 69 92 96 100 100 92 93 82 98 99 100 100 100 100 100 100 100 100 100 100 100 100 100 100 100
38 41 54 50 50 31 30 67 65 31 20 16 15 15 15 18 23 38 59 69 85 100 100 100 86 74 74 78 91 100 100 100 100 100 100 100 100 100 100 100 100 100 100 100 100
43 40 50 55 48 30 32 67 54 22 17 17 16 15 17 19 26 60 69 89 99 100 100 98 90 97 98 92 96 100 100 100 100 100 100 100 100 100 100 100 81 94 92 68 87
50 37 50 59 45 32 42 69 36 17 19 18 16 16 18 26 50 58 81 100 100 100 100 100 94 99 96 86 85 91 100 100 100 100 100 100 99 95 93 94 98 95 99 99 82
58 44 52 55 44 31 49 61 21 17 20 18 18 21 36 50 58 71 94 100 100 100 100 100 99 100 98 97 90 88 90 90 90 88 94 99 96 84 83 78 76 71 65 59 54
69 63 55 52 41 30 56 31 17 18 20 18 21 27 39 50 63 92 99 100 100 100 100 100 100 100 100 96 100 93 78 83 81 80 76 69 60 61 64 58 52 45 37 24 18
76 72 54 55 39 38 45 22 18 20 20 21 24 34 49 60 79 94 88 100 97 93 86 80 66 43 32 29 34 37 52 57 53 48 45 43 40 42 43 36 23 18 19 20 22
57 62 49 53 35 46 32 18 23 22 20 27 37 45 47 49 53 55 54 51 45 49 46 29 30 35 37 47 48 46 51 52 48 43 39 37 24 20 19 22 24 24 24 32 44
48 52 52 56 34 50 27 19 26 25 23 26 36 37 36 34 36 44 54 56 50 49 46 66 63 62 61 60 59 58 47 34 25 21 21 23 24 25 24 24 35 46 49 45 39
59 48 52 51 34 46 23 22 24 27 28 28 30 30 35 51 85 98 89 76 75 69 63 64 65 55 37 27 22 22 21 21 21 21 21 24 36 53 55 53 46 44 42 41 44
60 51 49 41 35 33 22 23 23 23 24 28 52 76 92 94 81 78 80 77 72 68 60 36 25 24 26 27 28 26 25 22 23 36 50 54 46 44 42 41 42 44 45 45 45
42 45 46 31 39 27 21 21 22 25 58 88 90 99 74 80 88 93 80 65 46 33 27 26 26 24 22 27 30 30 34 44 48 45 44 41 40 43 44 46 47 48 48 43 43
44 44 29 27 39 27 21 27 27 50 88 82 92 86 75 99 95 84 57 33 29 32 31 27 24 24 28 38 42 53 52 50 45 40 44 44 44 49 49 46 44 41 41 48 52
35 30 25 28 40 24 20 36 62 90 96 98 95 88 100 90 82 36 33 38 36 35 32 29 31 40 52 52 53 52 48 46 47 48 49 51 48 48 47 44 38 41 47 46 48
30 23 25 43 39 21 28 75 98 98 100 97 86 93 95 88 52 37 41 44 42 43 38 40 43 48 53 51 44 51 50 50 49 49 52 46 55 52 49 42 43 45 44 42 50
18 23 24 45 25 20 57 94 100 100 96 76 87 98 92 71 48 42 44 43 42 45 45 45 45 54 58 55 56 56 55 52 48 46 48 50 66 53 59 47 43 42 43 47 54
21 24 46 44 21 27 84 96 100 100 96 73 93 92 66 50 44 44 46 48 51 52 55 59 63 64 62 65 64 62 59 55 58 58 65 68 68 48 54 52 49 50 48 54 64
24 32 58 24 23 74 98 94 100 86 82 90 98 82 57 49 44 43 49 50 56 61 71 76 83 71 68 70 71 70 67 62 66 71 77 77 72 62 66 59 61 54 50 56 63
30 56 33 22 31 82 100 98 100 100 100 92 84 73 53 46 45 42 53 56 60 70 77 75 72 75 77 80 80 87 68 75 75 77 81 97 78 74 91 87 76 52 58 74 88

GFSSW_250_rhum_048.txt.gz
RH
30 30 25 26 23 27 24 26 26 23 21 19 29 29 29 22 23 24 20 20 27 28 32 27 26 21 21 20 17 14 15 15 17 19 20 23 29 35 43 46 49 45 46 40 59
34 29 29 25 24 32 28 30 24 24 24 22 60 62 50 43 50 40 31 34 39 44 48 50 44 38 38 30 23 25 28 26 30 32 35 39 49 61 59 60 54 51 45 45 45
38 34 40 32 27 34 33 30 26 27 24 22 60 77 79 78 76 70 51 38 40 54 60 66 61 60 52 41 42 45 44 49 50 52 51 55 66 68 70 70 64 52 52 49 51
36 32 37 38 34 34 37 31 27 28 23 22 51 69 72 82 87 79 77 74 60 60 73 76 75 58 49 56 62 64 68 59 72 65 64 76 100 83 77 72 73 68 58 56 58
29 34 47 42 45 37 38 38 26 25 26 26 47 68 68 71 61 60 63 71 69 73 83 77 70 70 78 72 84 91 85 82 80 83 75 68 100 100 80 82 71 65 79 72 65
41 30 43 51 45 48 38 43 28 28 27 35 54 63 53 34 27 32 42 49 55 76 80 80 88 89 86 93 99 93 98 94 97 100 100 98 100 100 98 85 92 97 81 75 76
42 38 40 57 63 42 53 42 27 29 25 44 58 54 33 18 19 22 36 42 48 72 84 96 99 100 100 100 93 100 100 100 100 100 100 100 100 100 98 89 100 100 100 100 100
44 34 56 54 66 43 53 41 31 32 26 49 48 32 18 16 16 18 34 48 63 80 89 100 100 100 100 100 95 98 100 100 100 100 100 100 100 100 100 100 100 100 100 91 100
41 47 63 63 61 47 58 48 31 32 28 50 33 21 15 15 15 19 43 65 77 85 98 100 100 100 100 100 100 90 100 96 100 100 100 100 100 90 85 97 94 89 97 94 99
54 56 61 72 62 48 63 52 31 32 37 46 22 17 15 16 16 21 48 63 76 95 100 100 100 90 83 87 85 100 94 100 100 98 80 95 78 72 89 100 100 100 100 100 100
64 77 58 62 59 60 62 52 31 29 50 33 18 17 17 16 18 24 48 68 92 100 100 100 100 91 87 74 79 91 100 100 100 100 100 100 100 100 100 100 100 100 100 100 100
64 59 62 74 70 61 61 47 34 31 51 21 18 18 18 16 21 32 60 80 99 100 100 100 100 82 79 82 84 100 100 100 100 100 100 100 100 100 100 100 98 94 93 99 100
71 69 86 64 70 66 56 42 36 39 35 18 18 18 17 20 27 60 75 97 100 100 100 100 92 89 96 100 100 100 100 100 100 100 100 100 99 92 70 78 98 100 91 76 71
63 83 82 81 73 82 58 39 36 47 24 19 20 20 20 32 56 73 89 99 100 100 100 100 94 93 90 100 100 99 95 90 90 89 89 84 83 90 95 95 92 81 80 78 64
71 87 88 66 77 55 51 37 38 43 22 20 22 23 43 54 67 75 95 100 100 100 100 100 100 100 100 100 100 100 100 100 98 91 93 88 80 76 73 70 53 44 34 25 18
56 82 81 85 68 51 55 34 42 34 22 22 22 27 48 52 61 80 94 88 96 100 100 100 100 100 97 98 88 77 72 62 59 62 66 64 55 48 42 35 28 20 20 22 28
73 64 67 88 57 36 48 32 46 32 25 23 23 30 45 57 77 88 97 100 96 92 89 81 65 56 39 31 39 43 48 68 58 53 50 42 36 26 22 23 23 28 41 42 41
88 81 74 74 56 42 42 35 48 28 26 24 30 38 50 52 60 58 55 48 46 51 39 37 41 48 51 57 50 43 52 51 38 27 24 24 26 26 34 41 41 40 42 47 50
83 72 65 54 56 37 45 40 50 34 27 24 28 41 41 39 35 40 81 65 65 62 61 62 63 58 57 50 47 40 25 24 25 26 24 33 46 44 43 45 48 51 51 49 46
75 57 54 52 30 40 42 39 49 37 26 32 34 31 32 33 65 89 83 62 69 63 62 67 57 39 26 24 22 21 22 23 24 34 45 44 46 50 52 54 54 52 48 38 43
52 44 56 76 36 38 51 36 52 31 26 37 35 33 37 93 84 78 58 66 74 68 49 29 27 27 25 23 23 24 30 48 55 49 46 46 53 54 56 54 50 47 39 42 43
61 53 52 72 44 41 41 36 57 27 31 45 51 74 97 98 76 57 81 71 44 27 29 28 26 25 25 27 36 56 65 56 50 53 58 57 56 58 55 53 53 46 46 42 42
70 60 70 72 43 37 34 37 55 27 40 75 93 100 100 75 93 92 70 40 28 29 30 29 26 30 34 47 60 62 57 53 56 58 59 61 57 50 60 64 58 56 54 54 52
45 46 37 36 49 37 30 46 39 33 62 92 99 98 92 89 94 85 40 31 34 34 37 34 36 46 58 72 72 61 58 58 58 59 62 55 55 51 74 79 62 64 57 53 50
38 58 33 32 31 29 32 57 27 45 89 100 94 100 86 91 90 51 38 38 46 45 48 45 49 65 83 78 65 63 61 60 58 58 62 55 61 49 74 77 74 62 64 62 57
21 38 31 34 28 30 41 44 31 82 98 99 90 98 87 91 84 53 42 43 46 49 58 56 64 83 83 68 65 67 68 61 61 63 64 65 76 57 64 78 82 75 70 66 66
20 20 22 25 30 29 55 28 74 83 90 92 88 89 88 95 61 47 48 50 53 59 61 66 74 86 83 72 71 77 67 64 60 59 64 72 79 83 91 92 86 81 82 90 90

GFSSW_250_rhum_051.txt.gz
RH
65 54 42 30 39 40 32 28 29 37 36 26 23 22 22 63 57 33 25 23 20 19 19 18 18 17 16 16 19 20 18 19 16 14 15 18 18 62 32 20 20 22 23 44 33
63 58 43 35 41 43 45 34 31 52 42 33 25 23 26 55 68 88 91 61 34 34 38 30 27 20 25 22 23 26 28 21 27 26 84 100 55 30 31 33 31 30 26 34 38
62 66 73 56 39 52 36 50 40 43 45 35 28 24 33 63 65 76 78 75 64 49 51 65 62 48 39 47 50 58 44 39 51 64 100 100 58 34 42 85 85 39 45 62 50
50 43 77 87 54 48 38 52 46 54 53 37 30 26 39 58 69 74 84 86 70 56 59 58 70 58 61 60 75 72 79 73 55 70 58 39 43 52 56 60 98 62 38 57 56
73 60 85 86 73 62 40 50 49 62 59 38 31 27 46 65 59 64 63 60 50 57 54 67 72 79 85 76 80 86 97 72 94 73 65 69 82 89 83 77 72 77 84 66 58
73 60 86 100 92 64 63 58 61 67 58 43 29 27 50 54 41 32 29 35 49 47 73 96 90 100 95 91 95 100 94 80 97 97 100 99 98 100 97 100 100 89 79 64 67
53 69 81 100 85 77 59 66 69 70 76 45 28 30 45 34 20 18 19 26 37 60 93 97 98 100 100 100 100 100 92 95 95 90 85 100 100 100 100 100 100 100 100 99 99
62 63 66 85 75 75 73 66 56 60 58 47 28 36 40 20 17 16 18 24 45 62 85 98 100 100 100 100 100 100 99 92 98 95 96 97 100 100 100 100 100 97 85 100 100
66 74 64 67 78 63 76 71 67 54 66 49 28 38 22 16 15 16 18 38 57 70 89 97 100 100 100 100 100 94 88 85 95 100 100 100 100 100 100 100 100 100 100 100 100
50 56 69 67 78 74 70 71 59 76 68 46 31 32 16 16 15 16 24 50 65 84 99 100 100 100 100 100 90 94 95 92 99 99 100 100 100 100 100 100 100 90 94 97 76
58 50 57 73 82 73 70 56 67 98 62 43 31 20 17 18 16 18 36 64 80 95 100 100 100 100 100 94 94 96 95 98 100 100 100 100 100 100 94 71 62 80 100 100 98
50 56 77 78 75 79 75 53 70 85 95 40 29 18 18 18 17 21 46 61 75 98 100 98 84 87 95 84 90 93 100 100 97 100 100 100 90 75 100 100 100 100 100 100 100
59 67 72 70 74 69 75 75 78 83 100 36 27 18 19 17 19 28 44 65 84 100 93 100 100 100 88 85 73 77 100 100 100 100 100 99 100 100 100 100 99 98 100 100 95
58 65 67 85 82 69 96 76 55 76 96 32 25 20 19 18 22 35 50 72 89 100 100 100 100 99 78 82 81 78 100 93 100 100 100 100 100 100 100 100 100 100 90 62 53
60 59 60 87 84 83 82 81 54 68 91 33 22 20 20 22 27 58 72 87 100 100 100 100 100 97 94 100 98 89 92 100 100 100 100 100 100 96 99 92 90 91 96 95 92
55 56 63 77 98 92 74 69 69 83 56 34 21 21 26 30 46 69 82 100 100 100 95 98 93 90 99 100 98 100 100 99 95 84 86 84 84 88 88 82 79 75 62 46 29
71 68 72 92 98 89 94 50 63 76 48 32 22 22 40 60 62 62 73 94 100 100 100 100 100 100 100 100 100 100 100 100 98 95 86 72 64 57 58 43 34 29 23 23 31
95 87 78 99 92 100 82 55 83 64 38 31 24 25 36 66 67 65 79 91 94 91 79 95 100 92 84 89 95 86 59 55 50 51 53 52 46 36 28 24 22 28 37 36 37
92 100 95 100 99 98 51 63 87 65 41 30 25 29 34 49 65 82 88 88 96 95 82 77 70 71 63 55 55 59 49 46 41 37 37 30 24 24 30 38 39 39 40 42 47
96 100 100 93 100 100 60 97 82 50 40 31 26 30 40 50 58 64 55 48 46 43 41 50 64 66 60 56 55 54 47 42 34 28 28 29 39 49 44 40 41 46 49 51 45
100 100 100 83 98 65 69 100 73 46 37 33 25 27 36 46 45 41 36 54 44 46 59 69 66 58 51 48 40 28 30 31 30 29 42 62 55 44 45 49 54 55 52 52 44
77 98 100 96 100 89 87 98 72 40 38 38 25 30 38 35 38 76 68 93 86 69 68 65 62 49 30 28 30 31 30 28 42 60 58 51 54 53 59 60 59 56 60 59 52
90 100 100 100 87 84 80 77 64 37 40 44 24 45 51 57 97 100 100 97 83 69 70 52 29 28 28 26 27 29 41 63 64 56 51 52 49 61 64 59 62 63 67 69 60
98 100 97 59 84 100 96 93 54 41 41 45 27 59 72 88 100 100 97 88 80 69 35 30 30 29 26 26 58 68 72 63 58 58 54 62 47 52 54 54 58 62 68 66 54
67 84 83 56 94 100 88 64 54 37 43 44 40 77 87 100 100 96 95 93 76 32 32 33 33 29 34 60 70 68 66 62 60 56 64 54 54 45 62 68 74 83 72 69 69
100 96 68 70 90 94 72 51 51 38 40 37 76 91 100 100 100 85 96 89 42 33 38 37 39 37 54 67 75 73 71 61 59 60 64 60 65 47 65 74 77 82 72 66 72
97 81 49 66 83 84 70 56 45 37 41 32 73 84 99 100 100 97 95 70 38 40 39 40 43 47 60 72 77 78 65 61 64 67 67 72 74 79 79 70 65 66 68 73 75

GFSSW_250_rhum_054.txt.gz
RH
79 54 38 28 29 25 36 40 54 80 87 55 70 60 33 23 26 25 44 59 57 29 21 19 16 14 15 16 16 13 18 20 17 12 11 14 19 100 98 100 98 100 73 60 79
44 42 29 24 34 44 39 48 77 89 89 70 74 56 34 24 29 30 50 68 68 49 26 27 21 17 18 17 18 17 17 16 17 18 12 28 91 100 100 100 100 98 98 96 100
34 30 28 29 38 50 38 41 80 80 66 74 75 58 36 24 32 39 56 69 76 67 43 68 31 27 35 25 27 29 31 27 21 16 29 96 100 100 99 100 100 97 98 100 94
32 33 34 36 41 40 36 39 80 81 70 77 74 71 41 27 31 52 57 62 67 68 64 63 74 58 77 66 62 64 68 48 40 35 46 100 100 100 73 98 100 100 88 78 51
36 36 42 36 46 61 55 55 52 59 69 84 73 59 45 28 31 39 34 38 53 62 69 62 66 70 81 77 90 100 90 92 63 40 93 100 100 100 99 60 62 79 75 51 55
41 45 41 47 44 46 57 57 58 57 67 90 66 66 48 28 31 27 17 17 25 34 58 58 58 77 84 96 94 100 100 74 94 56 76 100 100 98 69 83 58 61 74 100 86
59 51 53 54 55 46 54 52 58 64 64 92 87 54 52 29 23 18 16 16 18 24 48 57 76 100 98 100 100 99 96 76 100 100 99 89 72 74 50 63 81 91 100 99 99
70 78 58 73 70 59 47 54 77 69 72 86 88 83 37 31 19 18 16 16 18 29 48 76 97 96 100 100 100 100 100 93 100 100 100 90 79 87 83 96 100 95 100 100 100
68 75 94 94 71 66 51 58 72 67 63 94 95 47 39 31 19 18 16 16 20 32 57 84 99 100 100 100 100 100 98 100 97 100 100 93 95 99 100 91 90 100 100 100 89
73 75 75 86 74 50 51 53 58 63 66 94 83 45 33 29 20 19 17 18 27 50 75 100 99 100 100 100 100 100 90 93 100 100 100 100 100 100 100 100 100 100 100 96 92
80 78 88 99 75 58 50 57 68 60 76 97 67 50 28 24 21 20 19 30 44 64 91 98 100 100 100 100 96 96 95 87 88 100 100 100 100 100 100 100 100 100 100 100 98
73 83 91 95 81 59 53 62 57 56 80 99 76 43 34 22 22 19 23 46 59 67 81 90 100 100 96 95 100 89 80 94 100 98 100 100 100 100 100 100 100 94 68 81 91
92 54 79 90 72 71 58 66 57 58 75 100 77 39 30 22 21 19 25 51 58 77 84 72 100 87 83 91 87 84 100 100 100 100 100 100 100 100 100 92 67 90 100 100 100
93 45 63 99 67 74 69 64 61 54 66 99 78 42 27 21 20 20 28 49 63 68 85 85 71 93 100 98 88 92 93 58 100 100 100 100 100 100 100 100 100 100 100 100 100
94 56 67 100 71 76 79 71 62 58 65 76 83 45 25 23 20 22 34 55 66 73 89 90 74 79 90 96 86 70 57 56 98 98 79 88 84 100 100 91 80 88 77 83 90
82 75 85 88 60 69 88 73 64 67 74 80 86 52 26 24 22 26 39 61 86 91 100 100 93 99 100 81 76 68 75 100 93 100 100 100 88 100 100 100 94 98 99 95 82
80 67 79 76 71 77 84 71 70 97 78 90 90 53 26 25 29 43 56 64 83 99 93 85 84 99 82 97 83 87 95 100 100 96 92 100 100 82 100 100 100 90 81 63 46
56 68 80 66 84 88 78 53 60 76 84 95 100 77 30 26 38 67 69 79 99 100 100 92 89 99 100 100 100 100 100 100 100 99 100 100 100 86 89 77 63 49 36 26 23
52 63 66 76 93 92 71 64 68 76 100 100 100 59 32 26 38 72 72 84 100 100 100 100 100 96 100 100 100 100 99 100 99 93 83 79 71 58 43 37 32 26 26 32 36
88 94 93 96 85 80 63 66 93 87 100 100 99 53 35 27 30 70 76 87 89 100 99 90 95 74 87 87 90 95 98 79 64 53 49 49 40 36 26 25 32 37 38 36 34
100 100 100 100 100 84 69 83 100 78 97 100 91 64 39 28 29 50 65 77 91 89 75 69 61 66 61 53 64 69 58 54 53 52 47 38 29 28 30 50 45 42 40 42 43
100 100 100 93 80 100 83 100 100 82 100 100 100 67 40 30 30 44 58 57 51 58 56 63 82 80 60 62 55 53 58 56 38 28 28 28 29 35 50 46 42 43 49 47 49
100 100 100 92 100 97 100 100 98 90 100 100 100 66 42 32 27 40 46 54 51 87 85 88 84 73 60 57 55 46 32 29 30 31 33 44 45 50 45 46 49 50 53 50 50
100 100 95 85 69 79 82 100 88 91 100 100 98 72 45 30 28 31 42 85 100 98 98 97 80 64 60 48 33 29 26 28 31 51 42 60 45 58 55 57 61 62 53 53 53
76 97 100 81 78 87 100 100 100 100 100 100 99 90 49 33 28 42 84 100 100 88 88 82 74 64 32 30 28 27 29 42 68 60 58 50 49 53 56 66 65 59 69 52 58
87 84 90 78 85 89 100 82 88 100 100 100 95 68 46 35 32 52 69 100 100 94 90 80 58 34 34 31 30 36 59 65 61 57 61 57 57 57 58 63 65 74 66 86 68
95 98 94 81 99 100 100 100 100 100 100 100 85 70 44 35 29 61 100 100 100 93 94 77 41 37 39 37 35 76 57 62 65 64 57 62 67 64 65 74 67 69 58 71 62

GFSSW_250_rhum_057.txt.gz
RH
100 100 100 100 98 54 30 24 22 22 32 41 58 54 44 46 53 55 42 35 37 51 79 57 31 22 20 15 14 14 16 15 11 10 10 10 11 13 29 78 100 100 100 100 100
100 100 100 100 66 44 26 23 22 28 34 47 53 65 54 53 65 55 32 28 37 57 60 70 36 29 30 27 20 19 17 14 16 13 10 11 24 24 91 100 100 100 100 84 72
100 100 100 96 56 33 27 22 29 27 33 55 54 68 50 45 60 57 30 22 29 46 67 65 57 39 40 31 28 27 21 17 15 15 15 18 25 87 100 100 100 100 100 89 100
100 100 100 79 52 35 28 27 32 31 41 57 46 62 52 53 58 45 27 19 16 25 44 56 56 61 46 54 43 43 19 23 33 27 13 15 24 100 97 75 100 100 100 93 100
100 100 96 78 47 38 38 37 42 36 46 70 50 56 53 46 58 38 24 17 16 17 23 50 56 61 59 64 72 40 41 62 69 16 26 31 67 100 94 100 80 86 100 100 100
100 100 97 66 50 46 44 41 37 48 46 57 50 57 59 51 63 36 20 17 15 16 18 36 57 51 70 58 78 82 84 70 47 33 44 54 100 100 89 100 99 99 100 100 100
100 100 89 63 60 50 45 45 55 53 58 50 55 62 50 48 61 31 18 16 15 15 18 30 50 59 80 98 96 100 100 77 94 67 60 65 100 100 75 100 100 98 100 100 100
100 84 76 67 56 57 48 43 69 55 59 54 59 64 55 49 53 30 18 16 15 16 20 32 64 58 87 96 100 90 100 100 89 92 73 56 100 100 100 82 100 100 100 75 59
100 100 92 79 72 70 64 58 76 71 65 56 59 65 56 46 50 32 19 16 15 18 27 48 70 90 99 100 100 96 97 97 93 89 56 61 98 100 100 100 79 93 94 100 100
93 91 86 89 69 81 71 55 75 67 82 64 63 67 49 47 47 34 21 17 18 26 35 60 79 92 95 100 100 99 98 100 99 95 81 68 74 77 78 77 80 90 92 96 100
90 80 82 75 77 79 82 64 80 65 94 75 73 71 49 47 49 30 21 20 20 38 48 67 76 89 95 98 99 100 98 96 100 100 100 100 100 100 100 100 100 100 96 100 76
95 91 80 76 78 89 80 80 73 54 97 68 80 70 48 47 49 30 21 21 30 50 52 78 95 86 91 95 82 81 93 93 96 96 100 100 100 100 100 100 100 97 100 100 100
94 94 95 84 84 80 86 88 43 52 95 77 79 80 44 52 57 41 21 21 27 54 60 89 88 96 80 73 76 78 79 98 100 100 100 100 100 97 100 100 100 100 82 100 100
92 78 83 90 94 80 76 98 48 52 92 77 81 84 50 48 62 36 22 22 34 69 67 66 68 54 52 70 86 79 85 100 100 100 100 100 100 100 100 100 100 100 100 96 94
100 91 86 71 68 69 91 86 56 56 86 69 78 74 50 48 69 37 23 26 45 82 80 80 74 71 77 80 100 97 96 87 83 97 85 98 100 100 100 100 100 100 100 99 100
100 100 93 74 75 70 75 85 61 45 98 70 86 78 47 45 69 39 24 33 47 78 98 77 75 77 77 96 100 99 70 61 76 97 93 65 71 79 88 88 100 90 98 94 78
100 85 83 83 94 96 87 87 72 58 77 82 84 70 61 45 64 41 26 47 64 78 98 85 100 68 66 74 93 65 67 81 76 71 63 62 74 66 76 65 93 84 76 55 70
99 78 63 69 64 79 75 82 70 99 85 81 86 69 54 52 64 44 28 52 72 92 100 80 75 81 70 78 100 83 73 88 99 76 92 100 92 100 100 95 100 99 83 78 71
74 59 60 72 51 74 67 68 73 90 85 92 76 69 56 52 73 57 34 56 71 93 100 100 100 100 76 98 85 79 88 83 94 100 100 89 70 73 92 89 89 80 62 39 37
69 81 83 73 60 66 65 57 66 96 100 88 68 75 62 53 82 69 40 43 72 88 95 100 100 100 76 100 100 100 87 91 100 100 100 86 76 80 66 57 54 46 39 33 27
76 60 90 63 66 65 60 89 100 96 89 82 69 68 79 71 85 79 41 31 66 72 92 88 96 91 89 96 87 84 98 92 88 90 82 59 54 42 37 49 40 30 27 39 44
52 44 73 54 55 59 77 100 100 100 88 69 73 91 84 74 78 67 42 30 45 62 74 88 82 60 59 50 57 59 54 56 56 62 55 50 56 40 35 28 26 35 47 45 40
51 50 60 45 45 81 98 100 100 100 100 100 89 82 70 94 68 70 51 35 32 51 62 61 64 64 68 82 53 61 57 58 59 51 44 34 26 24 24 30 44 49 48 49 44
51 47 45 40 67 86 100 100 100 100 99 93 96 90 90 96 73 77 65 40 27 45 52 48 84 100 97 91 68 67 62 57 41 32 30 25 24 24 36 45 54 56 44 50 54
44 39 38 53 86 100 100 100 100 100 100 100 100 100 96 83 83 99 83 50 28 36 41 83 98 100 93 90 73 60 53 32 30 27 25 22 35 33 51 56 55 55 58 44 50
33 33 33 80 100 95 100 100 100 100 100 100 100 100 96 90 79 86 68 52 32 35 56 100 98 86 96 85 72 38 33 28 25 23 28 41 63 50 50 57 67 76 68 64 77
34 31 34 92 98 99 100 100 100 100 100 100 100 100 100 82 87 84 79 49 35 43 70 94 98 89 94 85 53 47 30 30 33 39 48 62 63 64 54 59 61 58 60 63 61

GFSSW_250_rhum_063.txt.gz
RH
100 100 100 100 100 100 100 100 95 100 98 96 100 96 58 38 25 24 20 24 37 41 29 21 17 16 16 33 26 18 16 12 12 15 16 17 17 20 28 37 28 25 53 46 38
100 100 100 100 100 100 93 99 83 96 99 100 100 97 59 38 32 28 21 24 38 43 31 18 16 15 15 29 34 21 15 15 16 17 19 18 18 27 79 100 80 100 88 70 43
100 100 100 100 100 96 100 100 90 95 95 100 100 92 59 40 35 26 18 24 38 36 22 17 14 14 15 30 48 29 20 18 20 20 23 23 22 22 31 55 83 98 79 56 77
100 100 100 100 100 100 100 96 94 90 100 100 100 91 56 40 32 23 21 30 40 32 19 15 14 14 18 46 50 39 41 31 29 30 31 30 25 26 46 75 94 92 78 70 54
99 100 100 100 100 99 86 77 77 98 100 100 100 87 52 38 31 22 24 32 38 28 18 14 15 16 20 52 48 36 42 60 48 43 40 35 37 33 49 45 90 86 99 94 100
95 94 96 100 95 85 86 88 95 100 100 100 100 78 48 38 31 26 26 34 39 27 18 16 18 18 27 51 49 39 66 73 52 37 45 45 41 45 74 62 74 100 100 100 100
100 100 100 91 90 94 94 92 84 100 99 100 99 70 46 34 32 31 28 33 41 26 20 20 26 22 36 54 51 44 73 79 62 45 35 38 38 37 77 53 100 100 100 100 100
100 100 100 100 100 85 84 80 84 93 93 100 83 65 48 38 35 36 36 33 40 29 21 25 30 32 39 57 58 60 72 70 49 66 90 72 62 64 89 90 100 100 100 100 100
100 100 100 100 100 75 83 79 99 100 100 100 79 57 47 44 38 44 47 37 41 29 23 25 31 40 45 52 68 96 100 96 99 63 69 70 99 95 100 100 100 100 100 100 100
100 99 100 96 99 88 78 100 100 100 100 100 70 59 49 48 41 49 54 43 46 30 25 26 34 56 72 84 79 100 100 100 90 76 100 86 91 100 100 100 100 100 100 100 100
100 100 92 86 100 100 93 96 100 100 100 91 77 69 54 52 44 52 64 44 51 32 29 37 62 88 86 86 79 91 95 98 88 100 100 94 91 100 100 100 100 100 100 100 100
100 100 100 100 100 100 100 88 100 100 100 98 89 80 64 50 41 54 66 44 52 38 37 45 68 83 77 100 96 100 95 100 100 84 100 100 100 100 100 100 100 100 100 100 99
100 100 98 100 100 100 100 100 100 95 100 85 100 77 73 60 46 48 59 54 53 41 38 52 60 83 99 77 94 82 82 82 83 100 100 100 94 100 100 100 98 100 100 100 100
100 100 95 100 100 100 100 100 100 100 97 98 99 88 80 71 60 39 62 53 54 45 34 55 65 88 96 95 87 77 95 100 100 96 100 100 100 100 100 100 100 94 100 100 100
100 100 100 100 100 100 100 100 99 93 86 100 100 90 74 68 69 48 54 54 62 47 36 47 66 71 90 85 87 90 89 83 100 100 100 100 100 100 100 100 92 100 100 100 100
100 100 100 100 100 100 100 100 100 86 85 92 99 79 71 71 63 52 53 51 66 49 37 39 69 70 77 91 100 97 96 94 98 100 90 99 95 100 99 100 100 99 96 89 99
76 100 100 100 96 90 100 100 100 99 100 85 96 78 92 65 64 56 46 51 61 50 39 35 70 76 81 94 85 92 100 85 99 80 64 82 78 89 91 94 92 83 63 50 65
35 46 96 94 90 88 81 99 100 100 100 100 88 79 84 71 61 55 48 61 57 48 42 47 54 78 80 94 79 61 73 78 72 74 76 82 77 74 76 97 87 79 81 84 65
48 63 53 65 86 79 81 66 90 100 100 97 76 72 82 71 63 53 46 59 66 46 46 42 52 45 80 87 61 60 63 52 58 60 66 69 75 86 76 72 78 79 80 82 79
98 100 100 100 66 74 58 90 77 100 100 91 79 64 71 79 73 58 56 63 61 49 49 43 46 37 45 70 67 64 98 70 66 70 60 68 82 76 64 55 58 54 53 57 62
92 86 100 100 88 48 54 86 99 100 100 93 85 78 74 82 78 72 72 72 66 51 48 55 50 44 30 58 73 99 81 63 60 61 71 78 86 84 67 64 64 51 48 49 49
95 79 100 100 79 75 78 84 94 100 98 88 92 94 88 76 87 79 82 76 72 53 45 51 52 49 33 33 73 78 76 76 55 47 44 46 48 48 46 52 54 56 55 44 43
94 97 97 98 81 83 91 89 100 100 93 78 69 69 84 74 84 88 79 81 91 73 49 47 58 56 49 30 41 63 80 57 54 43 41 42 48 50 60 56 47 39 35 32 29
65 65 75 55 93 91 86 100 100 100 100 89 85 83 91 89 90 88 90 96 99 85 54 46 60 51 55 42 32 51 61 50 57 71 64 58 64 64 47 35 42 35 33 30 26
24 28 47 50 74 95 86 87 100 100 84 70 80 82 100 99 99 100 100 100 92 86 62 54 67 64 47 46 33 31 52 46 54 62 50 65 64 44 30 30 30 28 28 39 43
17 20 40 48 74 81 83 74 84 100 100 78 99 100 100 100 100 100 96 91 81 83 67 74 71 67 49 42 41 30 39 53 42 41 55 78 61 35 30 27 26 32 49 69 71
12 19 26 46 45 73 74 70 67 91 90 97 100 96 92 100 100 84 83 67 93 96 68 87 89 65 56 44 45 40 78 54 56 44 62 75 52 35 31 31 35 52 66 68 69

GFSSW_250_rhum_066.txt.gz
RH
100 100 100 100 100 99 100 100 98 100 100 100 94 74 78 91 100 69 71 54 34 23 18 20 18 15 14 13 16 33 34 16 17 16 16 18 20 19 17 17 18 26 20 17 35
100 100 100 100 100 98 98 100 100 100 93 95 87 71 81 100 89 64 69 47 31 22 18 23 17 16 15 14 18 40 33 18 18 17 17 20 22 22 19 19 23 22 21 45 32
100 100 100 100 100 100 100 100 99 100 99 94 87 84 66 100 83 83 66 40 25 23 19 24 18 20 18 16 24 43 35 27 24 23 21 22 25 26 21 25 48 45 62 39 32
100 100 100 100 100 100 100 98 94 98 100 94 86 73 93 96 92 91 59 30 25 22 21 24 18 23 24 18 27 51 39 47 26 25 23 23 22 27 29 68 96 100 95 75 79
100 100 94 91 84 86 85 92 100 96 87 80 68 68 100 93 91 79 43 28 27 25 24 24 20 28 26 21 43 49 33 58 51 27 25 27 28 35 33 65 99 100 76 65 90
100 100 100 88 98 94 90 97 78 80 89 72 73 88 81 99 92 65 38 33 28 30 25 25 24 34 28 32 55 46 34 37 61 46 39 37 48 46 33 36 48 78 62 73 95
100 100 100 100 100 100 99 91 88 91 71 74 83 78 91 95 90 52 39 34 32 35 30 26 31 35 35 39 51 46 36 30 37 44 46 43 52 44 36 43 52 90 100 100 100
100 100 100 100 100 100 100 100 99 93 64 73 72 75 99 91 77 49 44 37 32 37 36 29 38 34 39 49 61 65 67 56 56 61 50 39 45 50 47 53 88 100 100 100 100
100 100 100 100 100 100 100 100 100 88 83 83 66 80 99 95 66 55 53 42 31 32 34 32 38 38 55 78 86 86 94 92 94 85 77 59 51 40 51 85 100 100 100 100 100
100 100 100 100 100 100 100 100 100 97 83 87 72 87 100 91 63 64 58 47 30 31 34 36 41 42 58 78 96 100 94 98 96 79 91 98 96 77 76 94 100 100 100 100 100
100 100 100 100 100 100 100 99 100 93 82 88 84 100 100 87 63 70 66 59 40 32 37 36 34 46 60 64 79 93 100 97 82 89 93 95 98 97 100 100 100 100 100 100 100
100 100 100 100 100 100 98 90 100 100 98 99 91 85 82 75 71 74 71 66 50 33 39 34 32 52 61 90 77 82 81 77 69 92 100 98 94 99 100 100 100 100 100 100 100
89 100 98 100 100 100 96 77 99 93 100 100 99 76 81 75 80 71 70 63 51 37 43 32 32 52 62 88 85 85 94 98 79 96 100 100 100 88 100 100 100 100 100 100 100
76 89 92 100 100 100 100 100 80 94 100 100 100 100 100 98 76 59 62 64 53 39 48 38 32 44 60 78 86 93 96 80 79 85 88 95 100 100 100 93 83 100 100 100 100
100 97 82 91 100 100 100 100 100 82 78 100 100 100 100 89 62 58 66 61 54 38 48 47 34 35 66 61 83 95 98 98 100 82 80 78 91 100 100 100 98 89 99 100 100
100 100 96 81 88 100 100 100 100 99 85 99 100 100 100 80 73 62 70 61 47 41 47 52 43 33 61 82 76 82 87 98 100 97 83 89 93 99 94 100 100 85 69 69 69
100 90 100 87 87 86 100 100 100 100 100 98 100 100 100 95 88 74 68 62 46 45 42 57 49 39 35 66 70 81 79 73 86 95 91 85 86 94 95 100 100 100 100 82 91
92 74 79 95 74 71 95 100 100 100 100 100 100 100 100 95 95 90 61 63 62 52 49 53 56 41 38 36 72 60 85 79 76 81 97 100 94 85 100 97 92 100 100 100 100
89 87 77 91 80 69 61 94 100 100 100 100 100 100 100 100 96 85 61 56 80 63 59 49 58 44 37 32 39 80 67 87 76 66 76 93 100 94 100 100 100 100 96 100 100
82 80 96 100 70 68 60 70 100 100 100 100 100 100 96 95 100 92 62 50 83 71 66 56 54 47 40 37 31 51 80 82 83 81 71 68 77 92 76 84 79 81 89 93 97
66 55 87 100 83 59 53 49 66 100 100 100 100 98 85 77 99 95 74 62 67 85 74 60 65 58 45 42 36 43 80 58 74 85 66 66 63 57 52 52 52 60 58 65 68
47 47 55 99 62 59 47 44 53 59 78 100 97 100 91 75 85 78 96 76 70 80 81 69 77 64 47 44 43 34 52 58 84 84 71 51 56 55 52 52 52 50 55 55 51
29 37 60 69 32 82 100 71 95 73 57 100 100 100 99 86 81 76 76 65 80 77 84 83 83 65 53 46 41 44 33 51 75 74 62 54 48 32 67 59 56 55 55 54 51
22 31 45 48 41 95 100 100 100 100 96 100 97 94 90 96 100 92 69 64 83 87 98 77 65 66 59 52 42 41 38 32 44 63 63 64 73 69 70 63 66 62 46 32 28
13 18 32 31 33 74 100 100 100 100 100 99 95 79 80 98 100 96 98 93 92 89 95 76 66 57 64 52 47 44 42 37 28 43 62 59 96 78 57 57 52 36 30 26 23
9 12 21 36 75 83 100 100 100 100 100 100 99 100 93 100 100 100 100 96 88 88 100 85 67 64 62 55 48 55 55 41 40 26 38 70 100 73 65 56 44 34 32 28 26
5 10 17 26 37 44 72 100 100 100 100 100 100 100 96 100 100 100 98 86 96 77 71 79 64 82 73 59 56 70 53 42 37 37 44 85 98 81 58 62 56 39 36 38 40

GFSSW_250_rhum_069.txt.gz
RH
85 96 99 100 100 100 100 100 95 100 93 99 99 100 84 75 75 72 76 69 72 57 64 31 25 19 15 17 20 20 17 18 21 18 20 22 22 20 20 26 27 30 49 38 25
76 94 97 90 100 92 100 100 100 99 100 100 100 94 73 84 78 73 78 72 68 72 46 30 24 15 15 20 23 21 19 27 18 20 23 23 23 22 20 22 22 22 32 41 28
100 96 76 76 85 97 94 100 100 100 97 80 96 73 82 85 61 70 72 76 67 73 37 29 19 16 16 22 26 20 22 32 18 22 26 26 25 24 23 22 22 24 25 28 32
100 100 100 93 92 84 92 100 100 100 100 91 91 85 80 69 57 67 79 80 80 59 36 28 16 20 17 28 26 26 38 37 21 24 26 26 25 26 24 22 22 22 24 27 34
81 83 97 100 82 80 84 84 90 98 76 86 82 78 77 57 55 70 81 76 82 51 36 25 17 21 22 35 31 42 42 34 26 26 24 25 25 26 24 22 22 25 24 38 65
55 56 61 76 100 100 94 95 86 75 93 92 100 89 73 58 53 71 86 84 66 48 35 26 20 22 30 40 40 44 41 40 46 32 29 26 26 27 27 26 26 38 68 77 100
54 50 44 74 78 100 100 100 87 100 93 100 84 61 62 54 70 71 78 79 62 42 36 33 22 22 36 44 46 42 51 51 55 60 46 33 28 27 28 26 34 82 75 78 100
51 62 48 51 94 100 87 100 100 100 95 98 76 81 82 54 68 80 79 73 57 40 41 36 22 23 42 50 52 64 74 83 67 58 53 55 54 34 43 31 33 66 72 88 98
53 56 40 38 92 99 100 100 100 90 92 71 66 97 69 59 64 94 79 70 50 44 45 34 22 25 44 51 51 78 88 100 97 84 87 72 54 49 58 49 57 86 100 100 100
35 36 39 31 46 100 100 100 100 100 90 99 80 87 91 71 69 97 87 66 46 45 50 36 23 26 42 49 47 70 95 100 93 98 99 93 84 56 53 52 99 100 100 94 96
33 30 28 28 36 67 96 100 100 100 100 100 85 81 80 77 90 100 72 76 48 47 54 37 25 29 34 49 53 63 85 100 86 91 100 100 83 74 47 84 100 100 100 100 99
32 31 28 25 31 38 52 100 100 100 100 100 100 86 90 89 93 83 74 74 51 49 54 38 28 33 32 50 51 78 89 98 85 83 89 96 97 88 76 76 100 100 100 100 75
36 33 32 31 29 34 44 100 100 100 100 84 94 95 81 100 94 97 97 86 58 48 53 40 30 33 36 38 53 66 84 93 84 83 80 84 92 99 99 97 100 100 99 100 100
47 39 37 33 51 60 47 100 100 100 99 86 76 86 80 100 100 100 100 77 65 51 48 41 35 32 38 36 63 59 58 71 96 88 96 91 83 82 95 92 100 100 100 100 100
57 41 35 37 83 91 94 100 100 100 100 91 75 88 72 94 100 100 100 92 77 60 50 44 38 32 37 37 43 68 68 83 87 78 81 99 85 70 85 74 93 89 100 100 100
70 46 36 50 92 100 100 100 100 100 100 100 86 100 88 92 100 100 100 94 85 72 56 45 47 36 42 39 37 56 64 75 81 87 80 79 87 74 80 79 75 81 77 90 100
70 56 38 56 97 100 100 100 100 100 100 100 96 100 99 99 97 100 96 100 84 83 56 50 54 43 42 46 41 38 63 68 84 96 100 99 82 90 95 87 90 90 77 62 65
65 56 46 41 80 85 100 100 100 100 100 100 100 100 100 100 100 100 100 99 83 90 58 53 64 53 44 54 46 36 45 71 82 93 96 100 100 67 100 100 100 96 100 100 100
58 61 54 48 65 74 100 100 100 100 100 100 100 100 100 100 100 100 100 92 95 95 64 59 69 66 58 60 49 41 37 62 69 78 88 96 100 80 92 94 83 89 96 96 94
48 55 61 60 64 67 86 100 100 100 99 100 100 100 100 100 100 98 98 96 99 94 79 71 68 68 63 60 51 44 38 50 64 71 84 91 86 86 84 98 86 82 94 94 88
30 35 64 66 64 45 64 100 100 100 93 100 100 100 100 100 100 100 100 100 97 95 96 76 74 70 65 57 47 50 43 40 50 58 70 92 100 95 79 79 75 70 75 77 86
22 26 56 66 50 46 68 95 100 100 100 88 100 100 100 100 100 100 100 98 69 96 100 80 77 64 62 50 48 53 48 40 36 54 81 100 96 70 50 56 69 72 77 77 73
16 28 38 67 30 41 81 76 100 100 100 82 86 100 100 100 100 100 100 100 86 99 98 77 87 65 65 51 50 45 48 53 38 36 61 71 90 59 68 86 80 73 59 57 49
11 19 24 38 28 47 69 77 96 100 100 91 77 91 100 99 100 100 100 100 100 96 95 75 84 80 69 47 56 43 51 52 53 42 40 47 58 55 60 86 90 84 74 68 64
5 11 16 20 14 46 64 78 82 86 100 100 84 81 83 77 92 100 100 100 100 99 87 86 86 76 63 52 59 49 60 44 58 53 39 40 44 49 47 52 77 83 79 72 68
4 5 9 17 26 28 58 78 85 97 100 100 100 100 100 99 100 100 100 100 98 82 80 96 95 80 61 57 59 58 57 57 54 67 50 40 45 34 42 47 63 63 75 72 56
6 5 6 15 20 20 38 75 99 68 100 100 100 100 100 100 100 100 100 100 98 81 78 90 87 70 70 64 62 95 54 61 50 66 59 55 48 42 37 55 73 80 79 68 65

GFSSW_250_rhum_072.txt.gz
RH
100 100 80 86 95 100 87 88 100 100 88 96 97 83 73 78 93 78 80 71 70 56 48 59 70 59 43 25 16 16 22 21 19 24 21 20 22 42 33 34 34 43 66 91 85
91 95 100 97 85 76 91 87 99 93 95 94 94 99 100 88 83 71 89 74 62 47 62 83 74 56 32 20 16 24 24 23 25 32 20 21 24 25 32 41 43 67 98 94 94
100 100 94 63 63 78 76 76 79 68 83 87 84 90 100 98 80 89 76 62 51 46 88 81 62 41 24 17 20 27 30 34 38 29 20 22 23 30 31 39 75 96 92 77 80
66 93 100 100 100 100 100 93 67 68 58 70 72 69 87 65 72 77 61 52 49 61 93 70 49 28 20 17 28 33 41 42 34 28 21 22 25 24 25 29 34 46 36 49 70
69 84 76 74 74 88 77 77 72 69 70 52 61 52 54 65 80 72 61 51 56 74 85 60 36 26 19 19 38 41 44 33 33 31 24 22 24 26 24 25 24 22 21 34 46
48 63 88 67 69 78 62 63 51 48 61 59 76 77 59 64 60 61 67 58 53 98 75 47 34 27 21 20 44 45 37 30 43 55 26 25 26 25 24 23 23 24 73 41 45
71 66 61 68 65 67 77 68 65 69 76 54 69 64 71 82 58 74 61 58 70 100 70 39 37 29 22 23 49 50 52 48 48 66 46 31 24 24 25 24 22 24 64 75 78
94 86 68 76 70 60 59 58 58 56 79 98 69 76 96 79 62 60 59 62 96 97 65 39 38 31 22 22 49 50 79 98 70 75 68 58 38 31 29 24 24 30 72 92 100
100 87 82 71 63 66 60 52 51 46 56 100 100 63 48 73 60 78 62 62 98 99 63 45 38 31 25 24 49 50 66 81 97 81 89 66 61 52 34 22 24 44 94 100 100
69 60 58 62 63 78 67 58 49 37 39 100 100 96 77 90 78 63 65 88 98 90 63 50 38 32 27 27 48 52 62 75 83 83 76 88 77 68 46 32 31 79 99 100 100
86 74 92 56 51 68 75 54 38 33 34 95 100 100 99 69 97 81 75 88 88 86 80 49 39 35 25 31 39 58 57 64 70 82 83 97 84 66 45 40 74 73 98 100 90
95 100 99 69 60 45 55 52 48 36 32 51 98 100 100 90 97 83 82 80 88 99 85 57 44 35 26 29 35 62 58 67 76 73 85 86 100 98 76 60 99 81 96 100 91
95 83 81 83 74 57 41 46 45 34 30 46 96 100 100 99 83 93 80 74 98 100 86 68 50 39 28 30 37 38 60 62 62 89 83 72 79 89 84 65 100 97 93 100 72
64 79 65 60 52 52 38 49 40 37 30 54 99 100 100 97 96 85 86 81 100 100 92 71 54 46 35 31 38 38 55 61 66 77 84 96 92 71 69 74 92 100 91 100 88
67 70 60 49 53 52 41 42 39 43 32 57 100 100 100 92 90 82 76 92 100 100 99 76 56 56 41 39 42 41 37 64 56 78 85 83 100 88 74 70 89 100 100 87 94
44 63 63 48 50 54 35 39 42 47 34 55 100 100 100 98 80 70 76 92 100 100 90 88 61 65 50 48 48 40 39 51 65 66 97 86 83 83 99 94 66 90 98 99 100
27 35 41 38 55 43 34 33 42 46 42 69 100 100 100 100 77 74 91 92 93 89 96 96 70 64 57 56 52 47 42 38 82 65 67 77 81 71 90 93 96 82 74 76 84
19 24 30 38 51 36 33 32 32 50 63 92 100 100 100 100 87 75 94 100 100 96 100 98 86 63 53 55 62 56 46 42 46 99 77 72 63 56 79 73 69 90 99 98 84
14 18 22 30 40 32 28 22 33 53 99 98 100 100 100 100 97 78 100 100 100 100 99 89 97 73 61 57 58 57 46 47 38 66 89 75 70 48 54 61 58 59 64 85 99
9 12 19 26 28 26 21 23 38 63 100 100 100 100 100 100 100 82 100 100 100 100 96 99 94 88 77 61 61 58 45 50 42 39 58 84 89 74 62 72 77 74 64 64 73
6 7 15 24 22 16 11 30 40 76 100 100 100 100 100 100 100 100 95 100 100 90 100 100 98 96 81 76 57 57 54 43 44 41 41 79 82 100 88 72 81 83 88 86 79
6 6 10 19 14 10 16 43 42 95 100 100 100 100 100 100 100 100 100 100 100 100 100 80 95 100 80 85 61 70 63 53 42 48 42 43 84 61 62 85 72 61 57 65 71
6 6 8 13 8 10 28 32 42 89 100 100 100 100 100 100 100 100 100 100 100 100 100 100 87 88 82 76 68 72 66 57 43 49 56 45 42 41 44 87 71 54 56 58 58
5 6 7 5 6 16 19 36 44 68 98 100 100 100 100 100 100 100 100 100 100 100 100 100 100 94 79 63 81 64 66 57 49 47 57 58 52 40 41 41 70 79 71 77 74
4 6 7 5 6 13 18 36 42 50 92 100 100 100 100 100 100 100 100 100 100 100 100 100 100 100 87 72 87 67 73 46 52 49 58 58 54 43 47 43 40 44 76 71 84
4 6 6 6 7 14 21 26 41 52 92 100 100 100 100 100 100 100 100 100 100 100 100 100 100 100 100 100 81 69 90 55 58 54 57 62 51 57 49 47 44 46 49 61 92
4 6 6 7 5 9 16 56 64 60 93 100 100 100 100 100 100 100 100 100 100 100 100 100 100 100 100 89 75 90 75 76 71 69 56 61 60 61 58 51 49 49 46 62 88

GFSSW_250_rhum_075.txt.gz
RH
57 72 75 75 88 94 100 91 83 95 81 79 90 92 82 86 82 68 69 66 66 59 56 53 45 42 50 44 28 19 14 19 20 27 33 29 23 21 20 24 32 60 73 100 100
39 42 62 96 74 66 80 87 56 67 70 57 60 60 62 53 49 56 52 56 61 47 48 56 48 52 52 34 25 16 16 24 26 30 30 25 25 25 53 92 62 48 83 100 100
54 32 37 56 100 100 98 96 100 99 64 67 64 60 42 36 36 46 42 66 61 51 58 59 58 70 39 32 22 16 26 27 27 26 28 24 27 30 32 97 86 39 73 100 100
95 70 47 40 58 90 100 100 100 100 100 93 89 84 67 56 44 47 44 42 47 46 62 57 84 58 38 29 21 18 31 30 26 24 27 25 26 27 31 48 56 36 21 70 100
97 80 72 56 53 47 71 83 75 81 83 74 61 56 48 42 49 61 61 50 47 39 64 67 83 52 39 26 23 26 37 35 26 30 26 28 27 28 27 33 28 24 41 28 59
100 100 84 66 70 61 53 86 93 69 64 74 70 56 56 39 57 58 71 64 50 52 70 84 75 47 40 28 22 31 43 42 35 53 37 29 24 24 26 28 29 35 66 85 69
100 100 100 91 78 77 75 65 71 67 76 73 62 62 64 52 40 90 100 80 45 63 88 87 71 44 37 30 22 32 47 55 50 46 39 56 98 98 26 23 24 26 49 86 74
51 100 100 79 90 72 60 67 82 64 68 65 60 48 46 50 75 58 40 59 50 65 81 80 60 48 39 32 23 30 52 67 100 79 51 76 100 89 56 22 21 21 22 71 61
88 52 100 100 100 78 85 98 88 59 72 53 64 54 46 48 100 100 48 64 64 68 100 81 64 51 45 33 24 26 56 57 84 76 79 51 46 61 25 23 22 20 28 60 68
100 64 58 100 100 100 100 77 79 79 53 52 52 56 47 39 82 82 72 48 87 68 100 81 76 63 45 36 24 29 47 63 67 70 68 71 48 46 43 33 26 26 79 79 96
100 100 100 100 100 100 100 77 56 74 75 66 65 46 46 41 100 100 82 56 83 78 100 72 99 72 47 38 28 27 35 57 60 74 77 82 72 68 62 47 36 62 100 99 100
79 84 66 69 91 90 100 95 90 83 61 66 73 50 42 45 96 100 79 73 89 83 76 88 100 74 50 42 33 28 35 54 64 64 68 78 77 76 67 57 69 64 100 100 89
73 66 63 71 95 73 89 83 88 88 82 95 82 67 40 38 80 100 91 98 85 74 79 100 100 79 56 44 40 32 34 45 60 64 67 74 78 92 86 79 87 72 98 100 99
79 65 63 67 76 79 91 76 77 76 79 89 78 55 44 35 51 100 100 99 40 70 85 100 100 88 66 49 47 38 33 37 53 62 59 67 78 89 95 81 88 99 72 94 100
86 88 96 100 91 100 90 100 83 69 61 59 58 57 41 35 55 100 100 100 48 60 93 100 100 96 76 55 50 46 35 38 36 70 59 64 66 79 75 80 85 100 99 83 99
92 80 87 100 100 100 100 100 97 76 71 54 53 60 46 34 64 100 100 100 83 47 95 100 100 90 85 60 52 45 43 34 38 46 78 55 74 75 79 84 85 89 100 99 79
26 28 46 67 100 86 89 100 100 46 61 54 59 55 53 33 95 100 100 100 93 48 88 100 100 90 97 69 53 46 52 39 37 37 72 74 71 65 69 70 85 85 81 100 100
17 17 18 26 34 48 59 48 32 39 55 43 52 58 57 35 100 100 100 100 100 71 95 100 83 94 100 79 62 55 55 45 38 40 37 55 83 86 63 58 60 68 75 76 74
11 12 14 19 26 24 26 17 17 40 82 55 50 57 55 41 100 100 98 100 100 93 80 94 94 100 96 87 73 71 58 55 45 36 39 36 47 81 73 68 46 53 57 76 85
8 9 11 14 18 18 12 8 23 42 48 42 38 58 58 51 100 100 100 100 100 96 100 97 99 100 82 98 84 77 73 67 52 43 37 36 34 48 85 72 82 62 61 55 53
6 5 7 9 13 10 6 10 28 30 39 39 49 59 65 56 100 100 100 94 100 100 100 100 100 92 79 97 90 78 84 78 63 49 41 38 34 34 52 98 76 77 82 69 72
5 5 7 7 7 6 5 16 22 26 41 48 59 63 63 74 100 100 100 100 100 100 89 100 100 88 100 100 92 83 83 89 76 59 47 45 39 37 34 52 92 98 81 76 63
5 5 6 5 6 6 7 11 13 22 37 54 57 79 86 100 100 100 100 100 100 100 71 84 88 100 100 100 89 72 84 81 77 75 56 48 44 46 42 39 39 51 84 99 99
4 5 6 5 5 6 8 7 12 20 28 42 60 84 92 100 100 100 100 100 100 100 96 83 100 100 100 100 74 88 77 83 78 76 67 53 52 45 53 48 44 41 39 45 71
4 7 7 5 6 7 6 8 13 17 26 40 78 76 95 100 100 100 100 100 100 100 100 100 100 100 100 100 98 100 94 93 84 75 68 60 58 44 47 51 52 48 46 45 41
5 11 7 5 5 6 6 5 11 23 24 35 87 87 100 100 100 100 100 100 100 100 100 100 100 100 100 100 100 100 100 98 88 88 68 69 62 48 43 46 49 51 55 50 52
9 14 7 4 4 6 7 8 8 20 29 51 90 86 100 100 100 100 100 100 100 100 100 100 100 100 100 100 100 100 100 98 96 97 74 85 72 50 46 41 45 51 55 50 55

GFSSW_250_rhum_078.txt.gz
RH
25 31 33 47 52 58 62 81 88 92 95 94 94 80 68 61 50 50 51 45 33 38 39 42 34 34 36 62 45 28 17 14 13 16 14 18 19 17 100 100 98 98 83 89 79
32 33 42 49 43 45 66 88 87 81 77 64 66 59 72 74 59 55 53 40 40 36 35 35 32 31 46 64 37 28 18 15 20 16 13 16 15 15 96 100 99 100 84 76 82
29 31 48 40 58 48 42 62 100 100 100 100 98 88 92 90 82 65 59 53 41 35 38 38 31 33 54 54 37 28 22 17 27 22 14 15 26 20 40 93 100 100 100 72 99
33 36 60 88 86 86 61 48 65 83 97 100 100 97 85 88 83 60 43 35 32 41 54 38 34 47 63 50 38 30 23 21 33 30 20 17 18 23 24 69 100 100 100 85 71
71 45 43 96 96 87 84 76 57 52 53 55 72 84 73 65 61 52 47 34 81 100 95 38 39 69 79 46 39 30 23 23 35 32 27 20 21 18 39 32 82 81 72 100 66
85 100 64 44 62 78 100 100 73 57 65 64 71 97 85 60 61 55 40 31 49 77 43 44 45 80 75 50 40 32 23 26 44 46 57 62 31 84 100 100 51 59 74 98 63
89 100 100 100 48 84 100 100 100 79 68 70 57 57 94 60 55 54 40 86 99 79 42 46 53 79 82 55 44 33 25 24 48 43 90 70 92 100 100 100 55 21 78 45 42
100 100 87 99 93 50 39 98 100 100 62 72 75 58 70 65 45 43 46 54 100 100 40 52 71 100 82 64 50 36 25 24 42 55 87 100 93 91 80 74 44 22 18 41 62
97 100 72 50 78 65 63 46 94 100 100 94 68 70 90 63 53 43 36 37 95 75 44 49 86 100 78 72 53 39 29 24 43 56 54 74 99 98 97 83 60 22 18 35 51
57 56 92 74 84 100 97 61 92 82 100 100 99 95 74 76 50 51 34 35 100 100 63 50 79 90 72 86 46 40 36 24 30 58 59 53 43 78 93 37 24 20 21 19 34
91 100 79 82 71 100 100 95 57 76 56 100 100 100 97 67 68 54 45 36 100 100 82 60 81 71 98 97 44 38 41 28 28 52 59 63 63 62 52 43 30 24 30 37 60
99 94 92 100 98 88 86 100 100 100 87 100 100 100 100 84 76 84 44 39 97 100 100 55 78 64 100 100 54 42 43 33 31 42 55 63 64 74 81 59 42 39 73 98 91
99 84 81 89 63 52 60 78 81 100 100 100 100 100 100 98 78 59 40 38 89 100 100 65 50 57 100 100 74 48 43 38 31 33 52 60 62 57 71 74 71 94 76 96 97
95 97 95 96 99 93 87 62 52 68 66 56 69 90 100 80 60 60 50 35 51 100 100 100 49 52 100 100 82 51 47 38 30 38 42 59 63 63 59 60 66 100 99 100 90
70 96 100 100 100 93 77 100 91 61 63 51 50 55 74 75 65 60 59 46 46 100 100 100 61 53 100 100 90 62 52 41 34 39 34 59 60 68 67 60 59 70 82 100 99
51 52 53 63 66 75 64 68 74 73 61 73 81 71 86 91 88 70 65 57 45 100 100 100 96 43 100 100 92 69 58 51 38 34 36 38 56 62 67 65 64 59 85 100 100
37 41 42 52 67 50 64 60 73 51 62 82 75 79 96 100 100 100 75 54 49 100 100 100 100 54 100 100 91 82 60 61 39 35 35 33 37 66 64 76 73 63 60 87 100
23 25 29 36 48 36 42 44 41 62 90 100 92 97 100 100 100 100 99 57 48 100 100 100 100 74 100 100 82 100 63 74 50 48 41 35 35 45 71 80 72 84 77 59 66
13 14 16 18 20 25 32 21 16 42 69 86 93 90 100 100 99 100 71 55 53 100 100 100 100 94 83 100 91 100 67 80 57 56 49 40 35 34 40 81 90 57 63 87 65
12 11 12 14 15 14 12 11 11 22 24 30 35 56 96 100 83 85 71 44 60 100 100 100 100 93 72 100 100 100 73 94 57 56 59 45 42 32 34 43 77 73 85 66 69
8 8 11 11 10 9 10 12 15 24 21 18 25 36 38 70 72 59 51 42 77 100 100 100 100 95 76 100 100 94 84 98 67 49 55 51 47 40 36 35 36 42 72 82 71
6 6 9 7 6 7 9 11 14 16 13 15 21 30 37 42 34 38 42 44 98 100 100 100 100 99 64 100 100 65 97 100 77 50 48 55 49 48 43 42 38 34 34 45 58
6 7 8 6 6 7 7 8 7 9 8 10 13 24 44 40 37 35 34 48 100 100 100 100 100 100 56 100 93 100 100 100 79 65 54 58 56 50 50 47 42 40 41 38 34
6 7 8 6 6 6 6 7 7 7 8 11 15 23 31 32 41 32 35 66 100 100 100 100 100 100 45 100 100 82 94 100 72 78 70 62 69 56 56 49 46 45 46 46 45
5 9 13 10 8 6 6 5 7 8 8 8 15 19 23 42 30 30 39 80 100 100 100 100 87 95 60 83 76 98 100 100 100 96 91 64 82 70 64 62 46 45 44 44 43
5 10 13 13 10 7 6 6 7 7 8 7 11 17 25 37 29 39 42 88 100 100 100 100 100 100 59 84 100 100 100 100 100 100 100 77 86 70 71 71 53 44 42 44 47
6 10 10 17 21 14 10 6 7 6 7 9 13 21 24 41 55 37 44 91 100 100 100 100 100 100 74 77 92 87 100 100 100 100 100 93 98 89 73 71 60 46 43 51 52

GFSSW_250_rhum_081.txt.gz
RH
89 94 74 56 36 32 25 32 52 57 46 50 75 89 85 76 74 66 53 55 45 46 53 47 41 31 29 26 38 40 31 22 16 14 16 13 13 99 100 72 31 100 89 100 100
86 99 100 84 51 37 28 37 45 42 70 100 99 84 66 89 65 78 78 78 67 58 47 36 28 26 27 33 54 52 37 20 16 17 19 12 13 29 100 99 62 58 62 99 100
88 94 100 93 73 41 26 31 41 41 40 76 97 100 100 100 100 99 98 90 69 52 38 42 39 30 30 43 95 50 30 22 17 22 22 11 16 17 100 100 80 53 72 93 98
100 81 100 94 70 41 29 30 46 45 47 61 60 80 81 79 76 100 80 65 59 52 55 44 65 32 32 51 91 54 35 28 20 22 25 14 19 21 100 100 77 63 75 92 100
100 96 97 100 80 60 43 43 36 66 61 70 74 62 51 50 52 67 71 57 52 42 73 47 49 28 39 61 95 62 38 30 23 27 33 20 18 19 100 100 81 72 67 71 100
100 84 82 76 70 74 88 81 68 45 58 72 97 87 66 56 44 48 46 45 51 49 72 49 53 30 52 100 100 62 46 33 29 28 47 26 34 20 67 100 100 99 73 73 100
100 100 88 87 88 71 77 100 98 68 54 81 100 100 86 77 62 56 46 44 37 37 38 88 76 29 59 100 100 64 57 33 37 25 63 48 57 39 60 89 99 87 84 48 57
96 96 96 100 100 98 74 64 100 100 79 38 39 98 100 92 95 75 82 44 34 35 31 62 54 31 34 80 99 85 61 33 39 27 34 72 52 56 77 86 88 100 88 100 85
87 72 58 89 78 91 100 100 97 100 73 85 35 39 80 100 100 100 100 90 47 31 31 61 57 73 29 46 88 100 80 35 43 29 26 73 90 53 54 70 80 69 84 90 74
100 98 98 99 89 100 100 100 100 97 77 47 45 45 34 80 100 100 100 100 91 39 32 43 98 86 44 39 73 100 95 53 36 35 27 31 54 67 97 77 27 38 35 20 20
100 100 100 100 100 88 100 100 100 82 66 77 55 56 44 49 100 100 100 100 100 87 31 40 100 100 52 33 63 100 100 80 37 37 28 31 38 51 56 72 58 26 20 18 18
100 98 78 100 100 100 100 100 72 48 52 84 81 73 100 90 69 100 100 100 100 100 43 34 97 100 67 40 45 98 100 92 39 38 29 29 36 53 51 54 34 20 20 18 18
100 100 100 100 100 100 100 100 97 100 91 100 100 91 97 95 78 100 100 100 100 100 93 31 64 98 76 69 47 89 100 99 44 43 34 33 32 48 46 55 48 24 24 23 20
91 100 100 93 94 100 100 100 100 99 99 100 76 83 90 66 96 100 100 100 100 100 100 30 39 99 82 98 50 79 100 100 54 49 37 33 32 42 59 60 58 52 27 28 33
100 100 65 96 76 70 81 74 76 70 45 54 88 53 60 57 42 78 77 85 95 100 85 45 37 98 56 100 64 51 100 100 62 51 40 34 34 40 41 53 56 60 62 36 29
78 73 98 100 100 98 98 90 81 72 68 76 92 90 81 65 60 65 60 47 53 47 51 40 44 98 66 100 100 44 100 100 65 55 51 32 35 38 46 53 68 58 70 85 78
58 58 54 74 91 95 97 85 86 80 76 90 93 93 78 85 84 76 69 62 73 81 75 52 45 96 94 100 100 59 100 100 77 56 61 33 33 39 33 46 51 73 83 82 91
42 46 47 46 54 54 59 64 36 33 46 72 70 63 58 57 57 65 58 64 68 94 77 80 68 82 100 100 100 62 100 100 82 55 69 39 28 38 35 31 40 43 58 61 62
20 29 37 36 38 35 41 34 32 41 48 60 55 46 46 51 64 65 54 56 59 76 86 71 49 71 100 81 100 100 100 100 99 71 64 56 40 35 34 35 32 32 48 46 60
11 14 19 18 21 20 17 25 27 29 34 44 30 28 33 41 48 52 52 61 76 90 83 71 52 61 100 78 100 100 100 100 100 79 65 65 49 42 40 36 32 32 46 50 41
14 13 17 15 10 9 12 13 13 13 14 18 19 22 21 29 56 56 50 49 76 83 74 71 51 63 100 52 100 100 100 100 100 68 61 62 59 50 43 44 38 34 37 36 43
11 11 14 11 11 13 14 14 14 13 13 14 11 12 14 16 27 32 36 27 46 79 59 84 67 70 100 68 100 100 100 72 100 84 67 61 53 60 52 49 48 42 35 36 34
8 10 12 11 11 12 12 12 12 10 11 15 10 11 16 16 18 12 16 21 32 39 68 100 64 62 100 59 100 100 96 87 100 71 100 66 54 60 57 59 57 51 43 36 38
7 8 9 8 9 8 9 10 9 8 9 10 9 8 11 14 16 16 21 24 24 30 43 90 68 59 99 63 100 100 100 100 100 100 100 84 59 57 50 53 57 60 54 43 42
7 10 10 10 10 9 9 9 9 8 8 8 7 6 9 12 16 20 24 22 23 25 47 65 63 74 100 74 100 100 100 98 78 100 100 95 79 70 61 61 67 61 66 54 43
6 7 9 9 10 10 9 10 9 8 7 7 8 7 8 11 16 20 28 42 40 33 38 54 58 77 99 92 100 100 99 58 85 100 100 100 100 100 86 83 82 50 63 61 50
6 8 8 11 15 15 17 16 10 7 9 8 7 8 7 10 14 22 31 57 25 26 36 46 52 94 82 95 97 100 88 75 96 100 100 100 100 100 100 100 95 86 65 52 55

GFSSW_250_rhum_084.txt.gz
RH
100 99 93 68 57 48 61 83 67 49 35 31 30 25 26 52 72 86 76 76 64 66 59 56 48 45 39 30 25 28 27 26 25 18 15 14 17 13 74 67 72 93 67 100 100
81 100 98 99 86 76 91 98 80 59 39 30 32 43 46 81 100 99 100 100 96 97 84 72 55 44 40 33 27 27 33 39 23 21 18 18 18 13 73 79 88 100 97 100 100
100 100 100 100 100 94 100 100 99 63 53 37 28 38 35 81 100 100 100 90 89 89 72 55 54 60 39 44 28 44 50 52 30 25 20 19 23 16 100 96 94 100 99 100 100
76 100 100 100 100 100 98 100 100 76 64 52 31 28 35 43 68 73 73 58 58 55 53 45 59 38 42 34 39 93 84 56 36 28 25 18 30 19 100 100 82 100 98 94 100
42 95 100 100 100 100 100 93 100 100 70 63 43 34 47 44 41 65 59 51 50 41 41 35 46 42 33 30 40 79 97 55 54 30 30 22 42 21 35 100 60 100 94 86 94
39 74 95 100 100 100 100 100 100 100 84 66 56 56 64 42 63 78 88 74 49 48 40 41 30 34 35 42 29 61 83 67 67 41 32 27 49 54 19 100 92 68 99 86 90
46 68 99 100 100 100 100 100 100 93 75 74 100 100 99 63 65 100 100 83 71 65 72 65 50 30 28 33 31 40 56 76 74 56 32 30 33 51 44 100 96 58 100 86 78
66 77 96 100 100 100 100 100 100 94 92 98 78 100 100 91 72 58 53 82 83 100 97 70 50 36 32 28 31 38 95 79 84 74 39 33 29 50 46 86 100 54 72 82 94
59 97 100 97 100 100 100 100 100 100 90 100 89 83 95 100 86 58 49 47 64 100 100 88 77 46 38 44 28 36 69 100 92 77 53 38 31 37 40 38 100 60 44 56 67
79 100 100 100 100 100 100 100 100 82 85 95 79 52 70 100 100 97 60 39 45 54 100 100 100 72 31 40 52 41 38 80 100 81 63 38 32 30 38 37 41 88 67 39 35
78 96 100 100 95 100 100 100 100 73 53 71 100 85 100 86 99 84 63 57 46 56 100 100 100 76 36 36 54 58 33 59 100 89 70 42 38 28 41 44 39 47 52 84 53
70 99 100 100 100 100 100 100 85 67 51 55 100 100 100 100 100 97 52 52 58 95 74 96 100 88 73 44 39 68 44 56 100 100 82 50 41 33 35 36 37 31 26 41 60
96 97 100 100 100 100 100 100 100 93 77 94 100 100 100 100 100 98 86 74 84 87 88 87 100 87 90 63 41 52 47 64 100 100 91 53 40 33 34 39 41 43 26 19 16
84 80 92 100 100 100 100 100 100 100 100 100 96 97 100 100 99 100 100 100 93 100 91 97 100 100 90 99 50 40 39 62 84 100 96 57 40 35 34 45 42 44 47 34 22
81 66 64 99 100 100 100 100 100 100 100 100 100 100 100 100 100 100 100 97 100 100 74 82 76 89 92 100 64 44 42 58 60 100 96 74 47 34 34 42 42 45 52 60 31
62 65 67 65 96 100 100 100 87 84 92 100 100 100 100 100 100 100 100 99 83 78 63 51 58 50 78 65 47 37 60 44 56 100 100 90 52 40 32 44 48 40 41 50 59
71 55 58 56 60 66 87 100 100 80 89 86 90 99 82 78 98 100 100 95 76 60 74 73 60 51 48 52 50 37 99 46 68 82 100 96 57 44 33 37 55 58 41 40 46
26 46 51 64 45 55 51 63 67 100 100 100 100 50 60 65 67 69 73 77 72 96 100 92 89 75 77 65 54 40 99 55 95 48 100 94 64 43 33 33 36 39 70 44 37
11 16 23 39 30 47 39 34 53 91 70 79 79 87 95 100 99 100 73 59 67 74 69 80 77 88 74 61 53 40 87 78 73 63 100 94 78 45 39 34 33 34 69 71 53
12 11 12 12 14 19 25 32 42 58 56 61 60 51 55 53 63 87 96 88 70 54 68 68 57 64 60 57 53 42 79 77 50 89 100 100 100 49 36 39 38 36 36 41 59
10 13 17 12 8 8 12 18 26 33 38 38 38 42 40 41 43 52 63 55 54 50 63 80 65 60 50 42 50 44 61 78 44 86 100 100 100 62 38 42 42 41 36 32 35
11 11 15 11 13 13 15 14 12 10 11 15 21 23 35 27 24 30 35 45 51 57 53 50 54 71 60 65 60 58 48 90 41 85 100 100 100 72 53 42 35 44 50 42 34
12 12 12 10 13 17 19 18 16 14 14 12 11 12 11 10 10 12 16 20 24 30 56 60 50 52 67 61 44 52 54 96 51 91 100 100 100 73 88 48 43 35 46 56 46
8 9 11 13 17 16 16 17 16 13 10 12 13 14 14 14 14 12 16 17 17 23 31 42 48 47 76 90 99 92 68 100 70 78 100 100 100 100 98 54 53 40 44 52 61
7 8 8 10 10 10 11 12 13 13 12 13 14 14 11 12 12 12 18 24 22 17 26 29 29 45 61 90 96 79 71 98 64 90 100 100 100 63 100 76 68 63 52 44 57
10 11 11 11 10 10 11 11 10 10 8 8 9 8 10 11 12 15 15 20 18 18 27 32 31 37 45 100 100 78 82 100 57 74 100 100 71 70 100 100 100 100 71 56 40
10 12 14 15 14 15 16 15 14 11 12 10 9 8 9 9 8 10 11 16 22 29 27 26 31 42 42 82 92 69 100 92 56 52 100 100 94 100 99 100 100 100 100 97 54

GFSSW_250_rhum_087.txt.gz
RH
27 24 22 23 26 67 99 94 97 80 67 66 87 83 54 42 34 30 24 39 71 75 81 66 70 63 58 58 44 31 30 28 28 30 25 19 20 16 19 16 40 100 100 100 100
42 34 28 27 25 27 50 95 99 99 77 91 99 96 75 47 39 36 39 76 98 100 96 79 77 70 60 48 35 35 29 29 36 28 28 21 24 20 27 19 70 100 100 100 100
51 47 38 33 29 28 32 88 100 100 100 100 100 100 84 59 48 34 32 66 88 89 78 61 53 40 38 33 32 33 34 47 43 32 42 32 26 22 40 26 64 100 100 100 99
38 41 42 36 37 29 29 57 100 100 100 100 100 100 88 78 57 39 36 39 51 58 55 51 45 38 31 30 26 31 37 37 53 36 52 43 27 26 31 46 64 100 100 100 100
34 30 28 30 33 31 28 32 94 100 100 100 100 100 100 79 76 48 51 61 40 50 76 72 38 44 58 51 29 26 36 44 42 42 56 60 26 28 24 55 79 100 100 100 81
30 25 36 33 29 32 29 29 42 100 100 100 100 100 100 100 78 56 70 76 52 57 97 61 39 54 76 76 49 27 29 40 68 51 60 69 34 28 26 37 77 94 100 100 96
26 32 27 33 34 30 30 30 89 79 100 100 100 100 100 100 76 69 88 87 88 95 57 40 42 58 44 44 65 56 28 33 56 66 62 73 48 29 29 33 58 66 100 100 100
26 25 28 33 35 32 32 37 44 94 98 100 100 100 100 100 82 86 100 100 100 74 66 40 46 100 53 42 28 87 48 26 51 55 54 72 62 30 35 28 43 78 72 100 98
27 26 25 32 37 35 35 40 59 98 99 100 100 100 100 100 100 100 99 81 72 72 66 51 41 47 41 58 50 47 65 30 47 57 46 75 68 32 34 26 33 68 85 81 100
28 28 29 35 38 40 48 58 67 70 98 82 100 97 100 100 100 100 100 99 89 98 99 88 52 45 54 50 60 77 57 48 36 56 54 74 78 43 37 28 28 40 52 59 60
30 30 34 46 45 55 68 78 68 60 64 80 97 100 100 100 100 100 99 100 69 56 100 84 55 81 67 62 71 72 64 30 37 44 69 78 83 57 36 32 27 36 39 82 90
34 38 57 52 50 53 80 83 79 100 75 98 100 100 100 100 100 100 75 68 74 78 99 100 91 65 55 70 71 72 55 39 41 31 68 70 97 73 38 39 29 37 38 32 51
36 39 53 70 70 63 62 68 71 64 93 100 89 96 100 100 100 96 65 82 87 100 100 100 100 69 66 78 100 76 60 40 62 35 42 58 96 86 47 45 31 36 37 33 33
28 34 36 72 73 84 68 75 75 78 79 100 100 84 98 100 100 100 52 68 100 100 100 94 100 99 74 72 98 98 90 83 68 48 41 52 100 89 55 51 36 32 38 39 27
25 26 29 56 72 72 67 77 68 89 89 100 100 100 91 74 88 60 52 46 85 100 100 100 100 98 55 100 98 100 37 39 40 35 39 36 94 88 64 47 42 32 40 36 42
20 21 25 29 39 60 90 77 74 84 94 100 100 100 100 100 100 99 79 74 100 95 83 92 100 75 100 100 81 73 45 62 50 40 38 31 84 62 79 56 46 32 30 43 38
13 15 18 24 27 43 66 72 68 66 99 99 100 100 100 100 100 100 100 99 84 90 81 100 100 100 94 91 95 88 78 48 46 49 39 36 68 48 87 67 52 35 28 33 47
11 12 13 17 18 24 33 34 54 80 89 76 72 100 100 100 100 100 100 100 100 100 100 100 100 100 100 100 100 86 60 50 56 44 43 58 72 63 96 76 56 39 32 25 44
9 11 14 15 14 16 20 18 36 85 80 64 54 71 88 95 100 100 100 100 100 100 100 100 100 100 100 100 99 94 59 72 54 47 45 69 51 95 100 77 58 42 36 31 37
10 10 12 10 12 14 13 14 24 47 86 85 79 63 64 79 88 100 98 84 87 95 94 82 84 91 99 96 79 74 80 69 69 55 48 71 41 100 100 82 69 46 44 35 34
9 10 15 9 8 9 14 19 17 35 46 48 62 72 63 56 76 97 100 100 99 98 98 85 88 100 100 100 100 98 80 61 96 69 49 74 44 100 100 88 76 50 48 45 39
6 8 10 8 7 9 12 17 20 18 19 23 29 45 74 54 45 52 70 100 100 100 100 98 96 100 100 100 100 100 86 65 50 65 49 71 46 63 100 100 84 48 44 47 51
7 7 7 7 10 14 15 14 17 19 16 13 13 13 16 23 28 32 52 61 68 86 84 83 74 67 100 98 82 72 62 58 54 50 46 56 56 51 96 100 90 63 45 31 42
6 6 7 8 10 11 14 15 14 14 13 14 17 11 9 11 15 13 23 49 56 52 53 63 61 56 88 87 92 92 84 86 76 61 57 57 66 47 88 100 100 100 56 47 38
8 8 7 8 9 9 10 11 12 12 12 14 16 14 13 13 12 10 10 13 16 19 26 30 33 35 40 53 57 71 81 79 70 63 69 70 69 55 63 100 100 100 72 64 58
9 9 8 8 8 8 10 12 15 14 14 15 16 13 14 16 18 15 14 17 16 17 16 19 16 16 21 31 36 51 60 81 70 60 51 66 76 52 46 88 100 100 100 100 99
11 13 13 12 11 12 12 10 10 12 14 14 12 15 15 14 13 11 13 14 18 23 22 22 16 16 21 35 39 49 41 72 82 82 65 72 93 68 41 57 94 100 100 100 100

GFSSW_250_rhum_090.txt.gz
RH
48 41 42 43 33 32 36 34 35 32 28 47 51 46 47 100 90 82 68 54 42 30 34 70 69 74 70 70 60 50 34 26 28 34 35 32 42 41 28 16 19 17 33 94 100
46 50 48 48 44 41 34 38 34 31 34 31 56 68 71 97 100 94 87 70 52 37 32 65 92 81 70 51 42 36 29 25 26 34 32 29 42 42 32 18 31 20 46 100 100
42 38 38 47 42 36 35 37 32 34 29 38 38 82 82 97 100 100 100 87 70 57 34 39 47 64 47 45 39 44 36 26 24 34 37 42 47 46 40 21 35 24 61 100 100
70 68 64 64 52 54 39 34 30 29 28 28 40 66 100 100 100 100 100 100 89 67 40 37 43 73 55 47 42 70 67 37 28 26 40 67 53 53 52 30 24 30 70 100 100
99 98 87 74 55 53 48 39 25 24 26 27 38 35 100 100 100 99 100 100 100 80 59 40 38 41 84 51 39 56 49 42 41 33 41 60 59 57 57 38 20 44 71 99 100
61 55 69 78 81 62 49 33 28 28 25 28 36 37 66 100 100 98 100 100 100 99 72 56 40 45 88 46 35 37 32 33 33 46 31 50 50 62 70 47 22 27 48 84 100
81 91 55 64 58 47 46 30 30 28 26 29 32 38 53 100 100 100 100 100 100 100 97 54 65 35 58 43 33 33 44 43 34 39 40 50 46 80 82 52 21 26 34 77 100
88 73 67 79 66 45 33 31 26 28 24 27 34 39 39 100 100 100 100 100 100 100 96 78 77 61 78 69 47 39 43 46 37 36 40 48 52 68 83 59 27 25 34 50 85
72 85 60 51 39 33 34 30 26 25 24 30 34 40 72 100 100 100 100 100 100 100 100 85 99 66 70 60 73 50 47 46 36 45 33 38 49 55 79 68 39 26 30 36 65
56 51 46 46 33 30 31 29 26 27 26 35 39 42 57 100 100 100 100 100 100 100 100 100 100 59 81 100 96 71 51 40 29 36 31 40 45 56 71 78 56 26 28 34 43
58 47 36 38 33 31 29 28 26 26 31 43 45 72 68 95 100 100 100 100 100 100 100 100 98 68 100 79 100 78 71 55 41 25 37 32 56 43 50 82 66 32 29 30 35
45 39 34 33 30 24 25 26 30 26 40 46 52 91 88 83 100 100 100 100 100 100 100 100 100 100 100 68 73 94 74 71 54 42 61 47 36 40 44 68 78 43 29 29 34
34 28 26 26 24 21 22 25 32 26 38 92 64 81 98 74 100 100 100 100 100 100 100 100 100 94 89 64 89 100 85 58 48 51 84 47 35 36 33 44 91 46 29 33 33
23 22 20 21 20 21 24 25 30 30 32 87 83 77 76 96 97 100 100 100 100 100 100 100 99 89 100 89 100 100 81 68 58 79 71 53 41 48 39 42 92 54 30 38 31
22 19 20 20 22 21 26 25 27 36 28 82 93 89 82 100 97 100 100 89 100 100 100 100 100 80 49 80 70 100 84 88 57 70 66 80 47 46 36 48 93 59 34 42 34
21 19 18 18 20 20 23 22 23 30 32 45 73 100 100 98 100 93 96 100 100 100 100 100 100 99 62 62 89 100 90 99 49 63 84 63 54 55 44 77 98 62 36 42 35
15 13 13 14 16 16 16 16 16 19 36 37 48 83 100 100 100 100 100 99 69 93 100 100 100 93 60 98 98 100 100 55 56 94 100 58 56 57 46 98 100 54 40 44 37
10 8 10 13 13 13 14 12 12 15 24 28 49 61 80 100 100 100 100 100 100 98 59 68 58 56 97 100 100 87 79 66 84 100 88 65 76 66 49 100 100 54 46 43 38
10 11 12 14 14 15 14 11 14 18 16 22 31 43 66 97 100 100 100 100 100 99 100 48 79 59 71 100 100 97 97 99 78 88 76 74 75 79 62 93 100 64 49 43 46
11 12 14 12 12 12 10 12 13 19 15 24 29 31 57 76 96 100 100 100 100 100 100 100 100 100 99 100 100 100 100 100 90 92 99 97 83 90 60 89 100 98 53 42 49
9 9 11 8 8 8 11 13 12 19 19 20 27 25 33 76 70 87 100 100 100 100 100 100 100 100 100 100 100 100 100 100 97 99 86 72 79 100 64 81 100 100 67 43 47
7 7 9 6 6 7 9 12 15 18 19 17 18 20 23 28 66 83 99 100 100 100 100 100 100 100 100 100 100 100 100 100 71 59 85 93 75 88 57 78 100 100 92 55 46
7 7 8 5 6 6 7 8 12 16 16 17 16 16 17 19 17 34 80 95 88 76 77 99 88 98 100 100 100 100 100 100 99 95 91 98 100 100 57 72 95 100 100 93 54
9 10 8 6 8 7 7 7 8 11 12 12 15 14 14 13 15 28 55 93 87 92 89 74 83 96 100 100 100 100 100 100 100 98 100 89 99 100 64 66 81 100 100 100 73
9 8 7 8 7 6 6 6 7 8 10 10 15 15 14 16 14 20 28 51 62 58 76 77 69 55 87 100 100 100 100 100 99 96 77 75 83 100 77 61 77 86 100 100 100
7 7 9 8 8 8 8 7 8 8 10 12 14 11 12 19 19 17 16 13 15 16 23 41 43 45 50 62 72 81 76 90 83 90 60 60 79 84 82 51 75 76 100 100 100
8 8 9 10 10 10 8 7 7 8 9 11 12 12 15 15 15 17 18 17 17 10 10 11 15 21 27 40 56 77 74 74 76 72 71 66 82 93 86 55 58 76 93 100 100

GFSSW_250_rhum_093.txt.gz
RH
54 54 44 35 35 38 38 38 34 38 41 37 38 35 36 42 57 56 48 68 56 92 76 84 66 52 33 36 70 61 45 38 36 32 26 25 27 26 31 48 51 30 17 20 35
72 65 50 40 40 38 34 33 33 47 48 46 38 36 37 36 41 51 58 58 75 91 91 94 84 63 38 34 53 45 42 49 64 43 32 28 29 34 43 47 47 34 22 23 60
74 64 38 39 52 46 45 50 59 49 66 82 62 43 38 35 39 39 52 59 83 78 100 100 98 76 46 32 41 52 54 41 34 39 31 29 34 33 39 42 57 46 26 30 62
85 51 39 41 49 48 50 69 58 66 50 65 70 64 51 39 28 33 38 57 80 93 99 100 100 88 60 38 31 37 57 45 36 29 30 33 34 40 34 39 62 56 30 26 48
67 45 54 47 49 67 49 52 48 54 58 81 78 71 53 35 29 28 30 62 84 98 91 100 100 96 64 56 37 46 71 40 31 30 31 37 37 46 42 39 54 64 33 25 47
48 54 57 42 50 64 64 59 63 60 61 68 58 48 43 37 34 28 32 42 96 87 94 100 100 100 75 62 55 38 41 44 38 36 36 38 34 43 44 44 46 78 44 24 33
65 47 51 62 78 73 72 65 66 59 65 45 39 38 34 36 31 31 38 38 61 97 100 100 100 100 96 84 68 52 47 51 53 47 32 37 34 53 48 45 44 81 55 30 28
51 60 96 97 82 72 78 87 53 59 50 39 36 33 32 33 30 32 38 46 100 100 100 100 100 100 100 92 81 75 61 41 43 49 40 34 38 45 58 40 42 67 64 39 23
69 85 91 88 82 93 94 88 60 44 33 32 33 34 32 36 30 32 40 49 100 100 100 98 84 100 100 100 99 96 64 53 69 69 54 35 35 57 38 36 41 44 57 47 24
75 91 80 75 93 96 91 65 46 31 29 27 32 32 31 33 31 38 46 49 48 99 100 99 85 100 100 100 100 88 70 86 52 83 68 52 41 71 43 37 37 34 38 61 29
100 100 85 100 87 96 80 47 33 26 24 27 28 29 32 29 38 39 65 88 84 100 100 100 78 69 100 100 100 100 78 86 51 27 58 63 38 60 53 47 37 35 32 62 38
100 99 100 98 93 66 50 37 29 21 23 25 26 25 28 26 49 70 90 92 98 100 100 99 100 100 100 100 100 100 82 100 58 27 61 84 62 42 81 68 55 30 29 49 46
100 100 86 85 74 51 30 28 21 19 18 34 20 22 27 26 55 97 84 100 100 92 100 100 100 100 100 100 100 100 97 100 60 26 40 100 86 38 83 73 56 34 35 46 52
81 80 79 47 43 38 25 21 18 20 18 25 28 20 27 41 62 96 86 100 100 100 100 100 100 100 100 100 100 100 100 95 54 35 51 100 99 47 85 85 71 48 65 52 58
65 49 50 43 30 31 22 19 19 22 17 22 26 28 25 52 78 99 100 100 100 100 100 100 100 100 100 100 100 100 100 81 53 52 62 100 70 95 91 93 79 47 77 59 59
50 38 33 29 27 24 20 16 16 18 18 19 26 32 31 42 97 100 100 100 100 100 100 100 100 100 100 100 100 100 100 81 63 51 53 100 37 100 96 90 87 54 75 64 60
33 30 25 21 19 16 14 11 11 12 15 16 20 30 40 37 76 100 100 100 100 100 100 100 100 100 100 100 100 100 100 95 86 43 83 100 34 100 100 93 90 60 62 78 60
24 20 17 14 12 13 13 11 9 12 13 13 16 21 35 55 63 98 100 100 100 100 100 100 100 100 100 100 100 100 100 97 73 44 76 72 48 100 100 83 98 76 63 85 58
17 13 12 10 11 12 12 12 12 12 10 16 14 17 23 48 75 84 100 100 100 100 100 98 100 100 100 99 97 99 100 99 64 42 42 80 74 100 100 86 100 92 57 87 70
9 9 9 8 9 9 10 12 12 11 12 17 19 13 17 28 69 86 91 100 100 100 100 100 100 90 96 100 100 90 91 63 46 35 85 100 82 100 100 99 83 100 59 88 72
8 8 9 8 8 9 10 10 10 10 13 14 16 13 12 16 29 70 88 86 100 100 100 100 100 100 100 88 70 75 71 63 41 41 72 77 100 100 100 84 92 91 71 71 90
8 8 10 8 8 9 10 8 7 9 11 13 13 14 10 12 19 31 72 88 89 100 100 100 100 100 100 100 100 100 66 44 36 43 66 88 100 100 100 100 100 100 79 74 100
7 8 10 9 9 8 7 6 6 7 7 10 13 12 12 12 14 21 35 64 86 85 100 100 100 100 100 100 100 100 100 73 88 87 96 96 100 100 100 100 99 99 96 73 100
6 9 11 8 7 6 5 7 7 6 6 7 12 10 12 13 12 15 25 36 59 82 78 85 85 99 100 100 100 100 100 100 78 83 100 100 100 100 100 100 98 88 88 68 90
8 10 8 6 6 8 7 8 6 6 6 6 10 12 10 11 12 13 15 24 32 52 77 76 82 80 100 100 100 100 100 100 100 92 74 100 100 100 100 100 100 89 83 75 90
8 7 7 9 8 9 8 6 6 5 6 6 8 10 12 12 11 13 14 16 22 33 69 75 82 98 98 100 100 100 100 100 100 100 100 100 100 100 100 100 100 77 68 64 89
8 8 9 9 9 7 7 7 6 8 7 7 8 9 12 13 11 12 17 17 16 19 29 62 74 69 76 66 85 90 99 83 84 90 89 78 100 100 100 100 100 92 67 75 72

GFSSW_250_rhum_096.txt.gz
RH
52 45 45 48 62 58 44 45 41 30 26 25 24 30 31 30 33 35 40 39 39 39 38 44 39 34 80 99 89 54 37 40 47 46 40 30 36 27 27 25 27 38 40 23 15
63 50 43 47 71 53 64 68 54 42 37 38 34 32 29 32 62 60 42 40 39 37 37 37 45 36 44 100 99 70 47 34 35 45 40 35 31 28 29 35 28 30 40 27 17
90 57 36 36 40 46 56 83 60 44 46 44 48 51 52 56 76 80 84 74 62 46 40 33 42 39 40 100 100 84 70 40 29 33 46 31 29 25 26 39 33 40 44 29 24
98 69 44 48 60 49 68 69 58 54 53 46 49 67 49 55 68 64 60 61 67 51 44 34 31 41 38 87 100 100 80 60 41 33 50 34 31 34 33 41 40 44 46 35 27
82 78 87 83 63 50 42 55 67 59 57 61 85 92 62 60 64 51 59 71 80 60 43 38 32 33 38 77 100 100 82 76 53 38 37 42 33 33 34 55 45 37 41 40 31
91 79 80 76 68 65 63 66 53 58 69 74 91 75 68 78 66 60 48 43 50 56 38 34 34 33 48 77 100 100 100 89 68 49 40 46 30 35 44 47 34 37 40 46 43
76 70 74 78 69 71 65 54 50 61 86 90 95 80 77 92 92 68 44 38 35 43 34 34 35 51 68 80 100 100 100 98 81 63 52 47 30 44 36 43 40 32 35 36 39
85 80 90 52 52 54 58 51 54 70 88 79 71 72 94 87 61 46 31 33 35 33 33 32 34 97 68 62 100 100 100 100 92 68 69 60 41 56 47 49 51 46 38 33 37
87 66 52 61 74 83 58 57 63 97 100 94 62 77 85 58 43 33 29 31 31 31 34 32 39 100 99 68 100 100 100 100 89 95 75 71 63 47 42 49 52 68 44 29 29
46 83 93 77 83 78 70 62 82 94 100 100 88 57 40 37 32 29 28 30 33 28 38 40 50 100 100 100 100 100 99 100 100 100 83 72 71 27 44 56 51 70 57 38 27
100 92 63 60 65 70 90 96 91 100 100 80 86 53 36 27 25 27 28 30 28 31 39 41 40 93 100 100 100 100 100 100 100 100 87 69 80 54 34 88 63 53 70 44 37
78 62 81 62 74 93 90 88 97 75 74 87 52 36 31 24 22 25 29 30 31 35 44 100 44 76 92 100 100 100 100 100 100 78 78 60 82 95 32 81 73 49 77 48 44
65 70 62 83 90 100 100 94 98 90 78 57 42 29 24 24 23 25 30 31 36 37 46 56 93 91 95 98 100 100 100 100 100 88 67 74 79 100 43 87 75 59 80 53 43
84 72 67 74 98 100 100 96 84 70 46 32 35 29 25 22 24 26 26 30 39 44 62 62 100 100 100 100 100 100 100 100 100 96 76 59 81 100 50 78 88 60 72 65 44
75 72 75 77 69 67 72 62 48 41 31 24 26 26 24 24 22 28 29 28 44 58 52 85 100 100 79 100 100 99 100 100 100 100 83 48 72 100 73 52 100 65 78 73 45
73 81 97 94 84 72 50 42 37 32 23 22 20 20 20 22 25 25 34 35 41 54 83 95 100 100 100 100 100 100 90 91 100 100 56 85 90 100 95 45 100 78 90 80 46
91 97 95 79 53 50 43 35 32 26 20 18 15 14 16 20 25 28 33 42 58 62 100 100 100 100 100 100 100 100 100 100 100 74 80 100 98 100 98 45 100 72 96 85 60
76 51 49 46 42 40 35 30 20 16 15 15 14 13 14 20 24 30 31 43 68 73 100 100 100 100 100 100 94 85 100 100 100 83 92 100 76 83 99 98 79 87 98 80 81
43 38 38 35 33 29 24 16 13 12 12 13 13 11 12 14 21 27 31 34 59 89 87 100 100 100 100 100 100 100 94 100 88 61 63 100 75 77 100 100 81 93 100 71 78
30 29 24 23 21 16 13 12 12 11 10 12 12 13 11 13 15 24 26 29 49 83 90 93 100 100 100 100 100 100 100 100 91 100 89 96 82 63 100 100 77 93 93 73 77
14 16 13 12 11 11 11 11 11 10 9 9 11 11 11 10 12 16 22 26 33 72 90 79 95 100 100 100 100 100 100 100 100 97 98 99 100 77 100 100 98 87 89 80 94
8 8 9 10 10 10 10 10 9 8 8 8 9 10 11 11 11 11 18 22 31 48 86 83 86 100 100 100 100 100 93 76 82 80 82 96 95 70 57 100 100 51 82 95 100
6 7 8 8 8 9 9 9 8 7 6 7 8 10 11 12 11 11 14 20 25 35 55 84 71 100 100 100 100 100 100 99 96 86 91 72 78 59 58 100 100 86 100 100 99
5 6 6 6 7 8 7 7 6 6 6 7 8 9 10 11 12 12 12 15 19 26 41 70 79 78 100 100 100 100 93 81 64 70 70 67 63 71 70 74 100 100 99 82 83
5 6 6 6 6 5 5 6 6 7 7 6 6 7 7 9 11 13 10 12 14 20 35 54 80 77 83 98 100 100 100 100 100 92 44 62 52 61 100 94 100 100 100 100 100
5 6 5 5 4 6 7 7 5 6 6 6 7 7 7 7 8 11 12 12 15 16 22 40 75 91 92 90 94 97 82 100 100 100 100 99 81 75 100 100 100 100 100 94 94
5 4 4 5 5 6 7 6 6 8 7 8 8 8 7 7 7 10 13 14 15 17 17 24 35 63 76 85 75 75 98 93 98 100 88 62 91 99 100 100 100 100 100 100 99

GFSSW_250_rhum_099.txt.gz
RH
71 71 75 70 68 60 53 38 32 48 39 36 39 46 57 41 37 31 27 30 29 30 29 38 36 40 39 36 32 29 37 66 100 66 42 29 25 39 30 27 23 22 25 23 22
100 98 95 81 75 64 62 54 33 33 39 36 37 54 74 59 52 46 48 40 40 37 28 31 36 41 44 41 37 32 35 55 100 87 58 43 32 32 35 34 28 35 39 31 26
83 92 85 95 96 97 88 84 68 56 44 46 47 46 41 59 63 57 59 57 50 44 43 45 48 45 52 60 45 34 36 47 78 100 76 61 41 36 32 40 30 44 36 27 28
100 100 100 100 100 100 98 87 75 77 83 72 66 60 56 40 47 57 66 62 67 62 65 63 51 54 68 64 56 38 44 39 67 100 87 68 51 40 31 43 37 41 35 28 29
94 96 97 100 92 92 70 96 98 72 75 83 75 61 60 54 46 52 80 85 69 64 65 55 49 51 47 55 68 47 58 54 60 100 100 87 60 43 36 37 40 44 35 31 30
95 75 74 63 74 79 78 87 89 88 80 84 54 58 62 62 47 51 77 97 92 77 73 61 49 36 38 40 48 46 42 72 71 99 100 100 76 41 45 34 37 44 54 39 29
89 100 100 100 100 80 71 93 88 96 94 73 66 60 64 61 54 52 59 86 65 57 60 48 37 32 32 34 42 41 36 92 87 92 100 100 96 44 59 40 44 44 56 51 38
100 100 100 100 87 74 86 86 99 93 76 55 66 55 54 51 80 90 97 100 99 67 61 35 32 27 27 31 35 38 36 61 100 95 100 100 100 60 76 49 44 34 63 58 39
100 100 100 100 83 61 63 70 90 72 61 94 72 58 54 55 77 100 100 100 100 98 50 31 26 24 27 26 31 42 92 100 100 84 98 100 100 84 93 63 30 32 58 71 45
100 100 100 96 81 61 75 64 69 86 100 82 64 65 53 79 100 100 100 100 97 56 39 30 21 22 29 29 33 88 100 100 100 74 87 100 100 94 97 65 40 35 58 67 46
97 100 100 100 100 100 100 100 100 100 100 75 67 53 60 100 92 100 92 87 60 42 34 25 21 28 34 35 39 98 100 100 100 77 62 100 100 100 100 78 44 44 68 54 55
96 91 81 82 94 88 96 100 95 80 84 69 65 50 58 82 83 84 74 55 44 36 27 20 20 31 34 36 45 100 100 100 100 89 66 100 100 100 100 84 46 55 81 63 67
96 100 95 93 89 100 100 100 86 83 68 60 66 59 65 66 64 51 51 48 47 34 25 20 21 33 34 66 44 100 100 100 100 100 61 98 96 100 100 99 39 56 82 54 78
100 100 93 87 81 80 84 67 60 70 57 67 63 66 83 81 59 50 44 39 38 32 24 18 23 33 35 45 71 100 100 100 100 100 88 100 100 100 100 100 50 46 70 51 91
80 88 83 78 65 59 55 56 70 69 60 58 58 81 89 75 49 41 44 38 34 27 22 22 24 31 39 85 92 71 100 100 100 100 90 67 99 100 100 93 61 48 60 55 98
56 63 58 66 76 74 63 59 59 58 57 54 58 52 50 43 42 46 40 32 27 24 22 22 22 31 49 100 69 100 100 100 100 100 89 99 100 100 100 100 71 61 57 57 70
66 68 68 74 70 78 74 76 72 57 50 51 44 43 43 40 34 31 30 23 21 21 21 21 24 36 43 91 92 83 90 100 100 100 74 99 100 100 100 100 65 63 62 97 76
73 69 82 91 86 71 69 76 58 67 60 39 42 39 33 29 26 23 19 17 18 17 18 22 24 32 70 58 93 82 95 85 100 100 100 72 100 100 100 100 90 53 79 94 72
63 54 62 64 70 66 58 47 48 43 40 40 38 32 28 22 19 13 15 14 13 18 15 20 25 38 61 62 90 100 82 100 100 100 72 100 95 80 96 100 100 75 86 66 53
43 39 41 46 46 44 37 38 41 32 28 33 29 22 20 16 10 14 13 12 12 16 14 19 23 40 72 78 98 100 92 88 100 92 100 100 99 100 93 100 100 96 86 63 61
31 27 29 29 30 25 27 28 27 23 24 20 14 13 11 11 10 12 12 11 12 14 15 17 24 32 65 84 100 100 96 79 95 92 98 100 100 100 90 100 100 100 86 65 42
15 14 16 14 13 14 16 16 13 14 11 10 9 9 9 10 10 11 11 10 12 13 16 15 25 29 66 88 100 100 100 100 90 98 93 89 100 100 94 74 100 100 75 79 37
8 8 7 8 8 9 9 8 8 8 8 7 7 8 9 9 9 10 9 9 10 14 12 11 25 29 53 86 100 100 100 100 100 100 100 100 99 83 72 100 100 100 100 100 65
4 4 5 5 6 6 6 6 6 6 5 6 7 9 9 9 9 10 9 8 9 12 12 14 19 28 40 76 88 98 100 100 100 92 100 100 100 100 93 100 100 100 100 100 95
4 4 4 4 4 4 4 4 4 4 5 6 8 8 8 9 9 8 8 8 9 12 13 13 16 27 35 56 91 100 100 99 88 92 100 100 100 100 100 96 100 100 100 96 68
3 3 3 3 4 4 4 4 4 5 6 6 7 7 7 7 6 6 7 8 9 11 14 13 16 20 32 48 78 100 100 100 100 78 100 96 81 74 78 86 81 92 100 100 78
3 3 3 3 3 3 4 5 5 5 6 6 6 6 7 6 6 6 7 7 9 11 14 13 15 17 31 46 60 56 100 100 100 93 100 92 96 70 72 69 89 78 92 100 100

GFSSW_250_rhum_102.txt.gz
RH
54 45 43 45 64 87 70 64 84 84 67 62 60 50 41 32 37 36 32 38 42 43 41 35 33 31 30 35 28 31 40 46 39 32 32 39 93 96 51 42 37 30 31 29 36
54 51 53 64 90 93 89 96 100 97 93 91 71 74 66 51 51 54 54 61 64 53 49 40 39 31 35 34 31 32 39 63 45 38 32 46 56 100 73 50 41 34 33 38 34
98 90 100 100 100 100 100 98 83 76 96 88 87 78 70 56 46 50 73 69 52 45 46 40 44 46 38 43 34 31 35 62 54 39 31 50 50 100 92 58 45 40 38 40 36
99 99 96 100 89 91 100 100 100 100 100 100 98 77 58 48 56 52 77 71 59 58 44 40 43 48 61 54 52 42 37 44 61 55 35 38 51 99 100 77 52 41 38 36 41
100 100 100 100 100 100 100 100 100 100 81 70 73 81 87 83 68 90 87 72 57 56 52 42 46 46 50 61 55 45 37 40 43 52 38 34 50 92 100 97 63 46 43 48 42
100 100 100 100 98 93 98 81 78 66 64 78 74 70 57 79 99 93 90 76 72 63 46 42 49 44 56 64 51 52 42 40 39 41 50 34 35 83 100 100 84 56 55 45 47
100 100 100 100 100 100 99 99 90 90 99 94 87 80 78 66 88 100 100 74 75 74 46 72 100 100 100 96 67 46 39 32 32 35 45 33 26 100 100 100 100 66 70 45 39
76 74 91 100 100 100 89 92 100 100 100 100 100 90 84 70 71 82 97 91 78 59 55 53 100 100 100 100 100 49 32 28 31 36 44 30 27 92 98 99 100 92 77 51 31
99 100 100 100 100 100 100 100 100 100 100 100 99 92 77 74 51 62 86 92 94 72 57 62 100 100 100 100 80 32 24 24 27 38 39 30 27 75 98 97 100 100 99 61 32
100 100 100 100 98 96 86 87 85 100 100 100 100 100 99 93 87 87 92 93 78 68 61 50 75 83 85 59 35 27 22 20 24 43 41 46 49 63 94 92 100 100 100 73 34
100 100 100 100 100 99 100 100 100 100 100 100 100 100 100 100 100 89 66 54 64 60 62 54 50 48 46 42 32 26 21 21 30 40 61 78 83 87 93 79 100 100 100 95 43
100 100 100 100 100 100 100 92 80 100 85 83 99 100 98 82 66 54 90 88 86 68 58 57 45 50 42 34 27 21 20 23 34 40 77 82 76 100 100 92 100 100 100 92 47
100 100 100 100 100 100 100 100 100 100 92 100 100 100 100 100 98 90 71 77 60 59 59 58 50 50 40 28 23 20 20 30 34 56 47 65 52 100 100 90 100 100 100 91 46
98 100 100 100 100 100 100 100 100 100 100 100 100 100 100 100 90 80 70 62 54 54 65 50 55 42 33 23 27 20 22 31 36 54 75 86 42 54 100 98 100 90 93 95 54
100 100 96 88 100 100 100 100 100 91 76 84 70 89 95 91 75 65 61 67 60 55 52 46 43 36 23 25 22 20 22 29 36 43 59 81 47 100 100 100 100 100 100 90 53
90 94 89 100 100 95 100 100 89 73 56 58 64 66 68 63 64 70 55 52 55 58 50 40 38 30 26 24 20 21 22 33 36 49 60 98 52 100 100 100 100 100 100 85 58
100 100 95 79 94 89 89 73 76 62 70 54 43 41 54 54 52 62 63 51 52 48 42 38 36 30 22 21 19 20 24 36 36 46 99 99 67 59 100 100 100 100 92 100 68
79 85 99 75 79 93 96 74 52 61 62 62 43 36 46 67 60 54 34 48 43 34 32 31 32 27 18 17 19 19 24 30 52 62 100 95 75 63 100 100 100 100 99 100 82
54 54 63 69 63 72 72 52 49 67 57 52 44 44 44 46 38 35 28 33 38 31 22 28 29 18 14 18 19 22 30 45 51 50 100 100 100 100 78 100 100 100 100 100 100
45 42 48 49 51 47 44 44 54 68 41 42 51 40 34 38 39 27 28 28 28 26 22 22 18 13 12 15 17 21 36 48 66 61 69 100 100 100 100 100 100 100 100 100 100
25 21 31 31 32 26 25 33 38 44 36 25 30 33 32 29 29 23 18 21 20 17 13 14 11 13 10 16 17 23 35 67 84 83 65 94 100 100 100 100 100 100 100 94 100
17 17 19 20 22 22 24 33 28 26 23 22 26 24 24 22 16 16 15 15 12 9 10 12 9 12 11 18 16 26 38 85 70 96 98 85 99 100 88 80 100 100 100 91 98
8 8 9 10 10 11 14 14 13 12 13 13 13 11 11 11 10 10 10 10 9 7 9 10 9 11 11 14 19 29 49 50 86 90 87 88 100 100 100 100 100 96 98 98 100
5 5 6 6 6 6 7 7 7 7 7 8 8 7 7 8 8 8 8 8 8 7 8 10 9 9 12 13 14 21 38 74 79 100 100 81 100 100 100 100 100 98 100 100 99
3 3 3 4 4 4 3 3 4 4 5 4 4 5 5 5 6 6 7 6 6 8 8 9 8 9 12 13 15 19 42 67 100 99 94 66 91 100 100 93 78 87 100 100 98
3 3 3 2 3 3 3 3 3 3 4 4 5 5 5 5 4 5 5 7 7 7 7 8 9 9 11 13 13 16 31 60 100 93 100 65 71 100 100 88 86 81 85 100 100
2 2 2 3 3 3 3 3 4 4 4 4 4 4 4 4 5 5 6 6 7 8 8 9 10 9 12 14 12 13 27 54 98 100 100 95 100 100 100 100 100 100 100 100 100

GFSSW_250_rhum_105.txt.gz
RH
89 93 96 98 86 80 69 57 50 50 42 40 48 75 76 74 75 75 70 66 54 41 34 35 46 55 50 36 29 27 26 31 41 31 30 51 34 27 23 36 98 96 74 46 38
82 76 68 77 70 68 60 58 50 58 71 84 83 96 96 97 100 76 70 68 62 53 41 36 48 59 48 47 41 32 25 32 30 39 32 34 46 50 28 29 94 100 95 54 40
96 100 95 90 90 71 65 56 79 90 94 100 100 100 87 72 92 91 92 84 70 51 44 53 64 66 59 49 37 33 33 29 32 33 33 28 37 57 39 27 53 100 100 69 47
54 98 100 100 100 100 100 94 86 99 99 100 100 98 92 100 100 99 83 71 58 50 50 57 65 72 67 54 48 40 37 32 34 35 37 36 41 40 41 35 30 96 100 88 52
45 63 78 100 100 100 100 99 97 100 100 100 100 100 99 100 98 86 62 55 52 71 89 84 80 73 56 57 56 53 44 100 93 99 95 54 40 45 36 49 31 74 100 98 57
44 47 72 87 100 100 100 100 100 100 100 100 100 100 100 100 99 76 64 63 54 59 57 78 69 55 64 72 77 58 44 48 75 69 56 42 41 39 39 47 34 48 100 100 67
77 53 54 94 67 100 100 100 100 100 100 100 100 100 100 99 98 98 100 99 99 80 77 63 57 48 40 58 74 72 52 43 95 99 83 78 37 43 35 34 32 38 100 100 71
100 90 74 89 100 73 97 89 99 100 100 100 100 100 100 100 100 100 100 100 100 89 76 84 76 72 90 66 52 39 40 41 85 73 67 74 34 38 29 32 31 33 96 100 99
100 100 97 85 92 100 100 100 100 100 100 100 100 96 100 91 97 99 87 100 100 100 100 100 95 84 91 70 47 44 38 35 37 49 46 40 24 25 27 30 33 35 99 94 100
100 100 88 100 96 100 100 95 100 79 69 79 94 97 100 100 92 100 100 100 100 100 100 99 100 100 93 69 58 40 38 36 31 37 35 26 22 21 29 33 33 44 98 77 100
100 100 85 100 100 100 100 100 100 100 100 100 100 88 88 66 100 100 100 100 100 100 100 94 82 96 89 69 65 57 48 36 32 32 28 20 18 20 23 31 27 51 95 99 100
100 88 77 100 100 100 100 100 100 100 100 100 100 100 100 90 87 100 99 96 90 100 96 100 100 100 97 94 75 61 52 42 32 31 24 19 19 21 32 37 27 64 97 100 92
100 100 86 100 100 100 100 100 100 100 100 100 99 100 100 100 99 100 100 100 100 100 100 100 99 95 81 74 73 64 51 36 28 26 24 17 18 20 32 55 44 84 99 95 100
100 100 100 100 100 100 100 100 100 100 100 100 100 100 100 100 100 100 100 100 100 100 100 85 100 92 81 65 59 46 45 35 28 20 21 15 17 21 33 74 53 81 96 98 100
100 100 100 100 100 100 100 100 100 96 78 100 95 100 100 100 100 100 100 100 100 92 86 75 75 68 62 60 49 40 34 30 26 20 18 20 16 36 44 96 75 80 98 100 100
100 100 100 100 100 100 100 100 100 100 100 100 96 100 98 100 100 100 100 100 100 86 72 56 58 55 48 49 40 34 37 26 21 20 16 27 18 40 61 100 75 84 92 100 100
100 100 100 100 100 91 96 83 80 91 100 94 96 100 71 79 80 99 93 90 91 81 71 62 53 45 41 37 39 35 34 22 19 19 21 23 16 48 97 94 82 99 100 100 100
100 100 100 100 100 94 97 86 79 98 100 100 99 74 76 68 96 100 83 70 76 78 69 50 47 46 40 36 35 32 32 25 22 18 20 18 31 51 100 100 83 100 90 99 100
90 99 98 99 88 81 76 67 92 99 100 98 80 96 73 66 85 90 71 52 51 66 50 37 35 41 40 32 32 34 28 27 15 15 14 20 41 54 93 100 100 100 67 89 99
64 57 76 70 67 64 46 50 63 67 83 62 59 60 60 57 60 97 81 59 52 47 36 33 24 38 37 34 32 27 25 18 14 15 18 28 50 80 96 100 100 100 99 73 98
25 27 37 26 33 32 31 34 37 47 52 38 38 46 46 43 47 55 52 50 50 32 26 26 24 31 31 30 27 22 20 13 13 16 19 32 61 100 100 100 100 100 100 100 79
17 20 21 20 20 22 20 21 23 26 33 30 26 29 39 37 30 30 40 42 30 25 19 21 25 24 25 19 16 16 15 11 11 20 21 33 83 100 100 100 100 100 100 100 92
10 11 10 10 10 10 11 12 17 21 24 22 20 24 25 26 23 25 27 27 20 17 13 12 13 15 13 12 10 11 10 9 12 17 18 43 100 100 100 100 100 87 100 100 100
8 8 8 7 7 6 6 7 8 9 9 8 10 10 13 13 13 14 14 18 12 9 9 9 10 10 10 11 8 11 10 11 11 16 31 62 100 96 100 100 100 78 99 100 100
4 4 3 4 3 4 4 4 4 5 5 6 7 7 7 8 9 9 9 10 10 9 7 7 9 8 9 10 7 11 10 13 11 14 30 66 100 100 100 100 100 100 92 100 100
4 4 3 3 3 3 3 3 3 3 4 4 4 4 4 5 5 5 6 6 5 5 5 5 7 6 8 8 8 10 10 12 18 24 36 55 100 100 100 100 100 100 97 62 76
3 3 3 3 3 3 3 3 3 3 3 4 4 5 4 4 5 5 5 5 5 5 5 6 7 7 10 9 7 8 10 13 22 40 67 64 100 100 100 100 100 100 72 83 88

GFSSW_250_rhum_108.txt.gz
RH
97 99 98 99 96 100 100 100 100 100 100 93 81 76 63 58 54 40 46 76 68 70 66 70 62 49 49 45 40 34 29 29 30 31 30 21 21 22 26 28 32 38 32 35 61
43 60 56 61 75 80 87 87 86 93 100 100 91 79 74 70 92 62 86 95 90 91 100 82 62 61 55 51 42 34 32 33 32 32 30 29 24 27 25 27 30 37 49 32 67
32 32 37 38 39 39 57 83 98 99 91 100 98 92 82 88 79 98 100 100 100 95 84 67 62 62 49 39 41 38 36 32 32 40 41 41 33 30 32 27 33 35 41 43 45
33 30 38 36 45 47 38 43 84 100 100 98 100 100 100 100 100 100 100 100 100 100 100 94 67 71 52 40 43 45 45 38 40 37 38 41 42 30 26 44 62 49 35 30 36
38 39 40 62 49 58 80 50 50 64 100 82 92 100 100 100 100 100 100 100 100 100 100 100 99 76 66 82 70 46 55 52 52 55 60 51 35 27 36 54 82 90 61 30 32
53 50 57 71 100 90 85 78 56 61 63 99 73 100 100 100 100 100 100 100 100 100 100 100 94 95 100 100 87 63 71 73 61 64 68 50 39 33 43 33 36 58 77 41 30
78 87 64 52 46 99 100 100 100 75 54 82 100 95 92 100 100 100 100 100 100 100 100 100 100 100 100 100 100 95 88 77 83 77 92 56 41 38 33 36 31 28 42 54 36
91 94 100 96 81 99 76 100 100 99 79 66 92 98 100 100 100 99 100 100 100 100 100 100 100 100 94 88 100 100 100 100 100 100 91 50 35 34 41 39 30 26 24 27 33
89 91 85 98 100 100 100 88 83 100 100 92 74 94 93 100 100 100 100 100 100 100 100 92 84 100 99 100 100 100 100 100 100 89 69 53 28 26 37 42 28 23 22 25 29
100 97 100 100 93 83 72 100 98 75 94 100 80 100 100 100 100 100 100 96 100 100 100 100 100 100 100 100 100 100 90 94 100 96 68 82 38 37 37 35 27 22 20 26 33
79 94 100 100 100 100 88 90 79 89 61 88 100 100 97 100 100 100 100 86 84 100 100 100 92 72 100 100 96 92 71 86 99 100 81 68 38 52 41 33 26 21 18 26 31
73 68 63 66 88 92 95 100 89 73 79 88 93 100 100 90 100 100 100 100 100 100 100 100 99 100 84 93 72 78 100 100 100 96 63 54 36 40 36 30 22 19 20 30 36
100 100 100 100 100 100 100 99 86 74 73 86 66 96 100 100 100 100 99 100 98 88 100 100 99 100 96 98 80 68 73 81 71 74 60 42 28 37 38 27 21 19 27 42 39
80 94 100 100 93 86 98 95 89 83 76 84 83 100 100 100 100 100 100 100 100 100 100 100 100 100 100 93 99 90 97 82 70 60 51 45 26 36 36 23 20 23 41 49 34
75 84 99 100 98 86 99 100 100 99 90 100 100 99 100 100 100 100 100 100 100 100 100 100 100 100 100 100 100 99 89 82 49 52 38 48 22 30 36 21 21 28 100 62 45
78 72 86 89 86 84 94 100 97 82 90 100 100 90 92 100 100 100 100 100 100 98 89 100 99 100 100 97 90 78 76 74 65 48 28 46 25 34 31 21 24 30 98 96 64
98 100 100 93 59 71 85 92 89 83 100 100 91 78 90 99 100 100 100 100 100 100 100 100 100 96 87 76 81 80 62 58 52 47 33 32 24 34 31 20 27 32 100 71 72
78 98 100 100 93 99 97 67 56 86 95 100 76 90 100 95 97 99 100 100 100 100 100 86 96 100 80 61 69 76 82 61 55 42 34 27 26 35 27 20 29 37 100 50 68
75 71 79 60 64 60 59 81 100 99 100 93 100 98 70 72 97 71 66 90 90 82 59 55 56 76 56 67 67 71 67 73 44 33 26 29 34 33 24 20 38 55 98 58 69
46 44 39 35 33 37 30 37 55 71 69 77 85 74 78 91 94 93 79 91 95 76 60 55 62 87 94 86 74 72 84 68 45 29 26 30 31 29 19 25 44 92 87 46 63
27 25 22 22 23 25 28 28 28 32 33 37 42 64 66 84 74 84 99 96 91 67 56 44 40 68 75 82 75 67 66 56 34 25 27 32 25 22 21 46 79 100 93 55 74
16 16 16 16 16 16 18 17 19 20 20 22 22 24 35 54 51 58 82 72 53 48 42 38 37 39 55 70 48 49 48 45 27 27 22 20 22 18 22 52 100 100 100 79 54
11 13 10 9 9 8 8 8 9 12 13 13 14 16 20 30 28 27 36 41 39 30 24 20 19 28 35 40 34 41 41 34 31 19 17 16 15 21 30 87 100 100 100 100 56
10 9 8 6 7 7 6 7 8 8 8 7 7 7 10 15 16 19 20 23 21 20 18 19 21 24 30 32 30 28 22 18 18 13 12 16 16 28 61 100 100 100 100 100 81
7 6 5 5 4 4 4 4 4 4 5 5 6 6 6 8 9 9 10 12 13 11 10 10 12 15 15 16 16 11 10 11 9 10 11 18 17 28 99 100 100 100 100 100 100
6 6 5 4 4 4 4 4 4 3 3 4 4 4 4 5 5 6 8 9 9 8 7 7 10 10 11 10 9 7 9 10 8 9 12 20 17 57 100 100 100 100 100 100 100
5 5 4 3 4 3 3 3 3 3 3 4 4 4 4 4 5 4 5 5 6 5 5 5 5 5 7 5 4 6 8 10 9 10 16 21 23 47 100 100 100 100 100 84 100

GFSSW_250_rhum_114.txt.gz
RH
59 47 53 62 81 88 96 100 100 87 80 76 65 67 66 75 89 90 99 92 100 100 100 100 100 100 100 98 76 73 76 100 92 89 59 45 47 34 37 43 31 29 23 26 28
99 80 66 72 44 48 83 82 93 97 99 98 96 97 100 100 100 100 100 100 100 100 100 100 100 100 100 100 84 72 76 99 100 99 80 70 41 47 73 69 39 34 37 29 33
100 100 100 94 61 61 46 51 44 81 96 92 98 98 97 100 100 100 100 100 100 100 100 100 100 100 100 100 96 98 98 100 100 100 100 89 47 73 98 71 44 41 44 51 36
59 59 79 81 100 83 73 65 35 35 45 49 78 63 70 86 87 91 90 100 100 100 100 100 100 100 100 100 100 96 100 100 100 100 100 92 69 100 83 73 52 50 39 53 36
73 72 80 72 62 92 100 95 90 72 49 42 38 71 44 36 39 41 52 73 79 100 100 100 100 100 100 100 100 100 100 100 100 100 100 100 100 96 81 74 57 56 41 37 34
72 73 67 73 52 74 82 93 95 97 96 92 87 51 71 69 49 48 42 47 56 67 67 72 85 99 100 100 100 100 100 100 100 100 100 100 100 100 100 67 59 72 52 32 46
54 56 61 71 67 83 47 61 85 75 95 75 96 100 98 94 73 79 77 58 55 60 60 61 54 67 87 82 97 100 100 100 100 100 100 100 100 100 100 84 58 61 51 32 59
59 76 84 56 66 66 83 90 50 56 76 94 100 62 88 100 89 87 92 84 76 67 57 44 45 60 63 92 95 100 100 100 100 100 100 100 99 100 100 89 82 80 50 47 62
71 56 57 67 71 71 64 66 51 69 91 96 81 63 89 66 100 85 100 100 100 85 72 53 53 54 50 58 95 96 100 100 92 100 96 97 100 100 100 89 82 84 54 52 52
70 80 79 56 56 62 68 68 59 67 63 92 100 99 99 72 80 100 98 99 100 98 89 99 74 74 66 50 74 100 76 76 99 100 100 100 100 100 98 70 100 77 76 69 44
60 55 54 55 62 70 78 73 73 68 59 92 89 100 96 72 52 93 100 100 100 100 100 100 89 69 71 80 66 61 100 96 100 100 96 81 72 99 82 100 100 100 80 55 47
66 78 86 74 91 85 89 79 82 73 81 61 96 97 100 76 54 96 88 83 100 100 96 94 91 87 98 83 59 58 64 88 100 100 87 80 69 91 100 100 98 98 88 50 53
87 87 73 78 73 94 98 77 45 60 76 100 88 68 100 70 59 78 96 90 91 100 100 97 71 76 73 56 68 66 60 95 100 100 98 92 97 100 100 100 100 100 79 56 53
86 85 82 75 83 76 46 26 24 39 56 57 46 56 69 70 69 57 87 93 94 97 99 88 72 73 78 81 83 86 76 84 98 96 100 96 82 100 100 100 100 98 63 68 63
100 83 87 78 70 30 25 23 24 22 21 30 36 40 53 54 54 55 77 93 93 93 94 70 56 60 76 93 100 100 92 82 75 68 66 80 51 100 100 100 100 89 70 59 48
81 58 67 58 51 47 49 51 45 38 38 36 38 42 52 55 61 82 76 80 75 87 92 86 77 81 100 100 100 100 100 99 100 100 79 76 53 99 100 100 87 96 100 65 65
64 44 49 54 58 57 55 44 38 39 32 33 44 41 48 54 50 46 59 67 88 81 98 98 90 90 99 93 95 100 100 100 100 97 95 100 92 92 100 97 91 90 91 54 52
42 52 63 64 59 56 44 39 35 30 32 28 37 44 43 46 52 52 52 85 99 100 100 100 100 98 100 100 100 100 100 96 98 100 97 100 82 100 100 100 100 72 66 65 70
67 69 72 59 46 39 37 32 25 24 22 25 31 33 40 51 69 72 44 56 66 69 87 100 100 100 100 98 100 100 99 94 91 90 84 100 100 100 100 92 69 64 62 66 64
77 61 53 40 30 28 24 23 20 19 18 19 23 24 27 30 33 46 51 43 50 64 66 81 90 100 100 100 100 100 100 100 95 86 81 75 85 85 70 72 67 59 67 75 65
53 43 34 30 26 22 17 14 14 12 11 11 12 14 16 19 20 26 29 31 44 52 56 64 66 78 96 94 100 100 100 100 100 84 78 79 89 92 98 95 74 71 63 72 56
42 35 29 21 16 15 14 13 12 10 8 8 9 9 9 10 12 14 17 19 25 33 45 49 58 75 87 72 84 99 93 96 97 88 76 66 90 100 93 93 76 58 66 71 47
34 24 18 15 15 13 12 10 8 7 6 6 7 7 7 8 8 8 9 12 17 21 22 27 32 45 62 72 76 81 79 71 72 66 59 48 60 88 73 56 57 65 68 61 37
23 17 15 13 10 10 9 8 6 6 6 5 5 5 6 7 7 9 8 7 10 14 16 17 19 27 31 36 56 76 85 72 60 55 50 45 48 80 58 52 43 51 56 52 32
21 18 12 10 11 11 9 6 5 6 5 4 5 4 5 5 6 6 6 6 7 8 9 9 13 16 23 29 32 38 36 33 44 51 41 52 25 70 68 34 32 40 45 42 26
21 14 14 12 12 10 8 6 6 5 5 4 4 4 4 4 5 5 6 5 5 7 8 8 9 10 15 18 23 26 25 28 35 32 21 21 24 44 34 24 31 32 38 32 28
17 16 16 12 10 8 7 5 4 4 4 3 4 3 4 4 3 3 4 4 4 5 6 6 8 9 10 11 12 14 24 31 29 20 15 14 26 35 23 21 22 27 31 25 41

GFSSW_250_rhum_117.txt.gz
RH
64 90 100 100 100 100 78 55 58 61 71 98 100 100 97 82 67 62 53 59 56 57 63 74 75 78 75 69 85 89 78 86 100 89 60 50 49 71 73 74 59 43 66 70 51
49 53 61 68 73 96 96 82 96 75 62 72 90 100 100 100 100 100 96 100 96 91 96 94 90 90 89 92 88 85 84 99 100 82 64 66 76 79 79 98 92 49 77 92 57
43 46 42 43 46 48 58 80 88 75 71 58 54 70 94 100 100 100 97 100 100 100 100 100 100 100 100 100 100 100 96 99 100 100 98 91 100 85 81 100 95 80 78 68 59
39 37 42 37 42 48 46 48 48 80 81 96 81 71 62 67 72 97 100 100 100 100 100 100 100 100 100 100 100 94 98 100 100 100 100 100 92 100 91 100 100 100 100 89 73
46 42 36 39 39 42 46 44 52 56 58 61 57 79 97 75 98 62 64 82 87 78 97 92 100 100 100 100 100 100 100 100 100 100 98 100 100 90 85 100 100 100 100 100 90
50 43 38 40 44 47 41 45 44 50 65 60 54 65 55 96 100 100 97 84 80 68 60 56 51 70 51 78 100 100 100 100 100 100 100 100 100 99 100 100 91 100 100 100 93
48 56 56 61 67 70 75 81 75 51 51 55 74 73 53 98 58 100 100 100 100 85 84 78 62 50 47 52 74 66 55 47 94 100 100 100 100 96 97 100 100 100 100 99 93
77 78 92 92 94 84 84 59 70 70 76 76 76 61 71 72 90 55 54 99 100 100 100 100 96 72 76 67 50 51 48 48 81 97 100 100 79 72 100 100 100 100 100 100 100
74 87 74 64 68 76 93 98 94 56 48 49 55 49 52 66 74 82 64 53 79 100 100 100 99 94 86 79 77 78 65 55 59 55 64 92 100 100 98 90 96 100 100 100 100
43 39 40 42 54 83 83 78 67 49 48 44 48 44 52 59 79 80 82 64 76 78 82 98 99 81 93 98 92 100 78 69 55 56 60 56 83 92 96 97 100 100 100 100 100
47 46 42 45 71 45 48 70 63 47 46 49 54 53 76 86 93 99 86 88 88 83 100 100 92 76 80 100 100 82 83 74 66 79 79 63 58 55 100 100 100 100 100 100 81
74 71 73 78 89 75 52 56 50 46 53 45 49 59 70 61 63 76 59 59 95 99 100 100 100 76 83 99 98 100 100 100 78 80 93 90 62 51 57 88 98 100 100 100 70
84 91 92 100 92 77 61 64 66 62 59 62 64 44 42 53 64 72 60 68 90 96 97 98 100 97 79 72 100 92 100 96 100 100 100 92 70 60 76 94 100 100 100 100 76
100 98 97 94 84 62 57 59 51 41 34 27 38 44 30 22 20 24 48 56 75 79 66 62 91 100 99 70 90 100 100 100 100 100 95 77 61 66 74 100 100 100 100 100 86
100 97 85 70 67 55 59 62 49 33 24 25 26 25 30 34 28 19 25 44 60 73 74 77 94 98 87 90 75 100 100 100 96 92 83 72 59 62 88 100 100 100 100 100 100
100 92 78 80 67 59 54 44 34 27 24 25 35 37 38 42 44 39 29 33 36 41 37 40 50 65 84 91 84 100 100 100 98 92 65 65 56 68 90 100 100 100 100 88 56
92 82 68 68 61 50 39 33 30 31 28 28 34 33 33 42 40 35 41 36 46 46 50 62 78 82 84 89 97 100 98 93 87 84 73 73 61 57 85 100 100 100 100 88 94
76 68 75 68 46 37 39 35 29 30 29 27 26 26 24 25 26 30 31 33 35 43 62 75 86 85 84 98 100 100 98 97 96 96 100 100 89 80 94 100 100 100 100 100 89
72 70 77 46 34 40 43 40 29 24 23 22 22 20 23 21 21 25 26 27 27 33 48 66 82 86 88 100 100 88 84 94 92 94 96 100 98 100 100 100 100 100 100 99 92
74 72 50 42 49 54 43 31 24 23 18 14 13 13 13 12 14 16 21 19 19 21 30 41 74 88 92 83 93 97 98 95 95 96 92 97 96 94 100 100 100 100 98 100 100
81 63 55 57 57 45 33 26 21 14 13 12 11 10 10 11 9 10 11 15 15 15 19 28 43 71 82 82 87 98 94 87 89 77 67 78 98 94 98 99 100 100 85 76 72
67 58 62 56 42 30 25 18 14 14 10 9 9 8 9 9 10 9 8 7 11 14 14 17 21 36 56 69 66 82 97 97 86 75 71 73 76 91 86 84 79 82 73 80 90
58 67 54 38 30 23 18 16 12 10 8 7 6 6 6 7 7 7 7 7 7 8 10 13 19 22 29 39 48 57 63 70 73 67 70 81 87 84 88 87 90 94 90 83 92
74 61 42 30 20 18 16 12 10 8 8 7 5 5 5 5 5 7 6 6 6 7 7 7 10 15 19 23 28 33 36 44 54 55 52 59 87 89 93 90 85 88 93 96 100
61 46 33 20 18 14 12 13 10 8 6 6 5 5 5 5 5 6 5 5 6 6 6 7 8 8 12 16 19 20 23 30 38 42 38 46 44 81 80 70 84 77 69 82 93
49 42 27 19 16 13 14 12 8 6 7 5 5 4 4 4 5 4 4 4 4 5 5 6 8 8 9 10 14 17 16 21 26 27 23 23 28 61 68 61 74 63 57 74 84
51 38 25 18 14 15 14 10 6 7 6 4 4 3 3 4 3 3 3 4 4 4 5 5 6 8 10 10 10 10 16 18 20 22 22 22 28 35 37 48 51 61 51 92 72

GFSSW_250_rhum_123.txt.gz
RH
31 30 35 42 47 46 52 52 65 66 63 65 62 63 62 78 78 75 62 60 64 54 64 68 71 66 70 48 35 36 42 50 55 62 62 55 47 47 51 67 62 92 81 72 63
38 31 33 33 34 34 38 38 39 41 41 40 39 45 46 47 57 68 51 64 66 71 70 61 74 85 70 67 58 46 41 43 71 82 80 83 53 57 63 74 63 86 92 84 64
54 40 44 36 34 36 34 41 39 34 38 40 36 34 34 35 40 37 43 46 47 44 49 61 69 60 73 83 66 67 71 73 79 95 93 99 73 95 73 61 56 69 72 75 95
74 53 51 61 52 43 36 42 52 48 47 53 53 42 35 35 44 51 70 59 55 65 68 52 45 56 78 74 87 94 100 100 100 100 100 100 100 100 100 100 100 100 94 56 71
96 94 91 100 96 65 56 53 47 70 73 75 65 54 50 44 47 50 53 57 61 70 71 83 84 69 54 55 64 79 91 98 100 100 100 100 100 100 100 100 100 100 88 78 49
100 100 100 100 92 98 81 79 82 89 84 77 62 57 57 57 56 54 67 64 71 77 75 66 78 89 76 69 52 54 63 70 96 100 100 100 100 100 100 100 100 100 88 79 79
100 100 99 100 100 99 88 80 71 64 62 60 66 70 73 74 76 69 60 68 62 69 60 52 87 82 62 80 72 67 47 56 64 86 100 100 100 100 100 100 100 100 100 100 100
94 85 84 92 94 92 72 62 67 84 53 55 64 55 63 67 72 82 88 68 52 56 58 53 71 72 70 50 50 65 57 57 66 89 86 86 86 97 100 58 67 79 65 91 95
92 94 100 83 69 59 51 44 48 47 42 45 60 73 65 69 88 82 43 46 55 51 52 51 40 59 64 44 43 48 60 59 62 72 100 100 100 91 77 80 77 72 56 53 52
98 100 100 98 74 66 66 66 62 62 57 60 56 65 70 78 69 46 42 47 44 55 56 50 44 40 40 45 50 66 84 89 76 64 85 100 100 100 88 71 74 86 72 70 63
100 99 99 100 86 92 82 75 63 72 79 65 60 67 58 56 58 54 54 43 50 52 46 50 54 59 56 56 58 74 64 78 92 78 95 79 100 100 100 100 96 77 85 79 86
100 100 100 100 100 100 100 100 99 78 68 74 91 75 51 65 67 60 47 42 38 37 44 47 46 52 55 57 63 69 62 83 100 100 96 95 88 100 100 100 100 100 91 90 90
100 100 100 100 100 100 100 100 100 87 89 69 65 63 52 39 40 37 38 36 34 34 33 32 37 40 47 52 51 55 66 81 99 100 100 100 100 99 100 100 100 100 100 100 100
100 100 100 100 100 100 90 92 90 86 73 61 52 47 42 39 39 38 36 31 34 28 25 24 26 29 30 38 41 55 75 95 97 100 100 100 100 100 100 100 100 100 98 96 97
98 100 92 83 80 75 79 76 72 82 73 47 46 43 44 53 50 37 35 32 27 22 18 19 21 27 27 24 30 37 50 60 99 100 100 100 100 100 99 93 100 100 100 100 100
88 84 97 90 77 68 66 78 71 67 56 56 57 56 53 48 54 42 39 29 21 18 21 25 28 21 30 33 28 31 30 38 51 95 96 100 100 100 100 96 78 99 100 100 96
90 90 90 91 94 82 70 64 64 67 65 63 60 55 53 44 40 42 36 25 21 19 25 25 24 27 27 30 34 36 29 28 40 54 72 96 80 92 96 100 100 97 100 100 90
100 100 100 97 80 85 73 71 72 79 75 59 57 54 40 46 40 34 24 21 22 16 18 18 23 18 19 26 30 38 41 31 30 33 55 75 72 99 99 100 100 100 100 100 100
100 99 90 80 84 81 86 77 72 84 70 65 58 43 39 38 32 22 21 21 16 13 11 12 14 15 17 20 25 34 35 74 46 26 27 52 77 83 91 100 100 100 100 100 100
100 94 100 100 79 93 92 87 84 82 63 63 51 46 41 33 20 18 17 12 10 8 8 8 8 10 12 14 19 25 36 44 48 34 38 50 74 86 100 98 100 100 100 100 100
100 100 99 98 89 84 93 87 78 65 62 62 48 38 34 23 18 15 11 9 7 6 6 6 7 10 11 10 14 21 27 32 40 33 50 70 71 95 100 100 96 100 100 100 100
97 100 100 100 100 93 84 77 67 62 57 46 43 36 24 19 14 10 9 6 6 5 6 5 5 7 10 9 12 18 21 25 31 45 61 84 90 74 73 93 97 88 73 74 100
100 100 100 95 73 78 68 68 64 61 44 45 37 25 19 13 10 8 7 6 6 5 5 4 5 6 8 10 11 16 18 25 28 31 48 69 94 95 100 91 79 98 93 94 100
100 100 82 72 71 70 77 72 63 54 50 40 28 20 14 11 8 7 6 5 5 4 4 4 4 5 6 8 9 11 12 17 22 26 47 75 79 97 96 65 46 69 98 100 100
81 77 75 72 76 77 72 63 56 52 45 35 23 15 12 9 7 5 5 5 4 4 4 4 5 5 6 7 8 10 14 12 19 24 34 51 59 62 43 21 43 81 74 92 96
78 90 83 92 86 74 69 60 57 49 42 24 15 12 9 7 5 4 4 4 4 4 4 4 4 5 5 6 6 8 11 11 12 22 26 26 30 41 55 23 29 57 73 88 92
82 88 88 82 86 71 58 66 56 48 26 17 14 11 7 6 5 5 5 5 4 4 4 3 3 5 5 6 6 8 12 13 13 13 17 22 29 32 21 21 38 47 62 64 66

GFSSW_250_rhum_129.txt.gz
RH
100 100 100 100 100 97 74 52 56 82 70 44 35 36 40 40 36 41 42 40 44 38 39 38 37 36 31 33 31 28 28 30 37 44 52 61 70 70 60 55 48 46 53 57 60
100 100 100 100 100 100 100 98 75 56 62 63 47 44 51 40 38 36 35 37 40 41 42 46 52 57 45 45 42 38 40 49 47 39 36 38 56 70 61 55 50 52 56 57 56
99 79 100 100 100 100 100 100 100 95 72 71 79 69 61 50 51 57 47 54 62 47 61 63 68 59 52 48 54 48 48 56 56 51 47 46 43 38 41 52 63 53 50 52 47
92 91 57 74 85 100 100 100 100 100 100 100 100 100 96 97 92 87 79 60 63 76 81 74 72 57 53 44 42 42 52 62 71 70 66 65 61 52 48 40 34 46 79 83 96
97 74 69 70 63 64 100 99 100 100 100 100 100 100 100 100 100 100 100 97 80 70 64 65 67 68 62 60 66 61 66 72 80 88 82 92 77 65 56 55 53 42 38 55 82
93 96 91 80 67 54 69 89 91 100 100 100 100 100 100 100 100 100 100 100 100 92 84 77 70 62 55 59 64 69 62 64 70 92 91 91 81 68 60 63 60 61 58 46 34
99 94 95 100 77 54 45 49 53 82 97 100 100 100 99 100 100 100 100 92 100 97 86 67 64 60 61 62 59 63 70 76 86 96 99 100 83 88 77 64 52 45 43 62 50
99 81 74 87 100 97 73 60 49 47 54 61 80 73 84 91 76 79 91 97 91 93 100 100 92 87 86 87 92 87 84 97 100 100 100 100 67 86 76 66 60 50 49 60 65
85 87 80 83 82 94 100 95 89 69 58 46 52 66 62 57 69 86 99 98 100 100 100 100 97 93 92 92 85 75 60 61 77 98 96 98 82 82 86 84 77 53 49 44 49
60 66 96 93 78 84 95 98 100 100 98 93 82 68 83 89 99 100 99 100 100 100 100 100 100 100 100 93 82 76 63 66 63 83 76 72 60 60 54 46 59 55 54 50 40
63 60 59 100 100 100 100 100 100 100 100 100 100 100 96 100 100 88 85 81 83 90 96 100 98 84 72 58 46 43 54 58 52 47 38 33 32 32 34 32 32 36 42 52 55
86 68 59 58 67 96 100 100 100 100 100 100 100 100 100 100 100 100 100 100 100 100 95 90 65 57 52 50 50 45 37 39 34 31 26 26 23 22 26 28 29 32 39 56 64
76 76 67 60 73 99 89 99 100 100 100 100 100 100 100 100 100 100 100 100 100 100 100 83 82 65 53 48 36 32 30 26 22 25 23 24 17 23 29 32 28 30 40 54 73
71 95 72 54 60 63 67 93 99 100 100 96 100 100 100 100 100 100 99 100 93 85 81 65 45 38 28 24 24 21 21 18 18 20 19 21 17 20 27 27 36 42 62 65 85
88 100 100 100 91 57 56 54 86 96 95 93 99 94 91 92 97 93 83 74 65 60 51 42 33 28 23 22 23 21 23 21 18 17 17 24 16 17 20 22 51 58 59 84 100
100 100 100 100 100 100 74 53 45 54 71 78 63 61 75 82 82 70 59 48 37 33 28 26 25 20 21 23 24 24 20 17 16 14 12 23 14 15 23 26 34 43 60 89 99
100 100 100 100 99 92 100 91 65 44 43 48 42 34 34 40 38 39 34 27 22 18 22 20 20 20 22 22 25 25 20 17 14 11 14 16 14 10 17 65 31 34 55 82 90
100 100 100 100 100 100 100 100 86 48 48 50 35 29 26 26 27 28 28 28 22 19 19 17 20 26 25 20 16 22 20 19 13 12 13 16 12 26 28 27 32 33 32 60 85
100 100 100 100 100 100 100 100 84 67 52 50 35 34 32 30 29 27 28 24 18 18 17 18 19 23 22 28 23 16 14 14 12 10 9 11 14 20 29 26 36 42 30 43 76
100 100 100 100 100 100 100 99 91 78 52 49 42 38 31 30 33 26 20 18 18 22 21 18 15 18 24 22 17 10 8 9 10 8 8 8 11 15 26 30 32 54 36 35 52
84 100 100 100 100 100 100 100 99 70 57 43 50 49 43 43 38 34 26 22 26 24 22 22 14 12 12 11 9 8 6 6 8 7 7 8 10 14 21 28 23 39 54 51 44
100 78 89 81 86 99 89 92 60 78 69 54 51 49 48 51 42 34 33 28 26 26 25 17 12 8 8 6 5 5 5 6 6 4 6 7 9 14 20 29 30 68 68 46 58
96 80 82 80 79 75 63 57 58 70 68 66 63 57 62 53 39 40 36 33 30 24 16 11 8 8 5 4 3 4 4 4 4 4 7 8 8 12 17 23 32 62 93 38 98
84 87 91 94 91 88 85 83 85 80 76 77 71 68 62 46 42 40 35 32 24 18 11 8 7 5 5 4 4 4 4 5 4 6 9 8 8 14 18 18 34 57 87 43 33
88 83 77 76 83 84 74 74 82 76 72 78 72 64 52 55 44 38 34 24 19 12 9 6 4 5 5 5 4 4 5 6 5 7 11 11 10 14 19 20 28 36 36 29 10
66 73 63 64 68 68 68 67 68 78 77 86 72 61 58 52 42 44 28 21 13 9 6 5 6 6 5 5 4 5 4 5 6 7 9 10 12 13 16 17 20 24 23 25 40
84 95 88 80 81 78 77 80 80 87 85 71 68 63 57 51 43 32 24 15 10 7 6 6 5 5 5 4 4 4 4 5 6 6 10 9 8 11 13 16 17 18 15 23 19

GFSSW_250_rhum_132.txt.gz
RH
100 100 99 83 73 78 98 98 100 100 100 100 86 72 68 70 56 42 50 47 38 40 38 36 38 34 40 48 48 40 26 27 41 40 44 54 51 46 36 30 29 52 72 53 39
100 100 100 88 76 72 73 91 100 100 100 99 100 100 94 81 77 70 59 60 48 45 58 56 48 41 38 42 36 33 35 38 37 38 43 61 66 64 42 40 34 29 44 67 53
84 100 100 100 98 97 74 63 70 86 86 93 100 100 100 100 100 100 100 91 77 75 84 90 73 50 51 55 61 52 41 62 63 54 60 54 57 88 66 54 54 47 38 38 62
78 90 100 100 86 97 98 58 54 61 65 75 71 88 94 99 100 100 100 100 100 100 100 100 99 83 84 75 68 55 53 57 56 57 55 79 67 68 77 86 79 59 60 49 42
96 99 99 93 100 100 100 100 72 59 74 73 85 91 73 78 60 77 66 63 65 84 78 94 100 99 78 72 78 77 67 53 52 53 54 66 87 90 86 96 100 93 65 57 58
99 100 98 100 91 90 91 99 100 89 63 66 81 88 74 88 91 85 75 75 74 71 88 93 90 83 82 89 85 85 80 71 62 55 54 53 52 61 83 97 96 95 84 76 66
100 98 100 100 94 88 76 87 98 99 91 65 52 51 63 73 80 85 97 100 97 94 100 100 100 100 89 91 90 99 98 92 94 90 73 63 51 51 54 71 69 92 97 99 96
100 95 100 95 100 85 73 81 74 96 90 90 73 60 61 52 55 81 85 90 100 96 88 76 72 90 100 99 99 96 88 85 100 100 100 88 48 65 71 70 70 74 78 71 64
84 81 97 92 95 98 100 94 79 66 90 97 79 80 80 73 66 55 60 54 69 91 96 92 89 84 77 82 88 93 74 80 99 100 98 91 78 90 86 70 69 74 75 70 77
86 63 69 81 98 100 79 60 65 71 84 98 98 98 99 97 94 98 98 97 89 85 86 84 94 100 100 100 94 82 72 60 59 70 54 47 40 42 39 37 37 42 51 57 53
78 71 69 73 100 100 87 81 71 65 65 100 100 100 100 100 92 100 100 100 100 100 100 99 98 100 100 100 97 80 76 77 82 100 51 50 50 48 44 36 38 41 41 37 38
94 80 77 75 73 59 59 77 88 88 71 68 90 100 100 100 100 100 100 100 100 100 100 100 100 100 100 100 100 99 87 82 77 74 67 67 39 28 30 27 29 27 28 23 25
100 98 91 98 94 100 90 66 60 63 86 64 70 95 100 100 99 100 100 100 100 100 100 100 100 100 100 100 95 86 68 69 54 45 39 30 22 21 20 21 22 20 20 18 21
100 100 100 100 100 100 92 100 100 72 51 63 77 73 82 81 80 99 100 100 98 100 100 99 95 96 90 80 70 67 60 48 29 24 22 22 19 19 16 18 20 20 20 17 17
100 100 96 100 100 100 80 100 95 100 69 59 49 54 52 60 55 57 75 77 83 83 73 53 52 62 62 51 39 33 25 20 18 17 17 18 18 15 18 22 25 23 28 17 19
97 100 100 100 100 100 100 100 87 88 100 95 100 100 95 67 62 52 50 50 59 54 42 34 31 30 28 25 22 20 17 17 17 18 16 18 20 11 20 26 20 27 27 20 21
83 93 100 100 100 100 100 100 100 100 100 100 99 99 100 86 73 77 68 57 49 48 40 32 33 28 23 19 20 18 17 16 16 19 16 17 14 16 21 19 13 18 18 19 24
55 61 93 92 100 99 100 100 100 100 100 100 87 84 88 98 90 92 63 44 45 42 36 34 34 32 24 19 17 17 16 16 13 14 15 19 16 17 13 12 15 17 22 17 22
66 53 68 76 79 93 95 100 100 100 100 100 100 90 87 94 93 85 67 50 46 48 37 33 36 28 22 21 18 17 16 14 15 13 12 14 11 10 11 10 14 20 21 23 25
62 66 83 80 76 89 85 100 100 100 100 100 100 100 100 99 100 100 81 67 65 57 42 28 26 23 15 15 20 21 16 15 13 9 9 9 6 7 8 11 11 16 17 24 32
61 94 84 89 94 98 100 99 100 100 86 100 100 100 100 100 97 99 89 73 68 52 38 27 17 18 14 12 12 20 12 10 9 7 6 6 5 5 8 10 11 16 18 25 30
82 76 80 87 94 100 94 100 100 93 99 96 100 100 100 100 100 89 79 74 58 46 30 21 20 18 13 12 9 8 7 6 6 5 4 4 6 5 8 10 12 19 19 26 35
97 88 68 82 98 84 98 98 99 97 98 98 97 89 90 99 95 68 64 58 46 34 24 25 19 15 14 10 6 5 4 4 4 4 4 4 6 7 10 12 15 18 30 27 41
66 69 78 84 95 87 92 85 96 98 99 94 93 87 77 70 69 67 59 44 34 28 23 19 18 14 9 6 5 4 4 4 4 4 4 5 7 8 9 14 18 20 27 25 49
40 45 57 69 89 95 97 98 96 100 97 94 88 82 80 77 64 50 40 34 32 28 25 22 14 8 6 4 4 5 5 5 5 5 5 6 6 8 11 14 21 23 20 25 31
67 85 95 100 94 94 100 100 99 93 93 85 74 65 60 53 48 43 40 42 30 26 23 13 10 6 4 5 5 5 6 5 5 4 4 6 8 8 12 13 13 15 20 24 34
88 94 100 96 99 97 92 86 88 80 78 70 68 62 52 51 46 46 47 36 32 28 15 11 8 6 5 5 5 5 5 5 6 5 5 6 9 9 11 10 12 11 14 18 25